<?xml version="1.0" encoding="UTF-8" standalone="no" ?>
<gpx xmlns="http://www.topografix.com/GPX/1/1" xmlns:xsi="http://www.w3.org/2001/XMLSchema-instance" xsi:schemaLocation="http://www.topografix.com/GPX/1/1 http://www.topografix.com/GPX/1/1/gpx.xsd" version="1.1" creator="VisuGPX - https://www.visugpx.com">
  <metadata>
    <name>Barcelonne</name>
    <desc><![CDATA[Barcelonne,Dist.99Km Asc.500m ]]></desc>
  </metadata>
  <trk>
    <name><![CDATA[Barcelonne]]></name>
    <cmt><![CDATA[Gilles, Thierry1&2, jean Michel, Jean Pierre, Claude, Bruno, Jacques, edouard, laurent, gilbert, bernard, mémé, pascal]]></cmt>
    <trkseg>
      <trkpt lat="45.11608" lon="4.96572">
        <ele>204.34700012207</ele>
        <time>2010-01-23T12:14:30Z</time>
      </trkpt>
      <trkpt lat="45.11638" lon="4.96647">
        <ele>204.32400512695</ele>
        <time>2010-01-23T12:14:40Z</time>
      </trkpt>
      <trkpt lat="45.11667" lon="4.96721">
        <ele>205.53500366211</ele>
        <time>2010-01-23T12:14:50Z</time>
      </trkpt>
      <trkpt lat="45.11703" lon="4.96786">
        <ele>205.82099914551</ele>
        <time>2010-01-23T12:15:00Z</time>
      </trkpt>
      <trkpt lat="45.11724" lon="4.96815">
        <ele>206.02099609375</ele>
        <time>2010-01-23T12:15:05Z</time>
      </trkpt>
      <trkpt lat="45.11737" lon="4.96831">
        <ele>205.82200622559</ele>
        <time>2010-01-23T12:15:10Z</time>
      </trkpt>
      <trkpt lat="45.11746" lon="4.9687">
        <ele>206.19700622559</ele>
        <time>2010-01-23T12:15:13Z</time>
      </trkpt>
      <trkpt lat="45.11768" lon="4.96884">
        <ele>206.33700561523</ele>
        <time>2010-01-23T12:15:16Z</time>
      </trkpt>
      <trkpt lat="45.11824" lon="4.96977">
        <ele>206.7200012207</ele>
        <time>2010-01-23T12:15:30Z</time>
      </trkpt>
      <trkpt lat="45.11868" lon="4.97041">
        <ele>207.05400085449</ele>
        <time>2010-01-23T12:15:40Z</time>
      </trkpt>
      <trkpt lat="45.11883" lon="4.97063">
        <ele>206.85099792481</ele>
        <time>2010-01-23T12:15:44Z</time>
      </trkpt>
      <trkpt lat="45.1188" lon="4.97119">
        <ele>205.87399291992</ele>
        <time>2010-01-23T12:15:49Z</time>
      </trkpt>
      <trkpt lat="45.11879" lon="4.97168">
        <ele>205.30299377441</ele>
        <time>2010-01-23T12:15:54Z</time>
      </trkpt>
      <trkpt lat="45.11896" lon="4.97273">
        <ele>204.52799987793</ele>
        <time>2010-01-23T12:16:05Z</time>
      </trkpt>
      <trkpt lat="45.11913" lon="4.97371">
        <ele>204.8450012207</ele>
        <time>2010-01-23T12:16:15Z</time>
      </trkpt>
      <trkpt lat="45.1193" lon="4.97466">
        <ele>205.47399902344</ele>
        <time>2010-01-23T12:16:25Z</time>
      </trkpt>
      <trkpt lat="45.11948" lon="4.97563">
        <ele>206.60299682617</ele>
        <time>2010-01-23T12:16:36Z</time>
      </trkpt>
      <trkpt lat="45.11952" lon="4.97588">
        <ele>206.56100463867</ele>
        <time>2010-01-23T12:16:39Z</time>
      </trkpt>
      <trkpt lat="45.11961" lon="4.97638">
        <ele>207.04600524902</ele>
        <time>2010-01-23T12:16:45Z</time>
      </trkpt>
      <trkpt lat="45.11969" lon="4.97683">
        <ele>207.12600708008</ele>
        <time>2010-01-23T12:16:50Z</time>
      </trkpt>
      <trkpt lat="45.1197" lon="4.97692">
        <ele>207.03500366211</ele>
        <time>2010-01-23T12:16:51Z</time>
      </trkpt>
      <trkpt lat="45.11992" lon="4.97808">
        <ele>207.17999267578</ele>
        <time>2010-01-23T12:17:04Z</time>
      </trkpt>
      <trkpt lat="45.12011" lon="4.97911">
        <ele>208.69200134277</ele>
        <time>2010-01-23T12:17:16Z</time>
      </trkpt>
      <trkpt lat="45.12023" lon="4.97969">
        <ele>208.93699645996</ele>
        <time>2010-01-23T12:17:23Z</time>
      </trkpt>
      <trkpt lat="45.12042" lon="4.98059">
        <ele>209.51400756836</ele>
        <time>2010-01-23T12:17:34Z</time>
      </trkpt>
      <trkpt lat="45.12061" lon="4.9815">
        <ele>210.32699584961</ele>
        <time>2010-01-23T12:17:45Z</time>
      </trkpt>
      <trkpt lat="45.12068" lon="4.98219">
        <ele>211.17399597168</ele>
        <time>2010-01-23T12:17:53Z</time>
      </trkpt>
      <trkpt lat="45.1206" lon="4.98291">
        <ele>211.61199951172</ele>
        <time>2010-01-23T12:18:01Z</time>
      </trkpt>
      <trkpt lat="45.12051" lon="4.98359">
        <ele>212.23199462891</ele>
        <time>2010-01-23T12:18:09Z</time>
      </trkpt>
      <trkpt lat="45.12047" lon="4.98382">
        <ele>212.64100646973</ele>
        <time>2010-01-23T12:18:12Z</time>
      </trkpt>
      <trkpt lat="45.12046" lon="4.98389">
        <ele>212.73100280762</ele>
        <time>2010-01-23T12:18:14Z</time>
      </trkpt>
      <trkpt lat="45.12046" lon="4.98389">
        <ele>213.00500488281</ele>
        <time>2010-01-23T12:18:15Z</time>
      </trkpt>
      <trkpt lat="45.1202" lon="4.98406">
        <ele>211.85299682617</ele>
        <time>2010-01-23T12:18:18Z</time>
      </trkpt>
      <trkpt lat="45.12003" lon="4.98397">
        <ele>211.27799987793</ele>
        <time>2010-01-23T12:18:21Z</time>
      </trkpt>
      <trkpt lat="45.11977" lon="4.98384">
        <ele>211.10800170898</ele>
        <time>2010-01-23T12:18:26Z</time>
      </trkpt>
      <trkpt lat="45.11978" lon="4.98418">
        <ele>211.19900512695</ele>
        <time>2010-01-23T12:18:29Z</time>
      </trkpt>
      <trkpt lat="45.11978" lon="4.9843">
        <ele>212.04499816894</ele>
        <time>2010-01-23T12:18:31Z</time>
      </trkpt>
      <trkpt lat="45.11978" lon="4.9844">
        <ele>211.60800170898</ele>
        <time>2010-01-23T12:18:35Z</time>
      </trkpt>
      <trkpt lat="45.11978" lon="4.98439">
        <ele>208.66200256348</ele>
        <time>2010-01-23T12:34:54Z</time>
      </trkpt>
      <trkpt lat="45.11978" lon="4.98433">
        <ele>208.4049987793</ele>
        <time>2010-01-23T12:35:04Z</time>
      </trkpt>
      <trkpt lat="45.11983" lon="4.98387">
        <ele>208.52299499512</ele>
        <time>2010-01-23T12:35:08Z</time>
      </trkpt>
      <trkpt lat="45.11988" lon="4.9839">
        <ele>208.42999267578</ele>
        <time>2010-01-23T12:35:13Z</time>
      </trkpt>
      <trkpt lat="45.11978" lon="4.98428">
        <ele>208.37800598144</ele>
        <time>2010-01-23T12:35:16Z</time>
      </trkpt>
      <trkpt lat="45.11978" lon="4.98415">
        <ele>208.27900695801</ele>
        <time>2010-01-23T12:35:21Z</time>
      </trkpt>
      <trkpt lat="45.11978" lon="4.98396">
        <ele>208.25199890137</ele>
        <time>2010-01-23T12:35:26Z</time>
      </trkpt>
      <trkpt lat="45.11986" lon="4.98389">
        <ele>208.20599365234</ele>
        <time>2010-01-23T12:35:28Z</time>
      </trkpt>
      <trkpt lat="45.12012" lon="4.98402">
        <ele>209.04899597168</ele>
        <time>2010-01-23T12:35:36Z</time>
      </trkpt>
      <trkpt lat="45.12027" lon="4.98409">
        <ele>210.13299560547</ele>
        <time>2010-01-23T12:35:41Z</time>
      </trkpt>
      <trkpt lat="45.12029" lon="4.9841">
        <ele>210.29499816894</ele>
        <time>2010-01-23T12:35:45Z</time>
      </trkpt>
      <trkpt lat="45.12048" lon="4.98433">
        <ele>210.24699401856</ele>
        <time>2010-01-23T12:35:49Z</time>
      </trkpt>
      <trkpt lat="45.12058" lon="4.98414">
        <ele>210.10699462891</ele>
        <time>2010-01-23T12:35:53Z</time>
      </trkpt>
      <trkpt lat="45.12047" lon="4.98386">
        <ele>209.75999450684</ele>
        <time>2010-01-23T12:35:57Z</time>
      </trkpt>
      <trkpt lat="45.12049" lon="4.98373">
        <ele>209.30200195312</ele>
        <time>2010-01-23T12:35:59Z</time>
      </trkpt>
      <trkpt lat="45.12057" lon="4.98314">
        <ele>208.37399291992</ele>
        <time>2010-01-23T12:36:07Z</time>
      </trkpt>
      <trkpt lat="45.12058" lon="4.98306">
        <ele>207.94599914551</ele>
        <time>2010-01-23T12:36:08Z</time>
      </trkpt>
      <trkpt lat="45.12067" lon="4.98227">
        <ele>208.24099731445</ele>
        <time>2010-01-23T12:36:18Z</time>
      </trkpt>
      <trkpt lat="45.12063" lon="4.98161">
        <ele>207.46800231934</ele>
        <time>2010-01-23T12:36:27Z</time>
      </trkpt>
      <trkpt lat="45.1205" lon="4.98099">
        <ele>206.95799255371</ele>
        <time>2010-01-23T12:36:35Z</time>
      </trkpt>
      <trkpt lat="45.12034" lon="4.9802">
        <ele>206.06500244141</ele>
        <time>2010-01-23T12:36:45Z</time>
      </trkpt>
      <trkpt lat="45.12014" lon="4.97925">
        <ele>205.0950012207</ele>
        <time>2010-01-23T12:36:57Z</time>
      </trkpt>
      <trkpt lat="45.11997" lon="4.97835">
        <ele>204.26100158691</ele>
        <time>2010-01-23T12:37:08Z</time>
      </trkpt>
      <trkpt lat="45.11977" lon="4.9773">
        <ele>203.32400512695</ele>
        <time>2010-01-23T12:37:21Z</time>
      </trkpt>
      <trkpt lat="45.11964" lon="4.97655">
        <ele>203.30299377441</ele>
        <time>2010-01-23T12:37:30Z</time>
      </trkpt>
      <trkpt lat="45.11958" lon="4.97622">
        <ele>203.31500244141</ele>
        <time>2010-01-23T12:37:34Z</time>
      </trkpt>
      <trkpt lat="45.11955" lon="4.97606">
        <ele>203.10699462891</ele>
        <time>2010-01-23T12:37:36Z</time>
      </trkpt>
      <trkpt lat="45.1195" lon="4.97574">
        <ele>202.74699401856</ele>
        <time>2010-01-23T12:37:40Z</time>
      </trkpt>
      <trkpt lat="45.11931" lon="4.9747">
        <ele>201.22500610352</ele>
        <time>2010-01-23T12:37:52Z</time>
      </trkpt>
      <trkpt lat="45.11911" lon="4.9736">
        <ele>200.51300048828</ele>
        <time>2010-01-23T12:38:05Z</time>
      </trkpt>
      <trkpt lat="45.11892" lon="4.97252">
        <ele>200.55900573731</ele>
        <time>2010-01-23T12:38:18Z</time>
      </trkpt>
      <trkpt lat="45.11879" lon="4.97163">
        <ele>201.01600646973</ele>
        <time>2010-01-23T12:38:29Z</time>
      </trkpt>
      <trkpt lat="45.1188" lon="4.97115">
        <ele>202.04800415039</ele>
        <time>2010-01-23T12:38:35Z</time>
      </trkpt>
      <trkpt lat="45.11882" lon="4.97101">
        <ele>202.42199707031</ele>
        <time>2010-01-23T12:38:37Z</time>
      </trkpt>
      <trkpt lat="45.11883" lon="4.97093">
        <ele>203.04800415039</ele>
        <time>2010-01-23T12:38:42Z</time>
      </trkpt>
      <trkpt lat="45.11902" lon="4.97062">
        <ele>203.13900756836</ele>
        <time>2010-01-23T12:38:44Z</time>
      </trkpt>
      <trkpt lat="45.11888" lon="4.97054">
        <ele>202.92900085449</ele>
        <time>2010-01-23T12:38:48Z</time>
      </trkpt>
      <trkpt lat="45.11833" lon="4.96989">
        <ele>202.37300109863</ele>
        <time>2010-01-23T12:38:59Z</time>
      </trkpt>
      <trkpt lat="45.11788" lon="4.96923">
        <ele>202.05999755859</ele>
        <time>2010-01-23T12:39:10Z</time>
      </trkpt>
      <trkpt lat="45.11775" lon="4.96897">
        <ele>201.78199768066</ele>
        <time>2010-01-23T12:39:14Z</time>
      </trkpt>
      <trkpt lat="45.11762" lon="4.96871">
        <ele>201.54200744629</ele>
        <time>2010-01-23T12:39:18Z</time>
      </trkpt>
      <trkpt lat="45.11763" lon="4.96839">
        <ele>201.6549987793</ele>
        <time>2010-01-23T12:39:22Z</time>
      </trkpt>
      <trkpt lat="45.1175" lon="4.96823">
        <ele>201.79400634766</ele>
        <time>2010-01-23T12:39:25Z</time>
      </trkpt>
      <trkpt lat="45.11721" lon="4.96812">
        <ele>201.45799255371</ele>
        <time>2010-01-23T12:39:30Z</time>
      </trkpt>
      <trkpt lat="45.11677" lon="4.96744">
        <ele>200.73599243164</ele>
        <time>2010-01-23T12:39:41Z</time>
      </trkpt>
      <trkpt lat="45.11649" lon="4.96676">
        <ele>200.05599975586</ele>
        <time>2010-01-23T12:39:50Z</time>
      </trkpt>
      <trkpt lat="45.11621" lon="4.96603">
        <ele>199.26800537109</ele>
        <time>2010-01-23T12:40:00Z</time>
      </trkpt>
      <trkpt lat="45.11586" lon="4.96521">
        <ele>199.06900024414</ele>
        <time>2010-01-23T12:40:11Z</time>
      </trkpt>
      <trkpt lat="45.11558" lon="4.96471">
        <ele>199.39599609375</ele>
        <time>2010-01-23T12:40:19Z</time>
      </trkpt>
      <trkpt lat="45.11514" lon="4.96401">
        <ele>199.94000244141</ele>
        <time>2010-01-23T12:40:31Z</time>
      </trkpt>
      <trkpt lat="45.11467" lon="4.96325">
        <ele>201.15100097656</ele>
        <time>2010-01-23T12:40:44Z</time>
      </trkpt>
      <trkpt lat="45.11433" lon="4.96265">
        <ele>202.05200195312</ele>
        <time>2010-01-23T12:40:54Z</time>
      </trkpt>
      <trkpt lat="45.11401" lon="4.96198">
        <ele>201.94999694824</ele>
        <time>2010-01-23T12:41:04Z</time>
      </trkpt>
      <trkpt lat="45.1137" lon="4.96133">
        <ele>200.92999267578</ele>
        <time>2010-01-23T12:41:13Z</time>
      </trkpt>
      <trkpt lat="45.1133" lon="4.96065">
        <ele>200.10499572754</ele>
        <time>2010-01-23T12:41:23Z</time>
      </trkpt>
      <trkpt lat="45.11301" lon="4.96019">
        <ele>199.75799560547</ele>
        <time>2010-01-23T12:41:30Z</time>
      </trkpt>
      <trkpt lat="45.11272" lon="4.9597">
        <ele>199.02600097656</ele>
        <time>2010-01-23T12:41:37Z</time>
      </trkpt>
      <trkpt lat="45.11251" lon="4.95934">
        <ele>198.43699645996</ele>
        <time>2010-01-23T12:41:42Z</time>
      </trkpt>
      <trkpt lat="45.11247" lon="4.95926">
        <ele>198.37800598144</ele>
        <time>2010-01-23T12:41:43Z</time>
      </trkpt>
      <trkpt lat="45.11203" lon="4.95861">
        <ele>197.64999389648</ele>
        <time>2010-01-23T12:41:53Z</time>
      </trkpt>
      <trkpt lat="45.11149" lon="4.95778">
        <ele>197.68099975586</ele>
        <time>2010-01-23T12:42:06Z</time>
      </trkpt>
      <trkpt lat="45.11114" lon="4.95712">
        <ele>198.18400573731</ele>
        <time>2010-01-23T12:42:16Z</time>
      </trkpt>
      <trkpt lat="45.11088" lon="4.9568">
        <ele>198.74699401856</ele>
        <time>2010-01-23T12:42:22Z</time>
      </trkpt>
      <trkpt lat="45.1106" lon="4.95651">
        <ele>198.94799804688</ele>
        <time>2010-01-23T12:42:28Z</time>
      </trkpt>
      <trkpt lat="45.11055" lon="4.95646">
        <ele>198.95599365234</ele>
        <time>2010-01-23T12:42:29Z</time>
      </trkpt>
      <trkpt lat="45.11026" lon="4.95617">
        <ele>198.63499450684</ele>
        <time>2010-01-23T12:42:35Z</time>
      </trkpt>
      <trkpt lat="45.11012" lon="4.95599">
        <ele>198.46699523926</ele>
        <time>2010-01-23T12:42:38Z</time>
      </trkpt>
      <trkpt lat="45.11008" lon="4.95592">
        <ele>198.24000549316</ele>
        <time>2010-01-23T12:42:39Z</time>
      </trkpt>
      <trkpt lat="45.10975" lon="4.95538">
        <ele>197.50399780273</ele>
        <time>2010-01-23T12:42:47Z</time>
      </trkpt>
      <trkpt lat="45.10953" lon="4.95471">
        <ele>196.30400085449</ele>
        <time>2010-01-23T12:42:55Z</time>
      </trkpt>
      <trkpt lat="45.10934" lon="4.95392">
        <ele>195.88200378418</ele>
        <time>2010-01-23T12:43:04Z</time>
      </trkpt>
      <trkpt lat="45.10922" lon="4.95342">
        <ele>195.98100280762</ele>
        <time>2010-01-23T12:43:12Z</time>
      </trkpt>
      <trkpt lat="45.10895" lon="4.95296">
        <ele>196.20399475098</ele>
        <time>2010-01-23T12:43:17Z</time>
      </trkpt>
      <trkpt lat="45.10886" lon="4.95284">
        <ele>195.99000549316</ele>
        <time>2010-01-23T12:43:19Z</time>
      </trkpt>
      <trkpt lat="45.10882" lon="4.95278">
        <ele>195.85800170898</ele>
        <time>2010-01-23T12:43:20Z</time>
      </trkpt>
      <trkpt lat="45.10821" lon="4.95199">
        <ele>195.29400634766</ele>
        <time>2010-01-23T12:43:33Z</time>
      </trkpt>
      <trkpt lat="45.10767" lon="4.9514">
        <ele>195.08399963379</ele>
        <time>2010-01-23T12:43:44Z</time>
      </trkpt>
      <trkpt lat="45.10725" lon="4.95104">
        <ele>195.13800048828</ele>
        <time>2010-01-23T12:43:52Z</time>
      </trkpt>
      <trkpt lat="45.10673" lon="4.95076">
        <ele>194.84199523926</ele>
        <time>2010-01-23T12:44:01Z</time>
      </trkpt>
      <trkpt lat="45.10608" lon="4.95047">
        <ele>194.21099853516</ele>
        <time>2010-01-23T12:44:12Z</time>
      </trkpt>
      <trkpt lat="45.10559" lon="4.95026">
        <ele>193.4109954834</ele>
        <time>2010-01-23T12:44:20Z</time>
      </trkpt>
      <trkpt lat="45.10499" lon="4.95">
        <ele>192.97999572754</ele>
        <time>2010-01-23T12:44:30Z</time>
      </trkpt>
      <trkpt lat="45.10493" lon="4.94998">
        <ele>193.06900024414</ele>
        <time>2010-01-23T12:44:31Z</time>
      </trkpt>
      <trkpt lat="45.10476" lon="4.9499">
        <ele>193.16000366211</ele>
        <time>2010-01-23T12:44:35Z</time>
      </trkpt>
      <trkpt lat="45.10476" lon="4.9499">
        <ele>193.08099365234</ele>
        <time>2010-01-23T12:44:39Z</time>
      </trkpt>
      <trkpt lat="45.10427" lon="4.94957">
        <ele>192.62699890137</ele>
        <time>2010-01-23T12:44:43Z</time>
      </trkpt>
      <trkpt lat="45.10369" lon="4.9492">
        <ele>191.80000305176</ele>
        <time>2010-01-23T12:44:53Z</time>
      </trkpt>
      <trkpt lat="45.10303" lon="4.94881">
        <ele>190.78500366211</ele>
        <time>2010-01-23T12:45:04Z</time>
      </trkpt>
      <trkpt lat="45.10239" lon="4.94842">
        <ele>189.98599243164</ele>
        <time>2010-01-23T12:45:15Z</time>
      </trkpt>
      <trkpt lat="45.10173" lon="4.94798">
        <ele>188.95599365234</ele>
        <time>2010-01-23T12:45:26Z</time>
      </trkpt>
      <trkpt lat="45.10091" lon="4.94739">
        <ele>187.51400756836</ele>
        <time>2010-01-23T12:45:40Z</time>
      </trkpt>
      <trkpt lat="45.10033" lon="4.94692">
        <ele>185.93200683594</ele>
        <time>2010-01-23T12:45:50Z</time>
      </trkpt>
      <trkpt lat="45.10021" lon="4.94681">
        <ele>186.22200012207</ele>
        <time>2010-01-23T12:45:52Z</time>
      </trkpt>
      <trkpt lat="45.09987" lon="4.94647">
        <ele>185.38400268555</ele>
        <time>2010-01-23T12:45:58Z</time>
      </trkpt>
      <trkpt lat="45.09962" lon="4.94623">
        <ele>184.87399291992</ele>
        <time>2010-01-23T12:46:03Z</time>
      </trkpt>
      <trkpt lat="45.09946" lon="4.94605">
        <ele>184.56900024414</ele>
        <time>2010-01-23T12:46:07Z</time>
      </trkpt>
      <trkpt lat="45.09925" lon="4.94577">
        <ele>182.02799987793</ele>
        <time>2010-01-23T12:46:12Z</time>
      </trkpt>
      <trkpt lat="45.09893" lon="4.94533">
        <ele>181.35000610352</ele>
        <time>2010-01-23T12:46:19Z</time>
      </trkpt>
      <trkpt lat="45.09854" lon="4.94484">
        <ele>180.90299987793</ele>
        <time>2010-01-23T12:46:27Z</time>
      </trkpt>
      <trkpt lat="45.09825" lon="4.94455">
        <ele>181.27099609375</ele>
        <time>2010-01-23T12:46:33Z</time>
      </trkpt>
      <trkpt lat="45.09787" lon="4.94418">
        <ele>183.01100158691</ele>
        <time>2010-01-23T12:46:42Z</time>
      </trkpt>
      <trkpt lat="45.09768" lon="4.94448">
        <ele>183.03999328613</ele>
        <time>2010-01-23T12:46:43Z</time>
      </trkpt>
      <trkpt lat="45.09726" lon="4.94443">
        <ele>182.56300354004</ele>
        <time>2010-01-23T12:46:51Z</time>
      </trkpt>
      <trkpt lat="45.09692" lon="4.94444">
        <ele>182.29100036621</ele>
        <time>2010-01-23T12:46:57Z</time>
      </trkpt>
      <trkpt lat="45.09624" lon="4.94438">
        <ele>182.18200683594</ele>
        <time>2010-01-23T12:47:09Z</time>
      </trkpt>
      <trkpt lat="45.09571" lon="4.94434">
        <ele>181.85000610352</ele>
        <time>2010-01-23T12:47:18Z</time>
      </trkpt>
      <trkpt lat="45.09518" lon="4.94429">
        <ele>181.5890045166</ele>
        <time>2010-01-23T12:47:27Z</time>
      </trkpt>
      <trkpt lat="45.09465" lon="4.94421">
        <ele>180.60699462891</ele>
        <time>2010-01-23T12:47:36Z</time>
      </trkpt>
      <trkpt lat="45.09426" lon="4.94413">
        <ele>180.63800048828</ele>
        <time>2010-01-23T12:47:43Z</time>
      </trkpt>
      <trkpt lat="45.09422" lon="4.94412">
        <ele>180.8809967041</ele>
        <time>2010-01-23T12:47:44Z</time>
      </trkpt>
      <trkpt lat="45.09386" lon="4.94402">
        <ele>180.78399658203</ele>
        <time>2010-01-23T12:47:51Z</time>
      </trkpt>
      <trkpt lat="45.09344" lon="4.94388">
        <ele>182.05299377441</ele>
        <time>2010-01-23T12:47:59Z</time>
      </trkpt>
      <trkpt lat="45.09311" lon="4.94374">
        <ele>183.12100219727</ele>
        <time>2010-01-23T12:48:06Z</time>
      </trkpt>
      <trkpt lat="45.09264" lon="4.94354">
        <ele>183.18099975586</ele>
        <time>2010-01-23T12:48:15Z</time>
      </trkpt>
      <trkpt lat="45.09216" lon="4.94346">
        <ele>181.38200378418</ele>
        <time>2010-01-23T12:48:23Z</time>
      </trkpt>
      <trkpt lat="45.09167" lon="4.94342">
        <ele>178.34199523926</ele>
        <time>2010-01-23T12:48:30Z</time>
      </trkpt>
      <trkpt lat="45.09159" lon="4.94344">
        <ele>178.29200744629</ele>
        <time>2010-01-23T12:48:31Z</time>
      </trkpt>
      <trkpt lat="45.09132" lon="4.9435">
        <ele>176.47900390625</ele>
        <time>2010-01-23T12:48:36Z</time>
      </trkpt>
      <trkpt lat="45.09132" lon="4.9435">
        <ele>173.64500427246</ele>
        <time>2010-01-23T12:48:44Z</time>
      </trkpt>
      <trkpt lat="45.08984" lon="4.94334">
        <ele>171.70799255371</ele>
        <time>2010-01-23T12:48:53Z</time>
      </trkpt>
      <trkpt lat="45.08933" lon="4.94346">
        <ele>171.24699401856</ele>
        <time>2010-01-23T12:49:00Z</time>
      </trkpt>
      <trkpt lat="45.08883" lon="4.94357">
        <ele>171.22399902344</ele>
        <time>2010-01-23T12:49:08Z</time>
      </trkpt>
      <trkpt lat="45.08871" lon="4.9436">
        <ele>170.50999450684</ele>
        <time>2010-01-23T12:49:10Z</time>
      </trkpt>
      <trkpt lat="45.08862" lon="4.94499">
        <ele>169.28900146484</ele>
        <time>2010-01-23T12:49:14Z</time>
      </trkpt>
      <trkpt lat="45.08858" lon="4.94493">
        <ele>169.13000488281</ele>
        <time>2010-01-23T12:49:15Z</time>
      </trkpt>
      <trkpt lat="45.08849" lon="4.94454">
        <ele>169.12300109863</ele>
        <time>2010-01-23T12:49:20Z</time>
      </trkpt>
      <trkpt lat="45.08841" lon="4.94411">
        <ele>170.99699401856</ele>
        <time>2010-01-23T12:49:26Z</time>
      </trkpt>
      <trkpt lat="45.08838" lon="4.94391">
        <ele>171.38600158691</ele>
        <time>2010-01-23T12:49:29Z</time>
      </trkpt>
      <trkpt lat="45.08831" lon="4.94369">
        <ele>172.89100646973</ele>
        <time>2010-01-23T12:49:33Z</time>
      </trkpt>
      <trkpt lat="45.08827" lon="4.9437">
        <ele>172.89100646973</ele>
        <time>2010-01-23T12:49:34Z</time>
      </trkpt>
      <trkpt lat="45.08792" lon="4.94376">
        <ele>173.97399902344</ele>
        <time>2010-01-23T12:49:42Z</time>
      </trkpt>
      <trkpt lat="45.08732" lon="4.94384">
        <ele>173.40800476074</ele>
        <time>2010-01-23T12:49:54Z</time>
      </trkpt>
      <trkpt lat="45.08668" lon="4.94392">
        <ele>173.91000366211</ele>
        <time>2010-01-23T12:50:06Z</time>
      </trkpt>
      <trkpt lat="45.08663" lon="4.94393">
        <ele>174.10299682617</ele>
        <time>2010-01-23T12:50:07Z</time>
      </trkpt>
      <trkpt lat="45.0862" lon="4.94402">
        <ele>174.08500671387</ele>
        <time>2010-01-23T12:50:15Z</time>
      </trkpt>
      <trkpt lat="45.08574" lon="4.94412">
        <ele>172.16700744629</ele>
        <time>2010-01-23T12:50:23Z</time>
      </trkpt>
      <trkpt lat="45.08534" lon="4.94413">
        <ele>172.37699890137</ele>
        <time>2010-01-23T12:50:30Z</time>
      </trkpt>
      <trkpt lat="45.0848" lon="4.94411">
        <ele>172.8390045166</ele>
        <time>2010-01-23T12:50:40Z</time>
      </trkpt>
      <trkpt lat="45.0842" lon="4.94408">
        <ele>171.9109954834</ele>
        <time>2010-01-23T12:50:50Z</time>
      </trkpt>
      <trkpt lat="45.08373" lon="4.94416">
        <ele>171.8690032959</ele>
        <time>2010-01-23T12:50:58Z</time>
      </trkpt>
      <trkpt lat="45.08329" lon="4.94439">
        <ele>171.70300292969</ele>
        <time>2010-01-23T12:51:06Z</time>
      </trkpt>
      <trkpt lat="45.08278" lon="4.94475">
        <ele>172.31199645996</ele>
        <time>2010-01-23T12:51:16Z</time>
      </trkpt>
      <trkpt lat="45.08263" lon="4.94484">
        <ele>172.97700500488</ele>
        <time>2010-01-23T12:51:19Z</time>
      </trkpt>
      <trkpt lat="45.08253" lon="4.94488">
        <ele>173.35499572754</ele>
        <time>2010-01-23T12:51:21Z</time>
      </trkpt>
      <trkpt lat="45.08236" lon="4.94513">
        <ele>173.94099426269</ele>
        <time>2010-01-23T12:51:26Z</time>
      </trkpt>
      <trkpt lat="45.08234" lon="4.94519">
        <ele>173.89799499512</ele>
        <time>2010-01-23T12:51:27Z</time>
      </trkpt>
      <trkpt lat="45.08211" lon="4.94584">
        <ele>171.98599243164</ele>
        <time>2010-01-23T12:51:36Z</time>
      </trkpt>
      <trkpt lat="45.08198" lon="4.94636">
        <ele>169.74200439453</ele>
        <time>2010-01-23T12:51:42Z</time>
      </trkpt>
      <trkpt lat="45.08192" lon="4.94666">
        <ele>168.46499633789</ele>
        <time>2010-01-23T12:51:45Z</time>
      </trkpt>
      <trkpt lat="45.08182" lon="4.94695">
        <ele>168.27400207519</ele>
        <time>2010-01-23T12:51:48Z</time>
      </trkpt>
      <trkpt lat="45.08166" lon="4.9473">
        <ele>166.64399719238</ele>
        <time>2010-01-23T12:51:52Z</time>
      </trkpt>
      <trkpt lat="45.0816" lon="4.94741">
        <ele>166.68499755859</ele>
        <time>2010-01-23T12:51:54Z</time>
      </trkpt>
      <trkpt lat="45.08155" lon="4.94753">
        <ele>167.00799560547</ele>
        <time>2010-01-23T12:51:57Z</time>
      </trkpt>
      <trkpt lat="45.08098" lon="4.94715">
        <ele>167.58299255371</ele>
        <time>2010-01-23T12:52:03Z</time>
      </trkpt>
      <trkpt lat="45.08021" lon="4.94651">
        <ele>168.72300720215</ele>
        <time>2010-01-23T12:52:12Z</time>
      </trkpt>
      <trkpt lat="45.08012" lon="4.94652">
        <ele>170.25100708008</ele>
        <time>2010-01-23T12:52:20Z</time>
      </trkpt>
      <trkpt lat="45.07994" lon="4.94655">
        <ele>170.79600524902</ele>
        <time>2010-01-23T12:52:24Z</time>
      </trkpt>
      <trkpt lat="45.07957" lon="4.9466">
        <ele>169.89199829102</ele>
        <time>2010-01-23T12:52:33Z</time>
      </trkpt>
      <trkpt lat="45.07913" lon="4.94667">
        <ele>170.27799987793</ele>
        <time>2010-01-23T12:52:41Z</time>
      </trkpt>
      <trkpt lat="45.07897" lon="4.94669">
        <ele>168.94599914551</ele>
        <time>2010-01-23T12:52:44Z</time>
      </trkpt>
      <trkpt lat="45.07832" lon="4.94679">
        <ele>167.78300476074</ele>
        <time>2010-01-23T12:52:55Z</time>
      </trkpt>
      <trkpt lat="45.07772" lon="4.9468">
        <ele>165.97500610352</ele>
        <time>2010-01-23T12:53:05Z</time>
      </trkpt>
      <trkpt lat="45.07717" lon="4.94672">
        <ele>166.61500549316</ele>
        <time>2010-01-23T12:53:14Z</time>
      </trkpt>
      <trkpt lat="45.07671" lon="4.94683">
        <ele>167.25199890137</ele>
        <time>2010-01-23T12:53:22Z</time>
      </trkpt>
      <trkpt lat="45.07619" lon="4.94699">
        <ele>166.67999267578</ele>
        <time>2010-01-23T12:53:31Z</time>
      </trkpt>
      <trkpt lat="45.07567" lon="4.94715">
        <ele>165.86000061035</ele>
        <time>2010-01-23T12:53:40Z</time>
      </trkpt>
      <trkpt lat="45.07553" lon="4.9472">
        <ele>165.93600463867</ele>
        <time>2010-01-23T12:53:44Z</time>
      </trkpt>
      <trkpt lat="45.0754" lon="4.94707">
        <ele>166.28999328613</ele>
        <time>2010-01-23T12:53:45Z</time>
      </trkpt>
      <trkpt lat="45.07528" lon="4.94694">
        <ele>166.9640045166</ele>
        <time>2010-01-23T12:53:48Z</time>
      </trkpt>
      <trkpt lat="45.07491" lon="4.94658">
        <ele>169.07699584961</ele>
        <time>2010-01-23T12:53:57Z</time>
      </trkpt>
      <trkpt lat="45.07463" lon="4.94629">
        <ele>171.52600097656</ele>
        <time>2010-01-23T12:54:05Z</time>
      </trkpt>
      <trkpt lat="45.07438" lon="4.94636">
        <ele>170.09399414062</ele>
        <time>2010-01-23T12:54:10Z</time>
      </trkpt>
      <trkpt lat="45.07419" lon="4.94641">
        <ele>168.82899475098</ele>
        <time>2010-01-23T12:54:13Z</time>
      </trkpt>
      <trkpt lat="45.07392" lon="4.94653">
        <ele>168.47099304199</ele>
        <time>2010-01-23T12:54:17Z</time>
      </trkpt>
      <trkpt lat="45.07366" lon="4.94671">
        <ele>168.56300354004</ele>
        <time>2010-01-23T12:54:21Z</time>
      </trkpt>
      <trkpt lat="45.07351" lon="4.94706">
        <ele>169.44500732422</ele>
        <time>2010-01-23T12:54:25Z</time>
      </trkpt>
      <trkpt lat="45.0734" lon="4.94733">
        <ele>169.36999511719</ele>
        <time>2010-01-23T12:54:29Z</time>
      </trkpt>
      <trkpt lat="45.07324" lon="4.94776">
        <ele>168.35400390625</ele>
        <time>2010-01-23T12:54:35Z</time>
      </trkpt>
      <trkpt lat="45.07313" lon="4.94799">
        <ele>168.67300415039</ele>
        <time>2010-01-23T12:54:38Z</time>
      </trkpt>
      <trkpt lat="45.07282" lon="4.94835">
        <ele>165.07499694824</ele>
        <time>2010-01-23T12:54:44Z</time>
      </trkpt>
      <trkpt lat="45.07235" lon="4.94879">
        <ele>164.52499389648</ele>
        <time>2010-01-23T12:54:53Z</time>
      </trkpt>
      <trkpt lat="45.07205" lon="4.94922">
        <ele>163.65400695801</ele>
        <time>2010-01-23T12:55:00Z</time>
      </trkpt>
      <trkpt lat="45.07167" lon="4.94976">
        <ele>162</ele>
        <time>2010-01-23T12:55:08Z</time>
      </trkpt>
      <trkpt lat="45.07136" lon="4.95021">
        <ele>161.54699707031</ele>
        <time>2010-01-23T12:55:15Z</time>
      </trkpt>
      <trkpt lat="45.07119" lon="4.95046">
        <ele>161.24600219727</ele>
        <time>2010-01-23T12:55:19Z</time>
      </trkpt>
      <trkpt lat="45.07075" lon="4.95079">
        <ele>158.66900634766</ele>
        <time>2010-01-23T12:55:27Z</time>
      </trkpt>
      <trkpt lat="45.07027" lon="4.95101">
        <ele>158.06900024414</ele>
        <time>2010-01-23T12:55:35Z</time>
      </trkpt>
      <trkpt lat="45.06993" lon="4.95113">
        <ele>158.70199584961</ele>
        <time>2010-01-23T12:55:42Z</time>
      </trkpt>
      <trkpt lat="45.06953" lon="4.95126">
        <ele>159.51899719238</ele>
        <time>2010-01-23T12:55:51Z</time>
      </trkpt>
      <trkpt lat="45.06909" lon="4.9514">
        <ele>158.91799926758</ele>
        <time>2010-01-23T12:55:59Z</time>
      </trkpt>
      <trkpt lat="45.06866" lon="4.95143">
        <ele>158.75399780273</ele>
        <time>2010-01-23T12:56:06Z</time>
      </trkpt>
      <trkpt lat="45.06816" lon="4.95149">
        <ele>157.48899841309</ele>
        <time>2010-01-23T12:56:14Z</time>
      </trkpt>
      <trkpt lat="45.06762" lon="4.95158">
        <ele>156.71800231934</ele>
        <time>2010-01-23T12:56:23Z</time>
      </trkpt>
      <trkpt lat="45.06697" lon="4.95168">
        <ele>156.69000244141</ele>
        <time>2010-01-23T12:56:34Z</time>
      </trkpt>
      <trkpt lat="45.06649" lon="4.95178">
        <ele>156.78300476074</ele>
        <time>2010-01-23T12:56:43Z</time>
      </trkpt>
      <trkpt lat="45.06598" lon="4.95191">
        <ele>156.94999694824</ele>
        <time>2010-01-23T12:56:52Z</time>
      </trkpt>
      <trkpt lat="45.06542" lon="4.95204">
        <ele>157.97700500488</ele>
        <time>2010-01-23T12:57:02Z</time>
      </trkpt>
      <trkpt lat="45.06493" lon="4.95216">
        <ele>159.05700683594</ele>
        <time>2010-01-23T12:57:11Z</time>
      </trkpt>
      <trkpt lat="45.06459" lon="4.95229">
        <ele>161.01800537109</ele>
        <time>2010-01-23T12:57:18Z</time>
      </trkpt>
      <trkpt lat="45.06432" lon="4.95244">
        <ele>160.39999389648</ele>
        <time>2010-01-23T12:57:24Z</time>
      </trkpt>
      <trkpt lat="45.06421" lon="4.95251">
        <ele>160.27000427246</ele>
        <time>2010-01-23T12:57:26Z</time>
      </trkpt>
      <trkpt lat="45.06397" lon="4.9528">
        <ele>157.92399597168</ele>
        <time>2010-01-23T12:57:31Z</time>
      </trkpt>
      <trkpt lat="45.06376" lon="4.95319">
        <ele>155.17999267578</ele>
        <time>2010-01-23T12:57:36Z</time>
      </trkpt>
      <trkpt lat="45.06373" lon="4.95356">
        <ele>153.95100402832</ele>
        <time>2010-01-23T12:57:40Z</time>
      </trkpt>
      <trkpt lat="45.06362" lon="4.95367">
        <ele>152.99499511719</ele>
        <time>2010-01-23T12:57:44Z</time>
      </trkpt>
      <trkpt lat="45.06357" lon="4.95368">
        <ele>152.81900024414</ele>
        <time>2010-01-23T12:57:45Z</time>
      </trkpt>
      <trkpt lat="45.06294" lon="4.95389">
        <ele>153.03300476074</ele>
        <time>2010-01-23T12:57:56Z</time>
      </trkpt>
      <trkpt lat="45.06248" lon="4.95403">
        <ele>152.875</ele>
        <time>2010-01-23T12:58:04Z</time>
      </trkpt>
      <trkpt lat="45.06237" lon="4.95404">
        <ele>153.05599975586</ele>
        <time>2010-01-23T12:58:06Z</time>
      </trkpt>
      <trkpt lat="45.0622" lon="4.95397">
        <ele>152.67300415039</ele>
        <time>2010-01-23T12:58:10Z</time>
      </trkpt>
      <trkpt lat="45.06216" lon="4.95392">
        <ele>152.46200561523</ele>
        <time>2010-01-23T12:58:11Z</time>
      </trkpt>
      <trkpt lat="45.06208" lon="4.95381">
        <ele>153.1549987793</ele>
        <time>2010-01-23T12:58:13Z</time>
      </trkpt>
      <trkpt lat="45.06187" lon="4.95362">
        <ele>154.43400573731</ele>
        <time>2010-01-23T12:58:18Z</time>
      </trkpt>
      <trkpt lat="45.06168" lon="4.95355">
        <ele>154.94000244141</ele>
        <time>2010-01-23T12:58:22Z</time>
      </trkpt>
      <trkpt lat="45.06163" lon="4.95356">
        <ele>155.05700683594</ele>
        <time>2010-01-23T12:58:23Z</time>
      </trkpt>
      <trkpt lat="45.06115" lon="4.95359">
        <ele>154.00500488281</ele>
        <time>2010-01-23T12:58:31Z</time>
      </trkpt>
      <trkpt lat="45.06076" lon="4.95361">
        <ele>154.6309967041</ele>
        <time>2010-01-23T12:58:37Z</time>
      </trkpt>
      <trkpt lat="45.06069" lon="4.95362">
        <ele>154.87600708008</ele>
        <time>2010-01-23T12:58:38Z</time>
      </trkpt>
      <trkpt lat="45.06058" lon="4.95362">
        <ele>154.14599609375</ele>
        <time>2010-01-23T12:58:40Z</time>
      </trkpt>
      <trkpt lat="45.06041" lon="4.95363">
        <ele>154.7440032959</ele>
        <time>2010-01-23T12:58:43Z</time>
      </trkpt>
      <trkpt lat="45.06007" lon="4.95341">
        <ele>154.48199462891</ele>
        <time>2010-01-23T12:58:50Z</time>
      </trkpt>
      <trkpt lat="45.05972" lon="4.9532">
        <ele>153.92599487305</ele>
        <time>2010-01-23T12:58:56Z</time>
      </trkpt>
      <trkpt lat="45.05919" lon="4.95286">
        <ele>153.79600524902</ele>
        <time>2010-01-23T12:59:06Z</time>
      </trkpt>
      <trkpt lat="45.05876" lon="4.9526">
        <ele>150.87600708008</ele>
        <time>2010-01-23T12:59:13Z</time>
      </trkpt>
      <trkpt lat="45.0584" lon="4.95238">
        <ele>149.68099975586</ele>
        <time>2010-01-23T12:59:18Z</time>
      </trkpt>
      <trkpt lat="45.05809" lon="4.95211">
        <ele>150.53799438477</ele>
        <time>2010-01-23T12:59:23Z</time>
      </trkpt>
      <trkpt lat="45.05805" lon="4.95204">
        <ele>150.79699707031</ele>
        <time>2010-01-23T12:59:24Z</time>
      </trkpt>
      <trkpt lat="45.05793" lon="4.95186">
        <ele>151.54800415039</ele>
        <time>2010-01-23T12:59:27Z</time>
      </trkpt>
      <trkpt lat="45.05785" lon="4.95175">
        <ele>151.89399719238</ele>
        <time>2010-01-23T12:59:29Z</time>
      </trkpt>
      <trkpt lat="45.05772" lon="4.95155">
        <ele>152.43899536133</ele>
        <time>2010-01-23T12:59:33Z</time>
      </trkpt>
      <trkpt lat="45.05761" lon="4.95139">
        <ele>152.91299438477</ele>
        <time>2010-01-23T12:59:36Z</time>
      </trkpt>
      <trkpt lat="45.05743" lon="4.95126">
        <ele>153.69999694824</ele>
        <time>2010-01-23T12:59:40Z</time>
      </trkpt>
      <trkpt lat="45.05697" lon="4.95116">
        <ele>153.2619934082</ele>
        <time>2010-01-23T12:59:48Z</time>
      </trkpt>
      <trkpt lat="45.05658" lon="4.95098">
        <ele>150.32499694824</ele>
        <time>2010-01-23T12:59:54Z</time>
      </trkpt>
      <trkpt lat="45.05618" lon="4.95075">
        <ele>146.60299682617</ele>
        <time>2010-01-23T12:59:59Z</time>
      </trkpt>
      <trkpt lat="45.05573" lon="4.9505">
        <ele>145.38999938965</ele>
        <time>2010-01-23T13:00:04Z</time>
      </trkpt>
      <trkpt lat="45.05535" lon="4.95028">
        <ele>146.66000366211</ele>
        <time>2010-01-23T13:00:09Z</time>
      </trkpt>
      <trkpt lat="45.05507" lon="4.95013">
        <ele>148.57299804688</ele>
        <time>2010-01-23T13:00:14Z</time>
      </trkpt>
      <trkpt lat="45.05467" lon="4.95001">
        <ele>150.60899353027</ele>
        <time>2010-01-23T13:00:22Z</time>
      </trkpt>
      <trkpt lat="45.05429" lon="4.94994">
        <ele>149.68899536133</ele>
        <time>2010-01-23T13:00:29Z</time>
      </trkpt>
      <trkpt lat="45.05416" lon="4.94991">
        <ele>149.21499633789</ele>
        <time>2010-01-23T13:00:31Z</time>
      </trkpt>
      <trkpt lat="45.05391" lon="4.94977">
        <ele>148.45799255371</ele>
        <time>2010-01-23T13:00:35Z</time>
      </trkpt>
      <trkpt lat="45.05373" lon="4.94963">
        <ele>147.93200683594</ele>
        <time>2010-01-23T13:00:39Z</time>
      </trkpt>
      <trkpt lat="45.05369" lon="4.9496">
        <ele>147.56199645996</ele>
        <time>2010-01-23T13:00:44Z</time>
      </trkpt>
      <trkpt lat="45.05343" lon="4.94939">
        <ele>147.46899414062</ele>
        <time>2010-01-23T13:00:50Z</time>
      </trkpt>
      <trkpt lat="45.05324" lon="4.94917">
        <ele>147.25</ele>
        <time>2010-01-23T13:00:55Z</time>
      </trkpt>
      <trkpt lat="45.05293" lon="4.94877">
        <ele>147.62600708008</ele>
        <time>2010-01-23T13:01:02Z</time>
      </trkpt>
      <trkpt lat="45.0528" lon="4.94854">
        <ele>148.55000305176</ele>
        <time>2010-01-23T13:01:06Z</time>
      </trkpt>
      <trkpt lat="45.05271" lon="4.94808">
        <ele>150.29899597168</ele>
        <time>2010-01-23T13:01:13Z</time>
      </trkpt>
      <trkpt lat="45.05262" lon="4.94776">
        <ele>150.98399353027</ele>
        <time>2010-01-23T13:01:18Z</time>
      </trkpt>
      <trkpt lat="45.05257" lon="4.94771">
        <ele>151.3690032959</ele>
        <time>2010-01-23T13:01:20Z</time>
      </trkpt>
      <trkpt lat="45.05244" lon="4.94775">
        <ele>152.04600524902</ele>
        <time>2010-01-23T13:01:27Z</time>
      </trkpt>
      <trkpt lat="45.05207" lon="4.94771">
        <ele>152.44500732422</ele>
        <time>2010-01-23T13:01:32Z</time>
      </trkpt>
      <trkpt lat="45.05203" lon="4.9477">
        <ele>152.23699951172</ele>
        <time>2010-01-23T13:01:33Z</time>
      </trkpt>
      <trkpt lat="45.05173" lon="4.94752">
        <ele>152.06700134277</ele>
        <time>2010-01-23T13:01:40Z</time>
      </trkpt>
      <trkpt lat="45.05144" lon="4.94742">
        <ele>151.87899780273</ele>
        <time>2010-01-23T13:01:46Z</time>
      </trkpt>
      <trkpt lat="45.05104" lon="4.94736">
        <ele>150.97900390625</ele>
        <time>2010-01-23T13:01:53Z</time>
      </trkpt>
      <trkpt lat="45.05046" lon="4.94728">
        <ele>149.98599243164</ele>
        <time>2010-01-23T13:02:02Z</time>
      </trkpt>
      <trkpt lat="45.0501" lon="4.94708">
        <ele>149.45500183106</ele>
        <time>2010-01-23T13:02:08Z</time>
      </trkpt>
      <trkpt lat="45.04957" lon="4.94672">
        <ele>149.30400085449</ele>
        <time>2010-01-23T13:02:17Z</time>
      </trkpt>
      <trkpt lat="45.04907" lon="4.94635">
        <ele>149.04899597168</ele>
        <time>2010-01-23T13:02:26Z</time>
      </trkpt>
      <trkpt lat="45.04834" lon="4.9458">
        <ele>148.8690032959</ele>
        <time>2010-01-23T13:02:39Z</time>
      </trkpt>
      <trkpt lat="45.04812" lon="4.94563">
        <ele>148.44400024414</ele>
        <time>2010-01-23T13:02:43Z</time>
      </trkpt>
      <trkpt lat="45.048" lon="4.94554">
        <ele>148.71000671387</ele>
        <time>2010-01-23T13:02:45Z</time>
      </trkpt>
      <trkpt lat="45.04789" lon="4.94546">
        <ele>148.61399841309</ele>
        <time>2010-01-23T13:02:47Z</time>
      </trkpt>
      <trkpt lat="45.04784" lon="4.94542">
        <ele>148.56900024414</ele>
        <time>2010-01-23T13:02:48Z</time>
      </trkpt>
      <trkpt lat="45.04721" lon="4.94494">
        <ele>148.48599243164</ele>
        <time>2010-01-23T13:02:59Z</time>
      </trkpt>
      <trkpt lat="45.04695" lon="4.94475">
        <ele>148.25399780273</ele>
        <time>2010-01-23T13:03:07Z</time>
      </trkpt>
      <trkpt lat="45.04608" lon="4.94433">
        <ele>148.1549987793</ele>
        <time>2010-01-23T13:03:17Z</time>
      </trkpt>
      <trkpt lat="45.04536" lon="4.94393">
        <ele>147.77799987793</ele>
        <time>2010-01-23T13:03:28Z</time>
      </trkpt>
      <trkpt lat="45.04478" lon="4.94359">
        <ele>147.42100524902</ele>
        <time>2010-01-23T13:03:37Z</time>
      </trkpt>
      <trkpt lat="45.04428" lon="4.94325">
        <ele>148.02600097656</ele>
        <time>2010-01-23T13:03:45Z</time>
      </trkpt>
      <trkpt lat="45.04378" lon="4.94276">
        <ele>148.39799499512</ele>
        <time>2010-01-23T13:03:54Z</time>
      </trkpt>
      <trkpt lat="45.04317" lon="4.94217">
        <ele>147.83399963379</ele>
        <time>2010-01-23T13:04:05Z</time>
      </trkpt>
      <trkpt lat="45.04253" lon="4.94155">
        <ele>146.86199951172</ele>
        <time>2010-01-23T13:04:16Z</time>
      </trkpt>
      <trkpt lat="45.0421" lon="4.94114">
        <ele>146.63400268555</ele>
        <time>2010-01-23T13:04:24Z</time>
      </trkpt>
      <trkpt lat="45.04152" lon="4.94057">
        <ele>145.43099975586</ele>
        <time>2010-01-23T13:04:32Z</time>
      </trkpt>
      <trkpt lat="45.04101" lon="4.94005">
        <ele>145.21800231934</ele>
        <time>2010-01-23T13:04:40Z</time>
      </trkpt>
      <trkpt lat="45.04064" lon="4.93968">
        <ele>145.42100524902</ele>
        <time>2010-01-23T13:04:47Z</time>
      </trkpt>
      <trkpt lat="45.03993" lon="4.93894">
        <ele>145.38000488281</ele>
        <time>2010-01-23T13:04:58Z</time>
      </trkpt>
      <trkpt lat="45.0395" lon="4.93839">
        <ele>145.44200134277</ele>
        <time>2010-01-23T13:05:06Z</time>
      </trkpt>
      <trkpt lat="45.039" lon="4.93781">
        <ele>145.23399353027</ele>
        <time>2010-01-23T13:05:15Z</time>
      </trkpt>
      <trkpt lat="45.03858" lon="4.9374">
        <ele>145.02799987793</ele>
        <time>2010-01-23T13:05:22Z</time>
      </trkpt>
      <trkpt lat="45.03786" lon="4.93685">
        <ele>144.30400085449</ele>
        <time>2010-01-23T13:05:33Z</time>
      </trkpt>
      <trkpt lat="45.03726" lon="4.9363">
        <ele>144.61399841309</ele>
        <time>2010-01-23T13:05:43Z</time>
      </trkpt>
      <trkpt lat="45.03664" lon="4.93568">
        <ele>144.51699829102</ele>
        <time>2010-01-23T13:05:54Z</time>
      </trkpt>
      <trkpt lat="45.0359" lon="4.93492">
        <ele>144.14900207519</ele>
        <time>2010-01-23T13:06:07Z</time>
      </trkpt>
      <trkpt lat="45.03536" lon="4.93436">
        <ele>143.50100708008</ele>
        <time>2010-01-23T13:06:16Z</time>
      </trkpt>
      <trkpt lat="45.03481" lon="4.93365">
        <ele>143.24800109863</ele>
        <time>2010-01-23T13:06:26Z</time>
      </trkpt>
      <trkpt lat="45.03432" lon="4.93301">
        <ele>142.77900695801</ele>
        <time>2010-01-23T13:06:35Z</time>
      </trkpt>
      <trkpt lat="45.03379" lon="4.93232">
        <ele>142.86700439453</ele>
        <time>2010-01-23T13:06:45Z</time>
      </trkpt>
      <trkpt lat="45.03333" lon="4.93182">
        <ele>142.47399902344</ele>
        <time>2010-01-23T13:06:53Z</time>
      </trkpt>
      <trkpt lat="45.03288" lon="4.93149">
        <ele>142.55499267578</ele>
        <time>2010-01-23T13:07:00Z</time>
      </trkpt>
      <trkpt lat="45.0324" lon="4.93113">
        <ele>142.55599975586</ele>
        <time>2010-01-23T13:07:08Z</time>
      </trkpt>
      <trkpt lat="45.03236" lon="4.9311">
        <ele>142.375</ele>
        <time>2010-01-23T13:07:11Z</time>
      </trkpt>
      <trkpt lat="45.0321" lon="4.93076">
        <ele>142.21299743652</ele>
        <time>2010-01-23T13:07:15Z</time>
      </trkpt>
      <trkpt lat="45.0321" lon="4.93076">
        <ele>142.45700073242</ele>
        <time>2010-01-23T13:07:18Z</time>
      </trkpt>
      <trkpt lat="45.03182" lon="4.93048">
        <ele>142.57200622559</ele>
        <time>2010-01-23T13:07:21Z</time>
      </trkpt>
      <trkpt lat="45.03164" lon="4.93069">
        <ele>142.25700378418</ele>
        <time>2010-01-23T13:07:26Z</time>
      </trkpt>
      <trkpt lat="45.0316" lon="4.93071">
        <ele>142.22399902344</ele>
        <time>2010-01-23T13:07:27Z</time>
      </trkpt>
      <trkpt lat="45.03112" lon="4.93078">
        <ele>142.11399841309</ele>
        <time>2010-01-23T13:07:35Z</time>
      </trkpt>
      <trkpt lat="45.03065" lon="4.9308">
        <ele>141.88800048828</ele>
        <time>2010-01-23T13:07:42Z</time>
      </trkpt>
      <trkpt lat="45.03014" lon="4.93092">
        <ele>142.24600219727</ele>
        <time>2010-01-23T13:07:50Z</time>
      </trkpt>
      <trkpt lat="45.02959" lon="4.9311">
        <ele>141.92999267578</ele>
        <time>2010-01-23T13:07:59Z</time>
      </trkpt>
      <trkpt lat="45.02906" lon="4.9313">
        <ele>141.74299621582</ele>
        <time>2010-01-23T13:08:07Z</time>
      </trkpt>
      <trkpt lat="45.02858" lon="4.93161">
        <ele>141.36000061035</ele>
        <time>2010-01-23T13:08:15Z</time>
      </trkpt>
      <trkpt lat="45.02779" lon="4.93213">
        <ele>140.22399902344</ele>
        <time>2010-01-23T13:08:28Z</time>
      </trkpt>
      <trkpt lat="45.02729" lon="4.93248">
        <ele>139.6609954834</ele>
        <time>2010-01-23T13:08:36Z</time>
      </trkpt>
      <trkpt lat="45.02673" lon="4.93287">
        <ele>139.2140045166</ele>
        <time>2010-01-23T13:08:45Z</time>
      </trkpt>
      <trkpt lat="45.0262" lon="4.93322">
        <ele>139.12399291992</ele>
        <time>2010-01-23T13:08:54Z</time>
      </trkpt>
      <trkpt lat="45.02573" lon="4.93349">
        <ele>138.86999511719</ele>
        <time>2010-01-23T13:09:02Z</time>
      </trkpt>
      <trkpt lat="45.02517" lon="4.93362">
        <ele>139.39999389648</ele>
        <time>2010-01-23T13:09:11Z</time>
      </trkpt>
      <trkpt lat="45.02463" lon="4.93366">
        <ele>139.29899597168</ele>
        <time>2010-01-23T13:09:19Z</time>
      </trkpt>
      <trkpt lat="45.02402" lon="4.93364">
        <ele>139.25500488281</ele>
        <time>2010-01-23T13:09:28Z</time>
      </trkpt>
      <trkpt lat="45.02341" lon="4.9336">
        <ele>139.42500305176</ele>
        <time>2010-01-23T13:09:37Z</time>
      </trkpt>
      <trkpt lat="45.02279" lon="4.93356">
        <ele>139.61599731445</ele>
        <time>2010-01-23T13:09:46Z</time>
      </trkpt>
      <trkpt lat="45.02245" lon="4.93355">
        <ele>139.85200500488</ele>
        <time>2010-01-23T13:09:52Z</time>
      </trkpt>
      <trkpt lat="45.02192" lon="4.93377">
        <ele>140.1549987793</ele>
        <time>2010-01-23T13:09:59Z</time>
      </trkpt>
      <trkpt lat="45.02139" lon="4.9342">
        <ele>139.91999816894</ele>
        <time>2010-01-23T13:10:08Z</time>
      </trkpt>
      <trkpt lat="45.02087" lon="4.93464">
        <ele>139.68699645996</ele>
        <time>2010-01-23T13:10:17Z</time>
      </trkpt>
      <trkpt lat="45.02038" lon="4.93504">
        <ele>138.50399780273</ele>
        <time>2010-01-23T13:10:25Z</time>
      </trkpt>
      <trkpt lat="45.01982" lon="4.93553">
        <ele>137.46899414062</ele>
        <time>2010-01-23T13:10:34Z</time>
      </trkpt>
      <trkpt lat="45.01939" lon="4.936">
        <ele>135.49600219727</ele>
        <time>2010-01-23T13:10:41Z</time>
      </trkpt>
      <trkpt lat="45.01887" lon="4.93655">
        <ele>135.42999267578</ele>
        <time>2010-01-23T13:10:49Z</time>
      </trkpt>
      <trkpt lat="45.01839" lon="4.93693">
        <ele>134.99899291992</ele>
        <time>2010-01-23T13:10:57Z</time>
      </trkpt>
      <trkpt lat="45.01786" lon="4.9373">
        <ele>132.88999938965</ele>
        <time>2010-01-23T13:11:05Z</time>
      </trkpt>
      <trkpt lat="45.01735" lon="4.93777">
        <ele>133.16499328613</ele>
        <time>2010-01-23T13:11:13Z</time>
      </trkpt>
      <trkpt lat="45.01701" lon="4.93807">
        <ele>133.00500488281</ele>
        <time>2010-01-23T13:11:19Z</time>
      </trkpt>
      <trkpt lat="45.01657" lon="4.93848">
        <ele>132.8450012207</ele>
        <time>2010-01-23T13:11:28Z</time>
      </trkpt>
      <trkpt lat="45.01614" lon="4.93887">
        <ele>133.19500732422</ele>
        <time>2010-01-23T13:11:35Z</time>
      </trkpt>
      <trkpt lat="45.01609" lon="4.93891">
        <ele>133.64999389648</ele>
        <time>2010-01-23T13:11:38Z</time>
      </trkpt>
      <trkpt lat="45.01575" lon="4.93917">
        <ele>134.81300354004</ele>
        <time>2010-01-23T13:11:43Z</time>
      </trkpt>
      <trkpt lat="45.01558" lon="4.9393">
        <ele>135.77299499512</ele>
        <time>2010-01-23T13:11:48Z</time>
      </trkpt>
      <trkpt lat="45.01546" lon="4.9391">
        <ele>135.80299377441</ele>
        <time>2010-01-23T13:11:52Z</time>
      </trkpt>
      <trkpt lat="45.01523" lon="4.9386">
        <ele>135.32200622559</ele>
        <time>2010-01-23T13:12:00Z</time>
      </trkpt>
      <trkpt lat="45.01517" lon="4.93844">
        <ele>135.14300537109</ele>
        <time>2010-01-23T13:12:02Z</time>
      </trkpt>
      <trkpt lat="45.01509" lon="4.93831">
        <ele>135.00399780273</ele>
        <time>2010-01-23T13:12:04Z</time>
      </trkpt>
      <trkpt lat="45.01495" lon="4.93782">
        <ele>135.21800231934</ele>
        <time>2010-01-23T13:12:10Z</time>
      </trkpt>
      <trkpt lat="45.01492" lon="4.93768">
        <ele>135.29899597168</ele>
        <time>2010-01-23T13:12:12Z</time>
      </trkpt>
      <trkpt lat="45.0148" lon="4.93745">
        <ele>135.79400634766</ele>
        <time>2010-01-23T13:12:18Z</time>
      </trkpt>
      <trkpt lat="45.0148" lon="4.93745">
        <ele>135.88499450684</ele>
        <time>2010-01-23T13:12:20Z</time>
      </trkpt>
      <trkpt lat="45.01474" lon="4.9369">
        <ele>135.74600219727</ele>
        <time>2010-01-23T13:12:24Z</time>
      </trkpt>
      <trkpt lat="45.01472" lon="4.93661">
        <ele>136.2799987793</ele>
        <time>2010-01-23T13:12:28Z</time>
      </trkpt>
      <trkpt lat="45.01465" lon="4.93601">
        <ele>136.68800354004</ele>
        <time>2010-01-23T13:12:36Z</time>
      </trkpt>
      <trkpt lat="45.01451" lon="4.93542">
        <ele>137.09100341797</ele>
        <time>2010-01-23T13:12:44Z</time>
      </trkpt>
      <trkpt lat="45.01435" lon="4.93496">
        <ele>137.48300170898</ele>
        <time>2010-01-23T13:12:51Z</time>
      </trkpt>
      <trkpt lat="45.01427" lon="4.93478">
        <ele>137.8450012207</ele>
        <time>2010-01-23T13:12:54Z</time>
      </trkpt>
      <trkpt lat="45.01409" lon="4.93439">
        <ele>138.41999816894</ele>
        <time>2010-01-23T13:13:01Z</time>
      </trkpt>
      <trkpt lat="45.01387" lon="4.93389">
        <ele>140.08799743652</ele>
        <time>2010-01-23T13:13:10Z</time>
      </trkpt>
      <trkpt lat="45.01373" lon="4.93359">
        <ele>141.59199523926</ele>
        <time>2010-01-23T13:13:18Z</time>
      </trkpt>
      <trkpt lat="45.01345" lon="4.93298">
        <ele>144.21099853516</ele>
        <time>2010-01-23T13:13:26Z</time>
      </trkpt>
      <trkpt lat="45.01334" lon="4.93276">
        <ele>144.96800231934</ele>
        <time>2010-01-23T13:13:30Z</time>
      </trkpt>
      <trkpt lat="45.01303" lon="4.93244">
        <ele>147.27900695801</ele>
        <time>2010-01-23T13:13:38Z</time>
      </trkpt>
      <trkpt lat="45.01262" lon="4.93223">
        <ele>148.94599914551</ele>
        <time>2010-01-23T13:13:47Z</time>
      </trkpt>
      <trkpt lat="45.0122" lon="4.93201">
        <ele>149.48399353027</ele>
        <time>2010-01-23T13:13:56Z</time>
      </trkpt>
      <trkpt lat="45.01183" lon="4.93172">
        <ele>150.10499572754</ele>
        <time>2010-01-23T13:14:04Z</time>
      </trkpt>
      <trkpt lat="45.01142" lon="4.93135">
        <ele>150.06199645996</ele>
        <time>2010-01-23T13:14:13Z</time>
      </trkpt>
      <trkpt lat="45.01089" lon="4.93086">
        <ele>150.20799255371</ele>
        <time>2010-01-23T13:14:24Z</time>
      </trkpt>
      <trkpt lat="45.01057" lon="4.9305">
        <ele>149.70399475098</ele>
        <time>2010-01-23T13:14:31Z</time>
      </trkpt>
      <trkpt lat="45.01028" lon="4.93018">
        <ele>149.72700500488</ele>
        <time>2010-01-23T13:14:38Z</time>
      </trkpt>
      <trkpt lat="45.01014" lon="4.93004">
        <ele>149.42799377441</ele>
        <time>2010-01-23T13:14:41Z</time>
      </trkpt>
      <trkpt lat="45.00959" lon="4.92945">
        <ele>149.15299987793</ele>
        <time>2010-01-23T13:14:53Z</time>
      </trkpt>
      <trkpt lat="45.00915" lon="4.92901">
        <ele>149.35099792481</ele>
        <time>2010-01-23T13:15:02Z</time>
      </trkpt>
      <trkpt lat="45.00866" lon="4.92853">
        <ele>148.81199645996</ele>
        <time>2010-01-23T13:15:12Z</time>
      </trkpt>
      <trkpt lat="45.00806" lon="4.92798">
        <ele>148.43499755859</ele>
        <time>2010-01-23T13:15:24Z</time>
      </trkpt>
      <trkpt lat="45.00777" lon="4.9277">
        <ele>148.44700622559</ele>
        <time>2010-01-23T13:15:30Z</time>
      </trkpt>
      <trkpt lat="45.00764" lon="4.92758">
        <ele>148.47099304199</ele>
        <time>2010-01-23T13:15:34Z</time>
      </trkpt>
      <trkpt lat="45.00748" lon="4.92718">
        <ele>148.94200134277</ele>
        <time>2010-01-23T13:15:38Z</time>
      </trkpt>
      <trkpt lat="45.00729" lon="4.92732">
        <ele>149.34100341797</ele>
        <time>2010-01-23T13:15:41Z</time>
      </trkpt>
      <trkpt lat="45.00727" lon="4.92755">
        <ele>149.42500305176</ele>
        <time>2010-01-23T13:15:44Z</time>
      </trkpt>
      <trkpt lat="45.00732" lon="4.92768">
        <ele>149.37899780273</ele>
        <time>2010-01-23T13:15:46Z</time>
      </trkpt>
      <trkpt lat="45.00712" lon="4.92841">
        <ele>150.40299987793</ele>
        <time>2010-01-23T13:15:55Z</time>
      </trkpt>
      <trkpt lat="45.00707" lon="4.92854">
        <ele>151.63900756836</ele>
        <time>2010-01-23T13:15:57Z</time>
      </trkpt>
      <trkpt lat="45.00694" lon="4.92924">
        <ele>152.30700683594</ele>
        <time>2010-01-23T13:16:07Z</time>
      </trkpt>
      <trkpt lat="45.00684" lon="4.92988">
        <ele>152.73399353027</ele>
        <time>2010-01-23T13:16:16Z</time>
      </trkpt>
      <trkpt lat="45.00678" lon="4.93053">
        <ele>154.35600280762</ele>
        <time>2010-01-23T13:16:25Z</time>
      </trkpt>
      <trkpt lat="45.00672" lon="4.93114">
        <ele>156.40699768066</ele>
        <time>2010-01-23T13:16:34Z</time>
      </trkpt>
      <trkpt lat="45.00666" lon="4.93166">
        <ele>158.63299560547</ele>
        <time>2010-01-23T13:16:42Z</time>
      </trkpt>
      <trkpt lat="45.0065" lon="4.93213">
        <ele>160.55000305176</ele>
        <time>2010-01-23T13:16:50Z</time>
      </trkpt>
      <trkpt lat="45.00631" lon="4.93248">
        <ele>163.61500549316</ele>
        <time>2010-01-23T13:16:57Z</time>
      </trkpt>
      <trkpt lat="45.00627" lon="4.93252">
        <ele>163.83500671387</ele>
        <time>2010-01-23T13:16:58Z</time>
      </trkpt>
      <trkpt lat="45.00596" lon="4.93279">
        <ele>167.06700134277</ele>
        <time>2010-01-23T13:17:06Z</time>
      </trkpt>
      <trkpt lat="45.00551" lon="4.933">
        <ele>169.60899353027</ele>
        <time>2010-01-23T13:17:16Z</time>
      </trkpt>
      <trkpt lat="45.00518" lon="4.93313">
        <ele>171.96499633789</ele>
        <time>2010-01-23T13:17:23Z</time>
      </trkpt>
      <trkpt lat="45.00477" lon="4.93329">
        <ele>174.57699584961</ele>
        <time>2010-01-23T13:17:32Z</time>
      </trkpt>
      <trkpt lat="45.00467" lon="4.93327">
        <ele>175.15600585938</ele>
        <time>2010-01-23T13:17:34Z</time>
      </trkpt>
      <trkpt lat="45.00439" lon="4.93321">
        <ele>176.99299621582</ele>
        <time>2010-01-23T13:17:40Z</time>
      </trkpt>
      <trkpt lat="45.00406" lon="4.93318">
        <ele>179.48899841309</ele>
        <time>2010-01-23T13:17:48Z</time>
      </trkpt>
      <trkpt lat="45.00393" lon="4.9332">
        <ele>180.30700683594</ele>
        <time>2010-01-23T13:17:51Z</time>
      </trkpt>
      <trkpt lat="45.00378" lon="4.93328">
        <ele>181.85299682617</ele>
        <time>2010-01-23T13:17:55Z</time>
      </trkpt>
      <trkpt lat="45.00359" lon="4.93351">
        <ele>182.96099853516</ele>
        <time>2010-01-23T13:18:01Z</time>
      </trkpt>
      <trkpt lat="45.0034" lon="4.9338">
        <ele>184.45300292969</ele>
        <time>2010-01-23T13:18:08Z</time>
      </trkpt>
      <trkpt lat="45.00332" lon="4.93387">
        <ele>184.91499328613</ele>
        <time>2010-01-23T13:18:10Z</time>
      </trkpt>
      <trkpt lat="45.00326" lon="4.93393">
        <ele>186.27200317383</ele>
        <time>2010-01-23T13:18:13Z</time>
      </trkpt>
      <trkpt lat="45.00285" lon="4.93403">
        <ele>188.27799987793</ele>
        <time>2010-01-23T13:18:20Z</time>
      </trkpt>
      <trkpt lat="45.0026" lon="4.93408">
        <ele>189.85400390625</ele>
        <time>2010-01-23T13:18:26Z</time>
      </trkpt>
      <trkpt lat="45.00251" lon="4.9341">
        <ele>190.50300598144</ele>
        <time>2010-01-23T13:18:28Z</time>
      </trkpt>
      <trkpt lat="45.00233" lon="4.93416">
        <ele>191.99499511719</ele>
        <time>2010-01-23T13:18:33Z</time>
      </trkpt>
      <trkpt lat="45.00229" lon="4.93417">
        <ele>191.92900085449</ele>
        <time>2010-01-23T13:18:34Z</time>
      </trkpt>
      <trkpt lat="45.00224" lon="4.93418">
        <ele>192.51300048828</ele>
        <time>2010-01-23T13:18:35Z</time>
      </trkpt>
      <trkpt lat="45.00188" lon="4.93428">
        <ele>194.73699951172</ele>
        <time>2010-01-23T13:18:43Z</time>
      </trkpt>
      <trkpt lat="45.00153" lon="4.93438">
        <ele>196.14900207519</ele>
        <time>2010-01-23T13:18:51Z</time>
      </trkpt>
      <trkpt lat="45.00148" lon="4.93439">
        <ele>196.72999572754</ele>
        <time>2010-01-23T13:18:52Z</time>
      </trkpt>
      <trkpt lat="45.00144" lon="4.9344">
        <ele>196.14700317383</ele>
        <time>2010-01-23T13:18:53Z</time>
      </trkpt>
      <trkpt lat="45.00139" lon="4.93442">
        <ele>196.3390045166</ele>
        <time>2010-01-23T13:18:54Z</time>
      </trkpt>
      <trkpt lat="45.00135" lon="4.93445">
        <ele>196.14300537109</ele>
        <time>2010-01-23T13:18:55Z</time>
      </trkpt>
      <trkpt lat="45.00123" lon="4.93453">
        <ele>196.60299682617</ele>
        <time>2010-01-23T13:18:58Z</time>
      </trkpt>
      <trkpt lat="45.00106" lon="4.93464">
        <ele>195.90299987793</ele>
        <time>2010-01-23T13:19:02Z</time>
      </trkpt>
      <trkpt lat="45.00102" lon="4.93467">
        <ele>196.32499694824</ele>
        <time>2010-01-23T13:19:03Z</time>
      </trkpt>
      <trkpt lat="45.00098" lon="4.93469">
        <ele>195.86399841309</ele>
        <time>2010-01-23T13:19:04Z</time>
      </trkpt>
      <trkpt lat="45.00086" lon="4.93478">
        <ele>196.03100585938</ele>
        <time>2010-01-23T13:19:07Z</time>
      </trkpt>
      <trkpt lat="45.0005" lon="4.93502">
        <ele>196.48500061035</ele>
        <time>2010-01-23T13:19:16Z</time>
      </trkpt>
      <trkpt lat="45.00008" lon="4.9353">
        <ele>196.15600585938</ele>
        <time>2010-01-23T13:19:27Z</time>
      </trkpt>
      <trkpt lat="44.99973" lon="4.93554">
        <ele>195.30799865723</ele>
        <time>2010-01-23T13:19:36Z</time>
      </trkpt>
      <trkpt lat="44.99931" lon="4.93583">
        <ele>195.68499755859</ele>
        <time>2010-01-23T13:19:47Z</time>
      </trkpt>
      <trkpt lat="44.99889" lon="4.93612">
        <ele>196.06399536133</ele>
        <time>2010-01-23T13:19:58Z</time>
      </trkpt>
      <trkpt lat="44.99839" lon="4.93646">
        <ele>195.79200744629</ele>
        <time>2010-01-23T13:20:11Z</time>
      </trkpt>
      <trkpt lat="44.99798" lon="4.93675">
        <ele>195.57499694824</ele>
        <time>2010-01-23T13:20:22Z</time>
      </trkpt>
      <trkpt lat="44.9975" lon="4.93706">
        <ele>195.95300292969</ele>
        <time>2010-01-23T13:20:34Z</time>
      </trkpt>
      <trkpt lat="44.99712" lon="4.93728">
        <ele>196.4700012207</ele>
        <time>2010-01-23T13:20:43Z</time>
      </trkpt>
      <trkpt lat="44.99664" lon="4.93756">
        <ele>196.56500244141</ele>
        <time>2010-01-23T13:20:55Z</time>
      </trkpt>
      <trkpt lat="44.99633" lon="4.93774">
        <ele>196.49800109863</ele>
        <time>2010-01-23T13:21:03Z</time>
      </trkpt>
      <trkpt lat="44.99593" lon="4.93797">
        <ele>196.19999694824</ele>
        <time>2010-01-23T13:21:13Z</time>
      </trkpt>
      <trkpt lat="44.99539" lon="4.93827">
        <ele>195.67500305176</ele>
        <time>2010-01-23T13:21:25Z</time>
      </trkpt>
      <trkpt lat="44.9949" lon="4.93856">
        <ele>196.20100402832</ele>
        <time>2010-01-23T13:21:36Z</time>
      </trkpt>
      <trkpt lat="44.99449" lon="4.93879">
        <ele>197.30799865723</ele>
        <time>2010-01-23T13:21:45Z</time>
      </trkpt>
      <trkpt lat="44.9941" lon="4.93904">
        <ele>197.23399353027</ele>
        <time>2010-01-23T13:21:54Z</time>
      </trkpt>
      <trkpt lat="44.99385" lon="4.93936">
        <ele>197.24200439453</ele>
        <time>2010-01-23T13:22:01Z</time>
      </trkpt>
      <trkpt lat="44.99355" lon="4.93985">
        <ele>196.80499267578</ele>
        <time>2010-01-23T13:22:10Z</time>
      </trkpt>
      <trkpt lat="44.99323" lon="4.94036">
        <ele>197.36700439453</ele>
        <time>2010-01-23T13:22:19Z</time>
      </trkpt>
      <trkpt lat="44.9929" lon="4.94088">
        <ele>197.58599853516</ele>
        <time>2010-01-23T13:22:28Z</time>
      </trkpt>
      <trkpt lat="44.99257" lon="4.94138">
        <ele>196.70899963379</ele>
        <time>2010-01-23T13:22:37Z</time>
      </trkpt>
      <trkpt lat="44.99232" lon="4.94174">
        <ele>196.83099365234</ele>
        <time>2010-01-23T13:22:44Z</time>
      </trkpt>
      <trkpt lat="44.99196" lon="4.94201">
        <ele>196.98100280762</ele>
        <time>2010-01-23T13:22:51Z</time>
      </trkpt>
      <trkpt lat="44.99144" lon="4.9423">
        <ele>196.64300537109</ele>
        <time>2010-01-23T13:23:01Z</time>
      </trkpt>
      <trkpt lat="44.99134" lon="4.94239">
        <ele>196.63800048828</ele>
        <time>2010-01-23T13:23:03Z</time>
      </trkpt>
      <trkpt lat="44.99118" lon="4.9427">
        <ele>196.47300720215</ele>
        <time>2010-01-23T13:23:08Z</time>
      </trkpt>
      <trkpt lat="44.99101" lon="4.9433">
        <ele>196.46000671387</ele>
        <time>2010-01-23T13:23:16Z</time>
      </trkpt>
      <trkpt lat="44.9908" lon="4.94405">
        <ele>196.69299316406</ele>
        <time>2010-01-23T13:23:26Z</time>
      </trkpt>
      <trkpt lat="44.99061" lon="4.94464">
        <ele>197.64799499512</ele>
        <time>2010-01-23T13:23:34Z</time>
      </trkpt>
      <trkpt lat="44.99038" lon="4.94503">
        <ele>197.51499938965</ele>
        <time>2010-01-23T13:23:40Z</time>
      </trkpt>
      <trkpt lat="44.98999" lon="4.94548">
        <ele>195.77499389648</ele>
        <time>2010-01-23T13:23:48Z</time>
      </trkpt>
      <trkpt lat="44.98945" lon="4.94599">
        <ele>194.44999694824</ele>
        <time>2010-01-23T13:23:58Z</time>
      </trkpt>
      <trkpt lat="44.98895" lon="4.94648">
        <ele>193.38600158691</ele>
        <time>2010-01-23T13:24:07Z</time>
      </trkpt>
      <trkpt lat="44.98848" lon="4.94692">
        <ele>192.78500366211</ele>
        <time>2010-01-23T13:24:15Z</time>
      </trkpt>
      <trkpt lat="44.98814" lon="4.94721">
        <ele>191.52799987793</ele>
        <time>2010-01-23T13:24:21Z</time>
      </trkpt>
      <trkpt lat="44.9879" lon="4.94732">
        <ele>192.03500366211</ele>
        <time>2010-01-23T13:24:27Z</time>
      </trkpt>
      <trkpt lat="44.98726" lon="4.9471">
        <ele>192.26100158691</ele>
        <time>2010-01-23T13:24:36Z</time>
      </trkpt>
      <trkpt lat="44.98696" lon="4.94696">
        <ele>191.70300292969</ele>
        <time>2010-01-23T13:24:41Z</time>
      </trkpt>
      <trkpt lat="44.98671" lon="4.947">
        <ele>191.91400146484</ele>
        <time>2010-01-23T13:24:45Z</time>
      </trkpt>
      <trkpt lat="44.98652" lon="4.94721">
        <ele>191.71099853516</ele>
        <time>2010-01-23T13:24:49Z</time>
      </trkpt>
      <trkpt lat="44.98629" lon="4.94773">
        <ele>192.70399475098</ele>
        <time>2010-01-23T13:24:56Z</time>
      </trkpt>
      <trkpt lat="44.98615" lon="4.94809">
        <ele>194.52099609375</ele>
        <time>2010-01-23T13:25:01Z</time>
      </trkpt>
      <trkpt lat="44.9859" lon="4.94868">
        <ele>195.27900695801</ele>
        <time>2010-01-23T13:25:10Z</time>
      </trkpt>
      <trkpt lat="44.98568" lon="4.94921">
        <ele>196.20199584961</ele>
        <time>2010-01-23T13:25:18Z</time>
      </trkpt>
      <trkpt lat="44.98544" lon="4.94977">
        <ele>196.33200073242</ele>
        <time>2010-01-23T13:25:26Z</time>
      </trkpt>
      <trkpt lat="44.98518" lon="4.95011">
        <ele>194.79800415039</ele>
        <time>2010-01-23T13:25:32Z</time>
      </trkpt>
      <trkpt lat="44.98476" lon="4.95053">
        <ele>194.56700134277</ele>
        <time>2010-01-23T13:25:41Z</time>
      </trkpt>
      <trkpt lat="44.98438" lon="4.95089">
        <ele>194.62199401856</ele>
        <time>2010-01-23T13:25:49Z</time>
      </trkpt>
      <trkpt lat="44.98413" lon="4.95132">
        <ele>193.79299926758</ele>
        <time>2010-01-23T13:25:56Z</time>
      </trkpt>
      <trkpt lat="44.98379" lon="4.95184">
        <ele>193.31799316406</ele>
        <time>2010-01-23T13:26:04Z</time>
      </trkpt>
      <trkpt lat="44.98352" lon="4.95206">
        <ele>193.02799987793</ele>
        <time>2010-01-23T13:26:09Z</time>
      </trkpt>
      <trkpt lat="44.98311" lon="4.95226">
        <ele>193.65199279785</ele>
        <time>2010-01-23T13:26:16Z</time>
      </trkpt>
      <trkpt lat="44.98253" lon="4.9525">
        <ele>193.77200317383</ele>
        <time>2010-01-23T13:26:26Z</time>
      </trkpt>
      <trkpt lat="44.98199" lon="4.95271">
        <ele>194.02099609375</ele>
        <time>2010-01-23T13:26:35Z</time>
      </trkpt>
      <trkpt lat="44.98143" lon="4.95293">
        <ele>194.0059967041</ele>
        <time>2010-01-23T13:26:44Z</time>
      </trkpt>
      <trkpt lat="44.98116" lon="4.95319">
        <ele>195.39500427246</ele>
        <time>2010-01-23T13:26:49Z</time>
      </trkpt>
      <trkpt lat="44.98096" lon="4.9534">
        <ele>193.72099304199</ele>
        <time>2010-01-23T13:26:53Z</time>
      </trkpt>
      <trkpt lat="44.98062" lon="4.95337">
        <ele>194.23899841309</ele>
        <time>2010-01-23T13:26:58Z</time>
      </trkpt>
      <trkpt lat="44.98007" lon="4.95366">
        <ele>193.24200439453</ele>
        <time>2010-01-23T13:27:08Z</time>
      </trkpt>
      <trkpt lat="44.97959" lon="4.95391">
        <ele>193.53399658203</ele>
        <time>2010-01-23T13:27:17Z</time>
      </trkpt>
      <trkpt lat="44.97913" lon="4.95416">
        <ele>191.89799499512</ele>
        <time>2010-01-23T13:27:25Z</time>
      </trkpt>
      <trkpt lat="44.97871" lon="4.95446">
        <ele>190.97399902344</ele>
        <time>2010-01-23T13:27:32Z</time>
      </trkpt>
      <trkpt lat="44.97852" lon="4.9546">
        <ele>189.51300048828</ele>
        <time>2010-01-23T13:27:35Z</time>
      </trkpt>
      <trkpt lat="44.97833" lon="4.95473">
        <ele>189.56300354004</ele>
        <time>2010-01-23T13:27:38Z</time>
      </trkpt>
      <trkpt lat="44.97806" lon="4.95491">
        <ele>187.2140045166</ele>
        <time>2010-01-23T13:27:42Z</time>
      </trkpt>
      <trkpt lat="44.978" lon="4.95487">
        <ele>187.00500488281</ele>
        <time>2010-01-23T13:27:43Z</time>
      </trkpt>
      <trkpt lat="44.97754" lon="4.95457">
        <ele>185.64999389648</ele>
        <time>2010-01-23T13:27:50Z</time>
      </trkpt>
      <trkpt lat="44.977" lon="4.95421">
        <ele>183.88900756836</ele>
        <time>2010-01-23T13:27:58Z</time>
      </trkpt>
      <trkpt lat="44.97665" lon="4.95398">
        <ele>181.7380065918</ele>
        <time>2010-01-23T13:28:05Z</time>
      </trkpt>
      <trkpt lat="44.97617" lon="4.9537">
        <ele>180.42799377441</ele>
        <time>2010-01-23T13:28:10Z</time>
      </trkpt>
      <trkpt lat="44.97569" lon="4.95344">
        <ele>178.35200500488</ele>
        <time>2010-01-23T13:28:17Z</time>
      </trkpt>
      <trkpt lat="44.97524" lon="4.95328">
        <ele>177.25199890137</ele>
        <time>2010-01-23T13:28:23Z</time>
      </trkpt>
      <trkpt lat="44.9747" lon="4.95308">
        <ele>174.69599914551</ele>
        <time>2010-01-23T13:28:30Z</time>
      </trkpt>
      <trkpt lat="44.97464" lon="4.95299">
        <ele>174.72399902344</ele>
        <time>2010-01-23T13:28:34Z</time>
      </trkpt>
      <trkpt lat="44.97435" lon="4.95277">
        <ele>175.02200317383</ele>
        <time>2010-01-23T13:28:36Z</time>
      </trkpt>
      <trkpt lat="44.9742" lon="4.95265">
        <ele>175.21499633789</ele>
        <time>2010-01-23T13:28:39Z</time>
      </trkpt>
      <trkpt lat="44.97383" lon="4.95237">
        <ele>174.09599304199</ele>
        <time>2010-01-23T13:28:46Z</time>
      </trkpt>
      <trkpt lat="44.97341" lon="4.95197">
        <ele>172.28199768066</ele>
        <time>2010-01-23T13:28:54Z</time>
      </trkpt>
      <trkpt lat="44.97292" lon="4.95148">
        <ele>170.74600219727</ele>
        <time>2010-01-23T13:29:03Z</time>
      </trkpt>
      <trkpt lat="44.97247" lon="4.951">
        <ele>167.22200012207</ele>
        <time>2010-01-23T13:29:11Z</time>
      </trkpt>
      <trkpt lat="44.97242" lon="4.95093">
        <ele>166.47799682617</ele>
        <time>2010-01-23T13:29:12Z</time>
      </trkpt>
      <trkpt lat="44.97213" lon="4.95081">
        <ele>165.07800292969</ele>
        <time>2010-01-23T13:29:16Z</time>
      </trkpt>
      <trkpt lat="44.97197" lon="4.95098">
        <ele>163.93899536133</ele>
        <time>2010-01-23T13:29:19Z</time>
      </trkpt>
      <trkpt lat="44.9719" lon="4.95121">
        <ele>162.05099487305</ele>
        <time>2010-01-23T13:29:21Z</time>
      </trkpt>
      <trkpt lat="44.97178" lon="4.95157">
        <ele>160.52600097656</ele>
        <time>2010-01-23T13:29:24Z</time>
      </trkpt>
      <trkpt lat="44.97158" lon="4.9521">
        <ele>156.77900695801</ele>
        <time>2010-01-23T13:29:28Z</time>
      </trkpt>
      <trkpt lat="44.97142" lon="4.95281">
        <ele>156.79400634766</ele>
        <time>2010-01-23T13:29:33Z</time>
      </trkpt>
      <trkpt lat="44.97103" lon="4.95333">
        <ele>159.53500366211</ele>
        <time>2010-01-23T13:29:36Z</time>
      </trkpt>
      <trkpt lat="44.97103" lon="4.95333">
        <ele>160.73399353027</ele>
        <time>2010-01-23T13:29:40Z</time>
      </trkpt>
      <trkpt lat="44.971" lon="4.95338">
        <ele>160.93099975586</ele>
        <time>2010-01-23T13:29:42Z</time>
      </trkpt>
      <trkpt lat="44.97081" lon="4.95367">
        <ele>160.21499633789</ele>
        <time>2010-01-23T13:29:48Z</time>
      </trkpt>
      <trkpt lat="44.97062" lon="4.95396">
        <ele>160.02499389648</ele>
        <time>2010-01-23T13:29:54Z</time>
      </trkpt>
      <trkpt lat="44.9705" lon="4.95411">
        <ele>159.57299804688</ele>
        <time>2010-01-23T13:30:00Z</time>
      </trkpt>
      <trkpt lat="44.97048" lon="4.95414">
        <ele>159.41299438477</ele>
        <time>2010-01-23T13:30:04Z</time>
      </trkpt>
      <trkpt lat="44.97047" lon="4.95416">
        <ele>159.75</ele>
        <time>2010-01-23T13:30:32Z</time>
      </trkpt>
      <trkpt lat="44.97039" lon="4.95427">
        <ele>159.57200622559</ele>
        <time>2010-01-23T13:30:37Z</time>
      </trkpt>
      <trkpt lat="44.97037" lon="4.95435">
        <ele>159.67999267578</ele>
        <time>2010-01-23T13:30:41Z</time>
      </trkpt>
      <trkpt lat="44.97046" lon="4.9545">
        <ele>159.71800231934</ele>
        <time>2010-01-23T13:30:44Z</time>
      </trkpt>
      <trkpt lat="44.97066" lon="4.95471">
        <ele>159.74899291992</ele>
        <time>2010-01-23T13:30:50Z</time>
      </trkpt>
      <trkpt lat="44.9707" lon="4.95473">
        <ele>159.68899536133</ele>
        <time>2010-01-23T13:30:51Z</time>
      </trkpt>
      <trkpt lat="44.97079" lon="4.95489">
        <ele>159.69299316406</ele>
        <time>2010-01-23T13:30:53Z</time>
      </trkpt>
      <trkpt lat="44.97104" lon="4.9554">
        <ele>159.05900573731</ele>
        <time>2010-01-23T13:31:01Z</time>
      </trkpt>
      <trkpt lat="44.97132" lon="4.95592">
        <ele>158.91000366211</ele>
        <time>2010-01-23T13:31:09Z</time>
      </trkpt>
      <trkpt lat="44.97159" lon="4.9564">
        <ele>159.02299499512</ele>
        <time>2010-01-23T13:31:16Z</time>
      </trkpt>
      <trkpt lat="44.97195" lon="4.9569">
        <ele>159.69400024414</ele>
        <time>2010-01-23T13:31:25Z</time>
      </trkpt>
      <trkpt lat="44.97202" lon="4.957">
        <ele>159.75300598144</ele>
        <time>2010-01-23T13:31:27Z</time>
      </trkpt>
      <trkpt lat="44.97198" lon="4.95721">
        <ele>159.60699462891</ele>
        <time>2010-01-23T13:31:31Z</time>
      </trkpt>
      <trkpt lat="44.9717" lon="4.95766">
        <ele>159.79499816894</ele>
        <time>2010-01-23T13:31:39Z</time>
      </trkpt>
      <trkpt lat="44.97166" lon="4.95771">
        <ele>159.74299621582</ele>
        <time>2010-01-23T13:31:40Z</time>
      </trkpt>
      <trkpt lat="44.97158" lon="4.95782">
        <ele>159.65899658203</ele>
        <time>2010-01-23T13:31:42Z</time>
      </trkpt>
      <trkpt lat="44.97125" lon="4.9583">
        <ele>159.03900146484</ele>
        <time>2010-01-23T13:31:50Z</time>
      </trkpt>
      <trkpt lat="44.97087" lon="4.95881">
        <ele>157.93099975586</ele>
        <time>2010-01-23T13:31:58Z</time>
      </trkpt>
      <trkpt lat="44.97048" lon="4.95931">
        <ele>157.85200500488</ele>
        <time>2010-01-23T13:32:06Z</time>
      </trkpt>
      <trkpt lat="44.97024" lon="4.95963">
        <ele>157.50100708008</ele>
        <time>2010-01-23T13:32:11Z</time>
      </trkpt>
      <trkpt lat="44.97005" lon="4.95989">
        <ele>157.05000305176</ele>
        <time>2010-01-23T13:32:15Z</time>
      </trkpt>
      <trkpt lat="44.96976" lon="4.96047">
        <ele>158.31399536133</ele>
        <time>2010-01-23T13:32:23Z</time>
      </trkpt>
      <trkpt lat="44.96951" lon="4.96096">
        <ele>159.4049987793</ele>
        <time>2010-01-23T13:32:31Z</time>
      </trkpt>
      <trkpt lat="44.96934" lon="4.96127">
        <ele>160.72900390625</ele>
        <time>2010-01-23T13:32:36Z</time>
      </trkpt>
      <trkpt lat="44.96923" lon="4.96145">
        <ele>160.57499694824</ele>
        <time>2010-01-23T13:32:39Z</time>
      </trkpt>
      <trkpt lat="44.969" lon="4.9619">
        <ele>161.83099365234</ele>
        <time>2010-01-23T13:32:46Z</time>
      </trkpt>
      <trkpt lat="44.96886" lon="4.9622">
        <ele>162.9109954834</ele>
        <time>2010-01-23T13:32:51Z</time>
      </trkpt>
      <trkpt lat="44.96876" lon="4.96243">
        <ele>163.28799438477</ele>
        <time>2010-01-23T13:32:57Z</time>
      </trkpt>
      <trkpt lat="44.96841" lon="4.9631">
        <ele>161.34599304199</ele>
        <time>2010-01-23T13:33:05Z</time>
      </trkpt>
      <trkpt lat="44.96813" lon="4.96359">
        <ele>161.38499450684</ele>
        <time>2010-01-23T13:33:12Z</time>
      </trkpt>
      <trkpt lat="44.96776" lon="4.96419">
        <ele>161.23599243164</ele>
        <time>2010-01-23T13:33:21Z</time>
      </trkpt>
      <trkpt lat="44.96738" lon="4.96477">
        <ele>160.93800354004</ele>
        <time>2010-01-23T13:33:30Z</time>
      </trkpt>
      <trkpt lat="44.96704" lon="4.96528">
        <ele>161.27299499512</ele>
        <time>2010-01-23T13:33:38Z</time>
      </trkpt>
      <trkpt lat="44.96664" lon="4.96586">
        <ele>161.32000732422</ele>
        <time>2010-01-23T13:33:47Z</time>
      </trkpt>
      <trkpt lat="44.96623" lon="4.96639">
        <ele>161.38600158691</ele>
        <time>2010-01-23T13:33:56Z</time>
      </trkpt>
      <trkpt lat="44.966" lon="4.96668">
        <ele>161.31199645996</ele>
        <time>2010-01-23T13:34:01Z</time>
      </trkpt>
      <trkpt lat="44.96576" lon="4.96684">
        <ele>161.08099365234</ele>
        <time>2010-01-23T13:34:05Z</time>
      </trkpt>
      <trkpt lat="44.9653" lon="4.96712">
        <ele>160.98100280762</ele>
        <time>2010-01-23T13:34:13Z</time>
      </trkpt>
      <trkpt lat="44.96473" lon="4.96753">
        <ele>161.10099792481</ele>
        <time>2010-01-23T13:34:23Z</time>
      </trkpt>
      <trkpt lat="44.96427" lon="4.96788">
        <ele>160.73199462891</ele>
        <time>2010-01-23T13:34:31Z</time>
      </trkpt>
      <trkpt lat="44.96395" lon="4.96814">
        <ele>161.72500610352</ele>
        <time>2010-01-23T13:34:41Z</time>
      </trkpt>
      <trkpt lat="44.96312" lon="4.96866">
        <ele>161.09300231934</ele>
        <time>2010-01-23T13:34:51Z</time>
      </trkpt>
      <trkpt lat="44.96303" lon="4.96876">
        <ele>161.60800170898</ele>
        <time>2010-01-23T13:34:53Z</time>
      </trkpt>
      <trkpt lat="44.96285" lon="4.96904">
        <ele>161.85800170898</ele>
        <time>2010-01-23T13:34:58Z</time>
      </trkpt>
      <trkpt lat="44.96254" lon="4.96978">
        <ele>161.60499572754</ele>
        <time>2010-01-23T13:35:07Z</time>
      </trkpt>
      <trkpt lat="44.96216" lon="4.97018">
        <ele>164.28500366211</ele>
        <time>2010-01-23T13:35:14Z</time>
      </trkpt>
      <trkpt lat="44.96172" lon="4.9705">
        <ele>163.85800170898</ele>
        <time>2010-01-23T13:35:22Z</time>
      </trkpt>
      <trkpt lat="44.96136" lon="4.97076">
        <ele>164.38800048828</ele>
        <time>2010-01-23T13:35:29Z</time>
      </trkpt>
      <trkpt lat="44.96122" lon="4.97086">
        <ele>164.89100646973</ele>
        <time>2010-01-23T13:35:32Z</time>
      </trkpt>
      <trkpt lat="44.96096" lon="4.97101">
        <ele>163.96499633789</ele>
        <time>2010-01-23T13:35:37Z</time>
      </trkpt>
      <trkpt lat="44.96095" lon="4.97101">
        <ele>164.06399536133</ele>
        <time>2010-01-23T13:35:39Z</time>
      </trkpt>
      <trkpt lat="44.96095" lon="4.97101">
        <ele>165.54699707031</ele>
        <time>2010-01-23T13:35:43Z</time>
      </trkpt>
      <trkpt lat="44.96058" lon="4.97116">
        <ele>166.07800292969</ele>
        <time>2010-01-23T13:35:45Z</time>
      </trkpt>
      <trkpt lat="44.96036" lon="4.97128">
        <ele>166.00199890137</ele>
        <time>2010-01-23T13:35:49Z</time>
      </trkpt>
      <trkpt lat="44.95988" lon="4.97148">
        <ele>164.49000549316</ele>
        <time>2010-01-23T13:35:57Z</time>
      </trkpt>
      <trkpt lat="44.95925" lon="4.97174">
        <ele>165.68800354004</ele>
        <time>2010-01-23T13:36:07Z</time>
      </trkpt>
      <trkpt lat="44.95923" lon="4.97174">
        <ele>163.49899291992</ele>
        <time>2010-01-23T13:36:11Z</time>
      </trkpt>
      <trkpt lat="44.95847" lon="4.97204">
        <ele>163.51100158691</ele>
        <time>2010-01-23T13:36:19Z</time>
      </trkpt>
      <trkpt lat="44.9584" lon="4.97206">
        <ele>163.53500366211</ele>
        <time>2010-01-23T13:36:20Z</time>
      </trkpt>
      <trkpt lat="44.95762" lon="4.97236">
        <ele>161.85299682617</ele>
        <time>2010-01-23T13:36:31Z</time>
      </trkpt>
      <trkpt lat="44.95708" lon="4.97256">
        <ele>161.93499755859</ele>
        <time>2010-01-23T13:36:39Z</time>
      </trkpt>
      <trkpt lat="44.95639" lon="4.97281">
        <ele>162.58099365234</ele>
        <time>2010-01-23T13:36:50Z</time>
      </trkpt>
      <trkpt lat="44.95584" lon="4.97301">
        <ele>162.54299926758</ele>
        <time>2010-01-23T13:36:59Z</time>
      </trkpt>
      <trkpt lat="44.95514" lon="4.97327">
        <ele>162.33700561523</ele>
        <time>2010-01-23T13:37:10Z</time>
      </trkpt>
      <trkpt lat="44.95462" lon="4.97349">
        <ele>162.02900695801</ele>
        <time>2010-01-23T13:37:18Z</time>
      </trkpt>
      <trkpt lat="44.95456" lon="4.97352">
        <ele>161.9049987793</ele>
        <time>2010-01-23T13:37:19Z</time>
      </trkpt>
      <trkpt lat="44.95431" lon="4.97382">
        <ele>162.06799316406</ele>
        <time>2010-01-23T13:37:24Z</time>
      </trkpt>
      <trkpt lat="44.95403" lon="4.97451">
        <ele>163.41400146484</ele>
        <time>2010-01-23T13:37:33Z</time>
      </trkpt>
      <trkpt lat="44.95381" lon="4.97524">
        <ele>165.02900695801</ele>
        <time>2010-01-23T13:37:42Z</time>
      </trkpt>
      <trkpt lat="44.9536" lon="4.97594">
        <ele>164.02699279785</ele>
        <time>2010-01-23T13:37:50Z</time>
      </trkpt>
      <trkpt lat="44.95337" lon="4.97665">
        <ele>163.59599304199</ele>
        <time>2010-01-23T13:37:58Z</time>
      </trkpt>
      <trkpt lat="44.95311" lon="4.97702">
        <ele>163.34899902344</ele>
        <time>2010-01-23T13:38:03Z</time>
      </trkpt>
      <trkpt lat="44.95304" lon="4.97707">
        <ele>163.18600463867</ele>
        <time>2010-01-23T13:38:04Z</time>
      </trkpt>
      <trkpt lat="44.95239" lon="4.97747">
        <ele>162.76600646973</ele>
        <time>2010-01-23T13:38:14Z</time>
      </trkpt>
      <trkpt lat="44.95206" lon="4.97767">
        <ele>161.97099304199</ele>
        <time>2010-01-23T13:38:19Z</time>
      </trkpt>
      <trkpt lat="44.95193" lon="4.97775">
        <ele>162.68600463867</ele>
        <time>2010-01-23T13:38:24Z</time>
      </trkpt>
      <trkpt lat="44.95175" lon="4.97803">
        <ele>163.58999633789</ele>
        <time>2010-01-23T13:38:25Z</time>
      </trkpt>
      <trkpt lat="44.95158" lon="4.97866">
        <ele>163.18099975586</ele>
        <time>2010-01-23T13:38:32Z</time>
      </trkpt>
      <trkpt lat="44.95125" lon="4.97986">
        <ele>163.29899597168</ele>
        <time>2010-01-23T13:38:45Z</time>
      </trkpt>
      <trkpt lat="44.95096" lon="4.98076">
        <ele>163.1309967041</ele>
        <time>2010-01-23T13:38:55Z</time>
      </trkpt>
      <trkpt lat="44.95082" lon="4.98127">
        <ele>161.73899841309</ele>
        <time>2010-01-23T13:39:04Z</time>
      </trkpt>
      <trkpt lat="44.95048" lon="4.98218">
        <ele>162.07499694824</ele>
        <time>2010-01-23T13:39:11Z</time>
      </trkpt>
      <trkpt lat="44.95026" lon="4.98273">
        <ele>162.74099731445</ele>
        <time>2010-01-23T13:39:18Z</time>
      </trkpt>
      <trkpt lat="44.95017" lon="4.98295">
        <ele>163.28900146484</ele>
        <time>2010-01-23T13:39:22Z</time>
      </trkpt>
      <trkpt lat="44.95003" lon="4.98292">
        <ele>163.17300415039</ele>
        <time>2010-01-23T13:39:24Z</time>
      </trkpt>
      <trkpt lat="44.9496" lon="4.98255">
        <ele>162.45300292969</ele>
        <time>2010-01-23T13:39:32Z</time>
      </trkpt>
      <trkpt lat="44.94916" lon="4.98229">
        <ele>162.12199401856</ele>
        <time>2010-01-23T13:39:39Z</time>
      </trkpt>
      <trkpt lat="44.94864" lon="4.98207">
        <ele>161.68699645996</ele>
        <time>2010-01-23T13:39:47Z</time>
      </trkpt>
      <trkpt lat="44.94806" lon="4.9819">
        <ele>161.375</ele>
        <time>2010-01-23T13:39:56Z</time>
      </trkpt>
      <trkpt lat="44.94773" lon="4.98183">
        <ele>161.56100463867</ele>
        <time>2010-01-23T13:40:01Z</time>
      </trkpt>
      <trkpt lat="44.94737" lon="4.9816">
        <ele>161.91000366211</ele>
        <time>2010-01-23T13:40:07Z</time>
      </trkpt>
      <trkpt lat="44.94683" lon="4.98116">
        <ele>161.31300354004</ele>
        <time>2010-01-23T13:40:16Z</time>
      </trkpt>
      <trkpt lat="44.94625" lon="4.98068">
        <ele>161.9109954834</ele>
        <time>2010-01-23T13:40:26Z</time>
      </trkpt>
      <trkpt lat="44.94592" lon="4.9804">
        <ele>161.52099609375</ele>
        <time>2010-01-23T13:40:32Z</time>
      </trkpt>
      <trkpt lat="44.9455" lon="4.98008">
        <ele>161.86000061035</ele>
        <time>2010-01-23T13:40:39Z</time>
      </trkpt>
      <trkpt lat="44.94503" lon="4.97972">
        <ele>161.02099609375</ele>
        <time>2010-01-23T13:40:47Z</time>
      </trkpt>
      <trkpt lat="44.94452" lon="4.9794">
        <ele>160.65699768066</ele>
        <time>2010-01-23T13:40:55Z</time>
      </trkpt>
      <trkpt lat="44.94402" lon="4.97908">
        <ele>160.47599792481</ele>
        <time>2010-01-23T13:41:03Z</time>
      </trkpt>
      <trkpt lat="44.94361" lon="4.97884">
        <ele>160.22300720215</ele>
        <time>2010-01-23T13:41:10Z</time>
      </trkpt>
      <trkpt lat="44.9431" lon="4.97863">
        <ele>159.95700073242</ele>
        <time>2010-01-23T13:41:19Z</time>
      </trkpt>
      <trkpt lat="44.9427" lon="4.97849">
        <ele>159.67500305176</ele>
        <time>2010-01-23T13:41:25Z</time>
      </trkpt>
      <trkpt lat="44.94241" lon="4.97839">
        <ele>159.38600158691</ele>
        <time>2010-01-23T13:41:31Z</time>
      </trkpt>
      <trkpt lat="44.94163" lon="4.97788">
        <ele>159.08399963379</ele>
        <time>2010-01-23T13:41:41Z</time>
      </trkpt>
      <trkpt lat="44.94102" lon="4.97748">
        <ele>158.8390045166</ele>
        <time>2010-01-23T13:41:50Z</time>
      </trkpt>
      <trkpt lat="44.94038" lon="4.97699">
        <ele>158.77099609375</ele>
        <time>2010-01-23T13:42:00Z</time>
      </trkpt>
      <trkpt lat="44.93985" lon="4.97662">
        <ele>158.38200378418</ele>
        <time>2010-01-23T13:42:08Z</time>
      </trkpt>
      <trkpt lat="44.93924" lon="4.97621">
        <ele>157.99299621582</ele>
        <time>2010-01-23T13:42:16Z</time>
      </trkpt>
      <trkpt lat="44.93887" lon="4.97597">
        <ele>157.66299438477</ele>
        <time>2010-01-23T13:42:22Z</time>
      </trkpt>
      <trkpt lat="44.93855" lon="4.97575">
        <ele>158.29899597168</ele>
        <time>2010-01-23T13:42:28Z</time>
      </trkpt>
      <trkpt lat="44.93846" lon="4.97569">
        <ele>158.27699279785</ele>
        <time>2010-01-23T13:42:31Z</time>
      </trkpt>
      <trkpt lat="44.93846" lon="4.97569">
        <ele>158.33000183106</ele>
        <time>2010-01-23T13:42:35Z</time>
      </trkpt>
      <trkpt lat="44.93846" lon="4.97569">
        <ele>158.36000061035</ele>
        <time>2010-01-23T13:42:37Z</time>
      </trkpt>
      <trkpt lat="44.93827" lon="4.97536">
        <ele>158.60000610352</ele>
        <time>2010-01-23T13:42:41Z</time>
      </trkpt>
      <trkpt lat="44.93803" lon="4.97534">
        <ele>157.42599487305</ele>
        <time>2010-01-23T13:42:46Z</time>
      </trkpt>
      <trkpt lat="44.9375" lon="4.97505">
        <ele>156.8690032959</ele>
        <time>2010-01-23T13:42:56Z</time>
      </trkpt>
      <trkpt lat="44.93693" lon="4.97473">
        <ele>155.97599792481</ele>
        <time>2010-01-23T13:43:06Z</time>
      </trkpt>
      <trkpt lat="44.93621" lon="4.97427">
        <ele>155.69000244141</ele>
        <time>2010-01-23T13:43:18Z</time>
      </trkpt>
      <trkpt lat="44.93563" lon="4.97378">
        <ele>155.07299804688</ele>
        <time>2010-01-23T13:43:28Z</time>
      </trkpt>
      <trkpt lat="44.93492" lon="4.97311">
        <ele>154.86500549316</ele>
        <time>2010-01-23T13:43:41Z</time>
      </trkpt>
      <trkpt lat="44.93425" lon="4.97247">
        <ele>154.49800109863</ele>
        <time>2010-01-23T13:43:53Z</time>
      </trkpt>
      <trkpt lat="44.9337" lon="4.97195">
        <ele>154.45100402832</ele>
        <time>2010-01-23T13:44:03Z</time>
      </trkpt>
      <trkpt lat="44.9336" lon="4.97186">
        <ele>154.6609954834</ele>
        <time>2010-01-23T13:44:05Z</time>
      </trkpt>
      <trkpt lat="44.93344" lon="4.97188">
        <ele>155.25500488281</ele>
        <time>2010-01-23T13:44:09Z</time>
      </trkpt>
      <trkpt lat="44.93341" lon="4.97194">
        <ele>155.59399414062</ele>
        <time>2010-01-23T13:44:10Z</time>
      </trkpt>
      <trkpt lat="44.93311" lon="4.97266">
        <ele>155.80499267578</ele>
        <time>2010-01-23T13:44:20Z</time>
      </trkpt>
      <trkpt lat="44.93301" lon="4.97318">
        <ele>156.46099853516</ele>
        <time>2010-01-23T13:44:27Z</time>
      </trkpt>
      <trkpt lat="44.93289" lon="4.97401">
        <ele>156.94999694824</ele>
        <time>2010-01-23T13:44:37Z</time>
      </trkpt>
      <trkpt lat="44.93278" lon="4.97489">
        <ele>158.06900024414</ele>
        <time>2010-01-23T13:44:47Z</time>
      </trkpt>
      <trkpt lat="44.93267" lon="4.97538">
        <ele>158.97900390625</ele>
        <time>2010-01-23T13:44:53Z</time>
      </trkpt>
      <trkpt lat="44.93254" lon="4.97582">
        <ele>159.66200256348</ele>
        <time>2010-01-23T13:45:00Z</time>
      </trkpt>
      <trkpt lat="44.93232" lon="4.97636">
        <ele>159.58099365234</ele>
        <time>2010-01-23T13:45:06Z</time>
      </trkpt>
      <trkpt lat="44.93207" lon="4.97696">
        <ele>160.23500061035</ele>
        <time>2010-01-23T13:45:15Z</time>
      </trkpt>
      <trkpt lat="44.93193" lon="4.97721">
        <ele>160.76400756836</ele>
        <time>2010-01-23T13:45:19Z</time>
      </trkpt>
      <trkpt lat="44.93166" lon="4.97769">
        <ele>160.83200073242</ele>
        <time>2010-01-23T13:45:27Z</time>
      </trkpt>
      <trkpt lat="44.93135" lon="4.97823">
        <ele>161.36799621582</ele>
        <time>2010-01-23T13:45:36Z</time>
      </trkpt>
      <trkpt lat="44.9311" lon="4.97869">
        <ele>161.62100219727</ele>
        <time>2010-01-23T13:45:44Z</time>
      </trkpt>
      <trkpt lat="44.93095" lon="4.97895">
        <ele>162.86199951172</ele>
        <time>2010-01-23T13:45:52Z</time>
      </trkpt>
      <trkpt lat="44.93095" lon="4.97895">
        <ele>162.57099914551</ele>
        <time>2010-01-23T13:45:53Z</time>
      </trkpt>
      <trkpt lat="44.93076" lon="4.97939">
        <ele>162.60600280762</ele>
        <time>2010-01-23T13:45:57Z</time>
      </trkpt>
      <trkpt lat="44.93069" lon="4.97983">
        <ele>163.38900756836</ele>
        <time>2010-01-23T13:46:03Z</time>
      </trkpt>
      <trkpt lat="44.93061" lon="4.98029">
        <ele>163.49099731445</ele>
        <time>2010-01-23T13:46:09Z</time>
      </trkpt>
      <trkpt lat="44.93046" lon="4.9808">
        <ele>164.41700744629</ele>
        <time>2010-01-23T13:46:16Z</time>
      </trkpt>
      <trkpt lat="44.9303" lon="4.98132">
        <ele>165.60200500488</ele>
        <time>2010-01-23T13:46:23Z</time>
      </trkpt>
      <trkpt lat="44.93003" lon="4.98221">
        <ele>165.60699462891</ele>
        <time>2010-01-23T13:46:35Z</time>
      </trkpt>
      <trkpt lat="44.92984" lon="4.98286">
        <ele>166.23300170898</ele>
        <time>2010-01-23T13:46:44Z</time>
      </trkpt>
      <trkpt lat="44.92965" lon="4.98349">
        <ele>167.4940032959</ele>
        <time>2010-01-23T13:46:53Z</time>
      </trkpt>
      <trkpt lat="44.92957" lon="4.98376">
        <ele>167.5059967041</ele>
        <time>2010-01-23T13:46:57Z</time>
      </trkpt>
      <trkpt lat="44.92951" lon="4.98385">
        <ele>167.92700195312</ele>
        <time>2010-01-23T13:47:01Z</time>
      </trkpt>
      <trkpt lat="44.92945" lon="4.98378">
        <ele>167.52499389648</ele>
        <time>2010-01-23T13:47:03Z</time>
      </trkpt>
      <trkpt lat="44.9291" lon="4.98333">
        <ele>167.32600402832</ele>
        <time>2010-01-23T13:47:12Z</time>
      </trkpt>
      <trkpt lat="44.92877" lon="4.9829">
        <ele>167.67399597168</ele>
        <time>2010-01-23T13:47:20Z</time>
      </trkpt>
      <trkpt lat="44.92841" lon="4.98244">
        <ele>167.23199462891</ele>
        <time>2010-01-23T13:47:28Z</time>
      </trkpt>
      <trkpt lat="44.92804" lon="4.98196">
        <ele>166.6609954834</ele>
        <time>2010-01-23T13:47:36Z</time>
      </trkpt>
      <trkpt lat="44.92749" lon="4.98125">
        <ele>166.70799255371</ele>
        <time>2010-01-23T13:47:48Z</time>
      </trkpt>
      <trkpt lat="44.92699" lon="4.9806">
        <ele>167.26300048828</ele>
        <time>2010-01-23T13:47:59Z</time>
      </trkpt>
      <trkpt lat="44.92677" lon="4.98031">
        <ele>166.45899963379</ele>
        <time>2010-01-23T13:48:04Z</time>
      </trkpt>
      <trkpt lat="44.92667" lon="4.98003">
        <ele>166.46600341797</ele>
        <time>2010-01-23T13:48:08Z</time>
      </trkpt>
      <trkpt lat="44.9267" lon="4.9799">
        <ele>166.92399597168</ele>
        <time>2010-01-23T13:48:10Z</time>
      </trkpt>
      <trkpt lat="44.9268" lon="4.97956">
        <ele>166.05900573731</ele>
        <time>2010-01-23T13:48:15Z</time>
      </trkpt>
      <trkpt lat="44.9267" lon="4.97944">
        <ele>166.45100402832</ele>
        <time>2010-01-23T13:48:19Z</time>
      </trkpt>
      <trkpt lat="44.92663" lon="4.97943">
        <ele>166.27600097656</ele>
        <time>2010-01-23T13:48:21Z</time>
      </trkpt>
      <trkpt lat="44.92645" lon="4.97951">
        <ele>167.18800354004</ele>
        <time>2010-01-23T13:48:27Z</time>
      </trkpt>
      <trkpt lat="44.92599" lon="4.97958">
        <ele>167.43400573731</ele>
        <time>2010-01-23T13:48:34Z</time>
      </trkpt>
      <trkpt lat="44.92584" lon="4.97959">
        <ele>167.57200622559</ele>
        <time>2010-01-23T13:48:37Z</time>
      </trkpt>
      <trkpt lat="44.92533" lon="4.97965">
        <ele>167.06199645996</ele>
        <time>2010-01-23T13:48:46Z</time>
      </trkpt>
      <trkpt lat="44.92468" lon="4.97972">
        <ele>166.41299438477</ele>
        <time>2010-01-23T13:48:57Z</time>
      </trkpt>
      <trkpt lat="44.92406" lon="4.97978">
        <ele>166.76899719238</ele>
        <time>2010-01-23T13:49:07Z</time>
      </trkpt>
      <trkpt lat="44.92335" lon="4.97985">
        <ele>167.39700317383</ele>
        <time>2010-01-23T13:49:18Z</time>
      </trkpt>
      <trkpt lat="44.92289" lon="4.97981">
        <ele>167.42799377441</ele>
        <time>2010-01-23T13:49:25Z</time>
      </trkpt>
      <trkpt lat="44.92222" lon="4.9797">
        <ele>166.2380065918</ele>
        <time>2010-01-23T13:49:35Z</time>
      </trkpt>
      <trkpt lat="44.92164" lon="4.97957">
        <ele>166.20199584961</ele>
        <time>2010-01-23T13:49:44Z</time>
      </trkpt>
      <trkpt lat="44.92101" lon="4.97944">
        <ele>166.79600524902</ele>
        <time>2010-01-23T13:49:54Z</time>
      </trkpt>
      <trkpt lat="44.92052" lon="4.97933">
        <ele>167.00500488281</ele>
        <time>2010-01-23T13:50:02Z</time>
      </trkpt>
      <trkpt lat="44.92008" lon="4.97924">
        <ele>167.65800476074</ele>
        <time>2010-01-23T13:50:10Z</time>
      </trkpt>
      <trkpt lat="44.91996" lon="4.97921">
        <ele>167.45899963379</ele>
        <time>2010-01-23T13:50:14Z</time>
      </trkpt>
      <trkpt lat="44.91996" lon="4.97921">
        <ele>167.43699645996</ele>
        <time>2010-01-23T13:50:19Z</time>
      </trkpt>
      <trkpt lat="44.91996" lon="4.97921">
        <ele>167.48599243164</ele>
        <time>2010-01-23T13:50:25Z</time>
      </trkpt>
      <trkpt lat="44.91996" lon="4.97921">
        <ele>167.88499450684</ele>
        <time>2010-01-23T13:50:28Z</time>
      </trkpt>
      <trkpt lat="44.9196" lon="4.97922">
        <ele>167.90600585938</ele>
        <time>2010-01-23T13:50:32Z</time>
      </trkpt>
      <trkpt lat="44.9193" lon="4.9795">
        <ele>167.85800170898</ele>
        <time>2010-01-23T13:50:40Z</time>
      </trkpt>
      <trkpt lat="44.91922" lon="4.97958">
        <ele>168.03199768066</ele>
        <time>2010-01-23T13:50:42Z</time>
      </trkpt>
      <trkpt lat="44.91898" lon="4.97971">
        <ele>169.28399658203</ele>
        <time>2010-01-23T13:50:47Z</time>
      </trkpt>
      <trkpt lat="44.91885" lon="4.97977">
        <ele>168.82800292969</ele>
        <time>2010-01-23T13:50:50Z</time>
      </trkpt>
      <trkpt lat="44.91866" lon="4.97995">
        <ele>168.54699707031</ele>
        <time>2010-01-23T13:50:55Z</time>
      </trkpt>
      <trkpt lat="44.91862" lon="4.98004">
        <ele>168.51800537109</ele>
        <time>2010-01-23T13:50:57Z</time>
      </trkpt>
      <trkpt lat="44.91853" lon="4.98058">
        <ele>168.84899902344</ele>
        <time>2010-01-23T13:51:06Z</time>
      </trkpt>
      <trkpt lat="44.91852" lon="4.98064">
        <ele>168.94700622559</ele>
        <time>2010-01-23T13:51:07Z</time>
      </trkpt>
      <trkpt lat="44.91839" lon="4.98074">
        <ele>168.85499572754</ele>
        <time>2010-01-23T13:51:11Z</time>
      </trkpt>
      <trkpt lat="44.91816" lon="4.98071">
        <ele>168.92799377441</ele>
        <time>2010-01-23T13:51:20Z</time>
      </trkpt>
      <trkpt lat="44.91783" lon="4.98071">
        <ele>168.91499328613</ele>
        <time>2010-01-23T13:51:24Z</time>
      </trkpt>
      <trkpt lat="44.91771" lon="4.98084">
        <ele>168.98100280762</ele>
        <time>2010-01-23T13:51:28Z</time>
      </trkpt>
      <trkpt lat="44.91764" lon="4.98092">
        <ele>168.98100280762</ele>
        <time>2010-01-23T13:51:30Z</time>
      </trkpt>
      <trkpt lat="44.91746" lon="4.98101">
        <ele>169.44400024414</ele>
        <time>2010-01-23T13:51:34Z</time>
      </trkpt>
      <trkpt lat="44.91736" lon="4.981">
        <ele>169.44500732422</ele>
        <time>2010-01-23T13:51:36Z</time>
      </trkpt>
      <trkpt lat="44.9169" lon="4.98086">
        <ele>170.06500244141</ele>
        <time>2010-01-23T13:51:45Z</time>
      </trkpt>
      <trkpt lat="44.9165" lon="4.98073">
        <ele>169.92100524902</ele>
        <time>2010-01-23T13:51:53Z</time>
      </trkpt>
      <trkpt lat="44.91619" lon="4.98064">
        <ele>170.15899658203</ele>
        <time>2010-01-23T13:51:59Z</time>
      </trkpt>
      <trkpt lat="44.91568" lon="4.98048">
        <ele>169.66499328613</ele>
        <time>2010-01-23T13:52:08Z</time>
      </trkpt>
      <trkpt lat="44.91507" lon="4.98029">
        <ele>169.56399536133</ele>
        <time>2010-01-23T13:52:18Z</time>
      </trkpt>
      <trkpt lat="44.91462" lon="4.98015">
        <ele>169.90199279785</ele>
        <time>2010-01-23T13:52:25Z</time>
      </trkpt>
      <trkpt lat="44.91441" lon="4.98017">
        <ele>170.92300415039</ele>
        <time>2010-01-23T13:52:29Z</time>
      </trkpt>
      <trkpt lat="44.91417" lon="4.98041">
        <ele>171.29699707031</ele>
        <time>2010-01-23T13:52:35Z</time>
      </trkpt>
      <trkpt lat="44.91413" lon="4.98054">
        <ele>171.41600036621</ele>
        <time>2010-01-23T13:52:37Z</time>
      </trkpt>
      <trkpt lat="44.91399" lon="4.98109">
        <ele>171.51800537109</ele>
        <time>2010-01-23T13:52:44Z</time>
      </trkpt>
      <trkpt lat="44.91391" lon="4.98141">
        <ele>171.24499511719</ele>
        <time>2010-01-23T13:52:48Z</time>
      </trkpt>
      <trkpt lat="44.91371" lon="4.98133">
        <ele>170.67799377441</ele>
        <time>2010-01-23T13:52:50Z</time>
      </trkpt>
      <trkpt lat="44.91328" lon="4.98119">
        <ele>170.9049987793</ele>
        <time>2010-01-23T13:52:57Z</time>
      </trkpt>
      <trkpt lat="44.91277" lon="4.98101">
        <ele>171.2859954834</ele>
        <time>2010-01-23T13:53:05Z</time>
      </trkpt>
      <trkpt lat="44.91217" lon="4.98081">
        <ele>170.13900756836</ele>
        <time>2010-01-23T13:53:14Z</time>
      </trkpt>
      <trkpt lat="44.91148" lon="4.98058">
        <ele>169.82400512695</ele>
        <time>2010-01-23T13:53:24Z</time>
      </trkpt>
      <trkpt lat="44.91122" lon="4.98049">
        <ele>169.7859954834</ele>
        <time>2010-01-23T13:53:28Z</time>
      </trkpt>
      <trkpt lat="44.91068" lon="4.98031">
        <ele>169.54800415039</ele>
        <time>2010-01-23T13:53:37Z</time>
      </trkpt>
      <trkpt lat="44.91035" lon="4.98028">
        <ele>170.11500549316</ele>
        <time>2010-01-23T13:53:43Z</time>
      </trkpt>
      <trkpt lat="44.9099" lon="4.9802">
        <ele>169.33799743652</ele>
        <time>2010-01-23T13:53:51Z</time>
      </trkpt>
      <trkpt lat="44.90952" lon="4.98007">
        <ele>168.83099365234</ele>
        <time>2010-01-23T13:53:58Z</time>
      </trkpt>
      <trkpt lat="44.90924" lon="4.97997">
        <ele>168.85299682617</ele>
        <time>2010-01-23T13:54:04Z</time>
      </trkpt>
      <trkpt lat="44.90908" lon="4.97992">
        <ele>168.68600463867</ele>
        <time>2010-01-23T13:54:09Z</time>
      </trkpt>
      <trkpt lat="44.90892" lon="4.97986">
        <ele>168.87800598144</ele>
        <time>2010-01-23T13:54:14Z</time>
      </trkpt>
      <trkpt lat="44.90887" lon="4.97959">
        <ele>167.99800109863</ele>
        <time>2010-01-23T13:54:18Z</time>
      </trkpt>
      <trkpt lat="44.90881" lon="4.97898">
        <ele>168.05599975586</ele>
        <time>2010-01-23T13:54:25Z</time>
      </trkpt>
      <trkpt lat="44.90874" lon="4.97824">
        <ele>167.54400634766</ele>
        <time>2010-01-23T13:54:33Z</time>
      </trkpt>
      <trkpt lat="44.90867" lon="4.97747">
        <ele>166.68499755859</ele>
        <time>2010-01-23T13:54:41Z</time>
      </trkpt>
      <trkpt lat="44.90863" lon="4.9766">
        <ele>166.09199523926</ele>
        <time>2010-01-23T13:54:49Z</time>
      </trkpt>
      <trkpt lat="44.90867" lon="4.97595">
        <ele>165.27000427246</ele>
        <time>2010-01-23T13:54:56Z</time>
      </trkpt>
      <trkpt lat="44.90883" lon="4.97518">
        <ele>164.32000732422</ele>
        <time>2010-01-23T13:55:04Z</time>
      </trkpt>
      <trkpt lat="44.90898" lon="4.97449">
        <ele>163.95500183106</ele>
        <time>2010-01-23T13:55:12Z</time>
      </trkpt>
      <trkpt lat="44.90925" lon="4.97365">
        <ele>162.56599426269</ele>
        <time>2010-01-23T13:55:20Z</time>
      </trkpt>
      <trkpt lat="44.90936" lon="4.97331">
        <ele>162.41400146484</ele>
        <time>2010-01-23T13:55:24Z</time>
      </trkpt>
      <trkpt lat="44.90955" lon="4.97271">
        <ele>161.48300170898</ele>
        <time>2010-01-23T13:55:31Z</time>
      </trkpt>
      <trkpt lat="44.90981" lon="4.97191">
        <ele>161.50900268555</ele>
        <time>2010-01-23T13:55:40Z</time>
      </trkpt>
      <trkpt lat="44.91008" lon="4.97109">
        <ele>160.36399841309</ele>
        <time>2010-01-23T13:55:49Z</time>
      </trkpt>
      <trkpt lat="44.91034" lon="4.97027">
        <ele>159.23300170898</ele>
        <time>2010-01-23T13:55:58Z</time>
      </trkpt>
      <trkpt lat="44.91067" lon="4.96932">
        <ele>158.20100402832</ele>
        <time>2010-01-23T13:56:08Z</time>
      </trkpt>
      <trkpt lat="44.91111" lon="4.96804">
        <ele>156.42199707031</ele>
        <time>2010-01-23T13:56:21Z</time>
      </trkpt>
      <trkpt lat="44.9115" lon="4.96693">
        <ele>155.86799621582</ele>
        <time>2010-01-23T13:56:32Z</time>
      </trkpt>
      <trkpt lat="44.91179" lon="4.96608">
        <ele>154.85600280762</ele>
        <time>2010-01-23T13:56:41Z</time>
      </trkpt>
      <trkpt lat="44.91205" lon="4.96532">
        <ele>153.99499511719</ele>
        <time>2010-01-23T13:56:49Z</time>
      </trkpt>
      <trkpt lat="44.91232" lon="4.96455">
        <ele>153.55000305176</ele>
        <time>2010-01-23T13:56:57Z</time>
      </trkpt>
      <trkpt lat="44.91251" lon="4.96401">
        <ele>153.21200561523</ele>
        <time>2010-01-23T13:57:03Z</time>
      </trkpt>
      <trkpt lat="44.91273" lon="4.96333">
        <ele>152.30900573731</ele>
        <time>2010-01-23T13:57:10Z</time>
      </trkpt>
      <trkpt lat="44.91303" lon="4.96243">
        <ele>151.80999755859</ele>
        <time>2010-01-23T13:57:19Z</time>
      </trkpt>
      <trkpt lat="44.91315" lon="4.96206">
        <ele>151.06300354004</ele>
        <time>2010-01-23T13:57:23Z</time>
      </trkpt>
      <trkpt lat="44.91318" lon="4.96197">
        <ele>151.1130065918</ele>
        <time>2010-01-23T13:57:24Z</time>
      </trkpt>
      <trkpt lat="44.91336" lon="4.96141">
        <ele>150.41299438477</ele>
        <time>2010-01-23T13:57:30Z</time>
      </trkpt>
      <trkpt lat="44.91342" lon="4.96124">
        <ele>150.61000061035</ele>
        <time>2010-01-23T13:57:32Z</time>
      </trkpt>
      <trkpt lat="44.9136" lon="4.96066">
        <ele>150.35000610352</ele>
        <time>2010-01-23T13:57:39Z</time>
      </trkpt>
      <trkpt lat="44.91365" lon="4.96051">
        <ele>150.44999694824</ele>
        <time>2010-01-23T13:57:41Z</time>
      </trkpt>
      <trkpt lat="44.91371" lon="4.96034">
        <ele>150.63299560547</ele>
        <time>2010-01-23T13:57:44Z</time>
      </trkpt>
      <trkpt lat="44.91354" lon="4.96034">
        <ele>150.85299682617</ele>
        <time>2010-01-23T13:57:46Z</time>
      </trkpt>
      <trkpt lat="44.91311" lon="4.96037">
        <ele>150.2200012207</ele>
        <time>2010-01-23T13:57:54Z</time>
      </trkpt>
      <trkpt lat="44.91292" lon="4.96039">
        <ele>150.22799682617</ele>
        <time>2010-01-23T13:57:57Z</time>
      </trkpt>
      <trkpt lat="44.91238" lon="4.96046">
        <ele>150.125</ele>
        <time>2010-01-23T13:58:05Z</time>
      </trkpt>
      <trkpt lat="44.91197" lon="4.9605">
        <ele>150.69500732422</ele>
        <time>2010-01-23T13:58:11Z</time>
      </trkpt>
      <trkpt lat="44.9114" lon="4.96048">
        <ele>150.82200622559</ele>
        <time>2010-01-23T13:58:20Z</time>
      </trkpt>
      <trkpt lat="44.91099" lon="4.96046">
        <ele>150.65100097656</ele>
        <time>2010-01-23T13:58:27Z</time>
      </trkpt>
      <trkpt lat="44.91059" lon="4.96043">
        <ele>150.02699279785</ele>
        <time>2010-01-23T13:58:33Z</time>
      </trkpt>
      <trkpt lat="44.91021" lon="4.96038">
        <ele>149.33299255371</ele>
        <time>2010-01-23T13:58:39Z</time>
      </trkpt>
      <trkpt lat="44.90956" lon="4.96029">
        <ele>149.67100524902</ele>
        <time>2010-01-23T13:58:49Z</time>
      </trkpt>
      <trkpt lat="44.90898" lon="4.96021">
        <ele>149.13900756836</ele>
        <time>2010-01-23T13:58:58Z</time>
      </trkpt>
      <trkpt lat="44.90833" lon="4.96013">
        <ele>149.52600097656</ele>
        <time>2010-01-23T13:59:08Z</time>
      </trkpt>
      <trkpt lat="44.90778" lon="4.96003">
        <ele>149.29299926758</ele>
        <time>2010-01-23T13:59:17Z</time>
      </trkpt>
      <trkpt lat="44.90736" lon="4.95991">
        <ele>148.8630065918</ele>
        <time>2010-01-23T13:59:24Z</time>
      </trkpt>
      <trkpt lat="44.90705" lon="4.95981">
        <ele>149.10499572754</ele>
        <time>2010-01-23T13:59:33Z</time>
      </trkpt>
      <trkpt lat="44.90638" lon="4.95973">
        <ele>148.91499328613</ele>
        <time>2010-01-23T13:59:40Z</time>
      </trkpt>
      <trkpt lat="44.90579" lon="4.95974">
        <ele>148.49200439453</ele>
        <time>2010-01-23T13:59:49Z</time>
      </trkpt>
      <trkpt lat="44.90505" lon="4.95975">
        <ele>148.24000549316</ele>
        <time>2010-01-23T14:00:00Z</time>
      </trkpt>
      <trkpt lat="44.90445" lon="4.95976">
        <ele>147.80700683594</ele>
        <time>2010-01-23T14:00:09Z</time>
      </trkpt>
      <trkpt lat="44.904" lon="4.95977">
        <ele>148.23199462891</ele>
        <time>2010-01-23T14:00:19Z</time>
      </trkpt>
      <trkpt lat="44.90334" lon="4.95981">
        <ele>148.20500183106</ele>
        <time>2010-01-23T14:00:25Z</time>
      </trkpt>
      <trkpt lat="44.90263" lon="4.95981">
        <ele>147.69200134277</ele>
        <time>2010-01-23T14:00:35Z</time>
      </trkpt>
      <trkpt lat="44.90207" lon="4.95986">
        <ele>147.44200134277</ele>
        <time>2010-01-23T14:00:43Z</time>
      </trkpt>
      <trkpt lat="44.9018" lon="4.9599">
        <ele>147.22700500488</ele>
        <time>2010-01-23T14:00:47Z</time>
      </trkpt>
      <trkpt lat="44.9016" lon="4.95993">
        <ele>146.95100402832</ele>
        <time>2010-01-23T14:00:50Z</time>
      </trkpt>
      <trkpt lat="44.9013" lon="4.95998">
        <ele>147.07000732422</ele>
        <time>2010-01-23T14:00:55Z</time>
      </trkpt>
      <trkpt lat="44.90112" lon="4.96">
        <ele>146.68800354004</ele>
        <time>2010-01-23T14:00:59Z</time>
      </trkpt>
      <trkpt lat="44.901" lon="4.96002">
        <ele>146.40800476074</ele>
        <time>2010-01-23T14:01:04Z</time>
      </trkpt>
      <trkpt lat="44.90097" lon="4.96002">
        <ele>146.32800292969</ele>
        <time>2010-01-23T14:01:07Z</time>
      </trkpt>
      <trkpt lat="44.90095" lon="4.96003">
        <ele>146.48699951172</ele>
        <time>2010-01-23T14:01:13Z</time>
      </trkpt>
      <trkpt lat="44.90086" lon="4.96053">
        <ele>146.95500183106</ele>
        <time>2010-01-23T14:01:20Z</time>
      </trkpt>
      <trkpt lat="44.90082" lon="4.96097">
        <ele>147.42599487305</ele>
        <time>2010-01-23T14:01:26Z</time>
      </trkpt>
      <trkpt lat="44.90079" lon="4.96135">
        <ele>147.38499450684</ele>
        <time>2010-01-23T14:01:32Z</time>
      </trkpt>
      <trkpt lat="44.90075" lon="4.96196">
        <ele>147.9880065918</ele>
        <time>2010-01-23T14:01:41Z</time>
      </trkpt>
      <trkpt lat="44.9007" lon="4.96249">
        <ele>148.3390045166</ele>
        <time>2010-01-23T14:01:48Z</time>
      </trkpt>
      <trkpt lat="44.90067" lon="4.96295">
        <ele>148.54299926758</ele>
        <time>2010-01-23T14:01:53Z</time>
      </trkpt>
      <trkpt lat="44.90062" lon="4.96362">
        <ele>149.06500244141</ele>
        <time>2010-01-23T14:02:00Z</time>
      </trkpt>
      <trkpt lat="44.90055" lon="4.9642">
        <ele>149.55900573731</ele>
        <time>2010-01-23T14:02:07Z</time>
      </trkpt>
      <trkpt lat="44.90042" lon="4.96494">
        <ele>150.30999755859</ele>
        <time>2010-01-23T14:02:16Z</time>
      </trkpt>
      <trkpt lat="44.90031" lon="4.96556">
        <ele>151.18400573731</ele>
        <time>2010-01-23T14:02:26Z</time>
      </trkpt>
      <trkpt lat="44.90017" lon="4.96647">
        <ele>152.51699829102</ele>
        <time>2010-01-23T14:02:34Z</time>
      </trkpt>
      <trkpt lat="44.90004" lon="4.96722">
        <ele>152.04200744629</ele>
        <time>2010-01-23T14:02:43Z</time>
      </trkpt>
      <trkpt lat="44.89994" lon="4.96789">
        <ele>152.92999267578</ele>
        <time>2010-01-23T14:02:51Z</time>
      </trkpt>
      <trkpt lat="44.89984" lon="4.96866">
        <ele>154.72999572754</ele>
        <time>2010-01-23T14:03:00Z</time>
      </trkpt>
      <trkpt lat="44.89984" lon="4.96902">
        <ele>155.06199645996</ele>
        <time>2010-01-23T14:03:04Z</time>
      </trkpt>
      <trkpt lat="44.89985" lon="4.96956">
        <ele>154.20700073242</ele>
        <time>2010-01-23T14:03:10Z</time>
      </trkpt>
      <trkpt lat="44.8999" lon="4.97047">
        <ele>155.37899780273</ele>
        <time>2010-01-23T14:03:20Z</time>
      </trkpt>
      <trkpt lat="44.89992" lon="4.97088">
        <ele>155.81199645996</ele>
        <time>2010-01-23T14:03:28Z</time>
      </trkpt>
      <trkpt lat="44.8998" lon="4.97174">
        <ele>156.85099792481</ele>
        <time>2010-01-23T14:03:34Z</time>
      </trkpt>
      <trkpt lat="44.89962" lon="4.97254">
        <ele>157.75900268555</ele>
        <time>2010-01-23T14:03:43Z</time>
      </trkpt>
      <trkpt lat="44.89941" lon="4.97323">
        <ele>158.60400390625</ele>
        <time>2010-01-23T14:03:51Z</time>
      </trkpt>
      <trkpt lat="44.89915" lon="4.97396">
        <ele>158.16400146484</ele>
        <time>2010-01-23T14:04:00Z</time>
      </trkpt>
      <trkpt lat="44.89887" lon="4.97471">
        <ele>158.99000549316</ele>
        <time>2010-01-23T14:04:09Z</time>
      </trkpt>
      <trkpt lat="44.89875" lon="4.97514">
        <ele>159.5</ele>
        <time>2010-01-23T14:04:14Z</time>
      </trkpt>
      <trkpt lat="44.89874" lon="4.97574">
        <ele>160.62600708008</ele>
        <time>2010-01-23T14:04:20Z</time>
      </trkpt>
      <trkpt lat="44.89877" lon="4.97667">
        <ele>161.9940032959</ele>
        <time>2010-01-23T14:04:29Z</time>
      </trkpt>
      <trkpt lat="44.89877" lon="4.97678">
        <ele>162.12399291992</ele>
        <time>2010-01-23T14:04:30Z</time>
      </trkpt>
      <trkpt lat="44.8988" lon="4.97759">
        <ele>161.85400390625</ele>
        <time>2010-01-23T14:04:38Z</time>
      </trkpt>
      <trkpt lat="44.89885" lon="4.97873">
        <ele>162.88999938965</ele>
        <time>2010-01-23T14:04:49Z</time>
      </trkpt>
      <trkpt lat="44.89888" lon="4.97966">
        <ele>163.94200134277</ele>
        <time>2010-01-23T14:04:58Z</time>
      </trkpt>
      <trkpt lat="44.89887" lon="4.98049">
        <ele>164.65299987793</ele>
        <time>2010-01-23T14:05:06Z</time>
      </trkpt>
      <trkpt lat="44.8988" lon="4.98153">
        <ele>166.30900573731</ele>
        <time>2010-01-23T14:05:16Z</time>
      </trkpt>
      <trkpt lat="44.89877" lon="4.98174">
        <ele>166.17799377441</ele>
        <time>2010-01-23T14:05:18Z</time>
      </trkpt>
      <trkpt lat="44.89862" lon="4.98233">
        <ele>167.70700073242</ele>
        <time>2010-01-23T14:05:24Z</time>
      </trkpt>
      <trkpt lat="44.89856" lon="4.98251">
        <ele>167.40699768066</ele>
        <time>2010-01-23T14:05:26Z</time>
      </trkpt>
      <trkpt lat="44.89842" lon="4.98305">
        <ele>167.67100524902</ele>
        <time>2010-01-23T14:05:32Z</time>
      </trkpt>
      <trkpt lat="44.89843" lon="4.98324">
        <ele>167.66999816894</ele>
        <time>2010-01-23T14:05:34Z</time>
      </trkpt>
      <trkpt lat="44.8986" lon="4.98419">
        <ele>168.19000244141</ele>
        <time>2010-01-23T14:05:44Z</time>
      </trkpt>
      <trkpt lat="44.89882" lon="4.98518">
        <ele>168.68800354004</ele>
        <time>2010-01-23T14:05:54Z</time>
      </trkpt>
      <trkpt lat="44.89903" lon="4.98618">
        <ele>170.62699890137</ele>
        <time>2010-01-23T14:06:04Z</time>
      </trkpt>
      <trkpt lat="44.8992" lon="4.98706">
        <ele>171.83599853516</ele>
        <time>2010-01-23T14:06:13Z</time>
      </trkpt>
      <trkpt lat="44.89923" lon="4.98778">
        <ele>171.63400268555</ele>
        <time>2010-01-23T14:06:20Z</time>
      </trkpt>
      <trkpt lat="44.89917" lon="4.98843">
        <ele>172.5</ele>
        <time>2010-01-23T14:06:27Z</time>
      </trkpt>
      <trkpt lat="44.89906" lon="4.98925">
        <ele>173.65100097656</ele>
        <time>2010-01-23T14:06:36Z</time>
      </trkpt>
      <trkpt lat="44.89893" lon="4.99009">
        <ele>174.87199401856</ele>
        <time>2010-01-23T14:06:45Z</time>
      </trkpt>
      <trkpt lat="44.89878" lon="4.99074">
        <ele>176.33500671387</ele>
        <time>2010-01-23T14:06:52Z</time>
      </trkpt>
      <trkpt lat="44.89856" lon="4.99172">
        <ele>177.17599487305</ele>
        <time>2010-01-23T14:07:03Z</time>
      </trkpt>
      <trkpt lat="44.89846" lon="4.99236">
        <ele>177.92100524902</ele>
        <time>2010-01-23T14:07:10Z</time>
      </trkpt>
      <trkpt lat="44.89855" lon="4.99279">
        <ele>178.19299316406</ele>
        <time>2010-01-23T14:07:15Z</time>
      </trkpt>
      <trkpt lat="44.89872" lon="4.99351">
        <ele>179.45300292969</ele>
        <time>2010-01-23T14:07:23Z</time>
      </trkpt>
      <trkpt lat="44.89892" lon="4.99434">
        <ele>180.56900024414</ele>
        <time>2010-01-23T14:07:32Z</time>
      </trkpt>
      <trkpt lat="44.89917" lon="4.99533">
        <ele>181.71200561523</ele>
        <time>2010-01-23T14:07:43Z</time>
      </trkpt>
      <trkpt lat="44.89944" lon="4.99635">
        <ele>183.32200622559</ele>
        <time>2010-01-23T14:07:54Z</time>
      </trkpt>
      <trkpt lat="44.89965" lon="4.99708">
        <ele>183.55900573731</ele>
        <time>2010-01-23T14:08:02Z</time>
      </trkpt>
      <trkpt lat="44.89986" lon="4.99786">
        <ele>183.71200561523</ele>
        <time>2010-01-23T14:08:10Z</time>
      </trkpt>
      <trkpt lat="44.90007" lon="4.99867">
        <ele>183.57400512695</ele>
        <time>2010-01-23T14:08:18Z</time>
      </trkpt>
      <trkpt lat="44.90019" lon="4.99945">
        <ele>183.95199584961</ele>
        <time>2010-01-23T14:08:25Z</time>
      </trkpt>
      <trkpt lat="44.90024" lon="5.00037">
        <ele>183.97500610352</ele>
        <time>2010-01-23T14:08:33Z</time>
      </trkpt>
      <trkpt lat="44.90025" lon="5.00113">
        <ele>183.90100097656</ele>
        <time>2010-01-23T14:08:40Z</time>
      </trkpt>
      <trkpt lat="44.90026" lon="5.00174">
        <ele>184.54600524902</ele>
        <time>2010-01-23T14:08:46Z</time>
      </trkpt>
      <trkpt lat="44.90026" lon="5.00283">
        <ele>184.04499816894</ele>
        <time>2010-01-23T14:08:56Z</time>
      </trkpt>
      <trkpt lat="44.90026" lon="5.00344">
        <ele>184.61999511719</ele>
        <time>2010-01-23T14:09:02Z</time>
      </trkpt>
      <trkpt lat="44.90026" lon="5.00372">
        <ele>185.875</ele>
        <time>2010-01-23T14:09:08Z</time>
      </trkpt>
      <trkpt lat="44.90034" lon="5.00456">
        <ele>188.15100097656</ele>
        <time>2010-01-23T14:09:14Z</time>
      </trkpt>
      <trkpt lat="44.90049" lon="5.00498">
        <ele>189.50500488281</ele>
        <time>2010-01-23T14:09:20Z</time>
      </trkpt>
      <trkpt lat="44.90069" lon="5.00537">
        <ele>191.62100219727</ele>
        <time>2010-01-23T14:09:26Z</time>
      </trkpt>
      <trkpt lat="44.90077" lon="5.00547">
        <ele>192.31100463867</ele>
        <time>2010-01-23T14:09:28Z</time>
      </trkpt>
      <trkpt lat="44.901" lon="5.0057">
        <ele>193.30799865723</ele>
        <time>2010-01-23T14:09:33Z</time>
      </trkpt>
      <trkpt lat="44.90132" lon="5.00592">
        <ele>194.24499511719</ele>
        <time>2010-01-23T14:09:39Z</time>
      </trkpt>
      <trkpt lat="44.90171" lon="5.00606">
        <ele>194.80200195312</ele>
        <time>2010-01-23T14:09:46Z</time>
      </trkpt>
      <trkpt lat="44.90189" lon="5.00614">
        <ele>195.28500366211</ele>
        <time>2010-01-23T14:09:49Z</time>
      </trkpt>
      <trkpt lat="44.90218" lon="5.00646">
        <ele>196.26800537109</ele>
        <time>2010-01-23T14:09:55Z</time>
      </trkpt>
      <trkpt lat="44.90227" lon="5.0066">
        <ele>197.48199462891</ele>
        <time>2010-01-23T14:09:57Z</time>
      </trkpt>
      <trkpt lat="44.90246" lon="5.00707">
        <ele>197.29600524902</ele>
        <time>2010-01-23T14:10:03Z</time>
      </trkpt>
      <trkpt lat="44.90256" lon="5.00768">
        <ele>198.71200561523</ele>
        <time>2010-01-23T14:10:10Z</time>
      </trkpt>
      <trkpt lat="44.90257" lon="5.00776">
        <ele>198.52400207519</ele>
        <time>2010-01-23T14:10:11Z</time>
      </trkpt>
      <trkpt lat="44.90263" lon="5.00797">
        <ele>198.37800598144</ele>
        <time>2010-01-23T14:10:15Z</time>
      </trkpt>
      <trkpt lat="44.90267" lon="5.00805">
        <ele>199.03700256348</ele>
        <time>2010-01-23T14:10:20Z</time>
      </trkpt>
      <trkpt lat="44.90258" lon="5.00844">
        <ele>199.14999389648</ele>
        <time>2010-01-23T14:10:24Z</time>
      </trkpt>
      <trkpt lat="44.90265" lon="5.00885">
        <ele>199.61000061035</ele>
        <time>2010-01-23T14:10:29Z</time>
      </trkpt>
      <trkpt lat="44.90246" lon="5.00931">
        <ele>200.12699890137</ele>
        <time>2010-01-23T14:10:36Z</time>
      </trkpt>
      <trkpt lat="44.90225" lon="5.00994">
        <ele>200.47900390625</ele>
        <time>2010-01-23T14:10:45Z</time>
      </trkpt>
      <trkpt lat="44.9022" lon="5.01009">
        <ele>201.21200561523</ele>
        <time>2010-01-23T14:10:47Z</time>
      </trkpt>
      <trkpt lat="44.90202" lon="5.01075">
        <ele>201.18400573731</ele>
        <time>2010-01-23T14:10:58Z</time>
      </trkpt>
      <trkpt lat="44.90179" lon="5.01148">
        <ele>201.72200012207</ele>
        <time>2010-01-23T14:11:06Z</time>
      </trkpt>
      <trkpt lat="44.90162" lon="5.01199">
        <ele>202.49299621582</ele>
        <time>2010-01-23T14:11:14Z</time>
      </trkpt>
      <trkpt lat="44.90155" lon="5.01221">
        <ele>202.44099426269</ele>
        <time>2010-01-23T14:11:21Z</time>
      </trkpt>
      <trkpt lat="44.90134" lon="5.01293">
        <ele>203.08099365234</ele>
        <time>2010-01-23T14:11:27Z</time>
      </trkpt>
      <trkpt lat="44.90129" lon="5.01307">
        <ele>203.39700317383</ele>
        <time>2010-01-23T14:11:29Z</time>
      </trkpt>
      <trkpt lat="44.90125" lon="5.01382">
        <ele>204.20899963379</ele>
        <time>2010-01-23T14:11:38Z</time>
      </trkpt>
      <trkpt lat="44.90122" lon="5.01463">
        <ele>205.59100341797</ele>
        <time>2010-01-23T14:11:48Z</time>
      </trkpt>
      <trkpt lat="44.90117" lon="5.01517">
        <ele>205.71899414062</ele>
        <time>2010-01-23T14:11:55Z</time>
      </trkpt>
      <trkpt lat="44.90109" lon="5.01595">
        <ele>206.93400573731</ele>
        <time>2010-01-23T14:12:05Z</time>
      </trkpt>
      <trkpt lat="44.901" lon="5.01652">
        <ele>207.83599853516</ele>
        <time>2010-01-23T14:12:12Z</time>
      </trkpt>
      <trkpt lat="44.90074" lon="5.01718">
        <ele>208.7859954834</ele>
        <time>2010-01-23T14:12:21Z</time>
      </trkpt>
      <trkpt lat="44.90055" lon="5.01764">
        <ele>209.26699829102</ele>
        <time>2010-01-23T14:12:28Z</time>
      </trkpt>
      <trkpt lat="44.90052" lon="5.0177">
        <ele>209.17100524902</ele>
        <time>2010-01-23T14:12:29Z</time>
      </trkpt>
      <trkpt lat="44.90042" lon="5.01793">
        <ele>209.42100524902</ele>
        <time>2010-01-23T14:12:33Z</time>
      </trkpt>
      <trkpt lat="44.90035" lon="5.01809">
        <ele>210.13499450684</ele>
        <time>2010-01-23T14:12:37Z</time>
      </trkpt>
      <trkpt lat="44.9002" lon="5.01815">
        <ele>210.01600646973</ele>
        <time>2010-01-23T14:12:39Z</time>
      </trkpt>
      <trkpt lat="44.90004" lon="5.0183">
        <ele>210.05000305176</ele>
        <time>2010-01-23T14:12:43Z</time>
      </trkpt>
      <trkpt lat="44.89996" lon="5.01878">
        <ele>210.5950012207</ele>
        <time>2010-01-23T14:12:51Z</time>
      </trkpt>
      <trkpt lat="44.89996" lon="5.01878">
        <ele>209.98699951172</ele>
        <time>2010-01-23T14:12:56Z</time>
      </trkpt>
      <trkpt lat="44.89986" lon="5.01917">
        <ele>209.79100036621</ele>
        <time>2010-01-23T14:12:57Z</time>
      </trkpt>
      <trkpt lat="44.8997" lon="5.01929">
        <ele>209.21499633789</ele>
        <time>2010-01-23T14:13:01Z</time>
      </trkpt>
      <trkpt lat="44.8996" lon="5.01929">
        <ele>209.32400512695</ele>
        <time>2010-01-23T14:13:03Z</time>
      </trkpt>
      <trkpt lat="44.89958" lon="5.01929">
        <ele>208.85800170898</ele>
        <time>2010-01-23T14:13:07Z</time>
      </trkpt>
      <trkpt lat="44.89923" lon="5.01925">
        <ele>208.31700134277</ele>
        <time>2010-01-23T14:13:13Z</time>
      </trkpt>
      <trkpt lat="44.89897" lon="5.01927">
        <ele>208.30700683594</ele>
        <time>2010-01-23T14:13:15Z</time>
      </trkpt>
      <trkpt lat="44.89868" lon="5.01934">
        <ele>207.61599731445</ele>
        <time>2010-01-23T14:13:22Z</time>
      </trkpt>
      <trkpt lat="44.89868" lon="5.01934">
        <ele>207.0950012207</ele>
        <time>2010-01-23T14:13:25Z</time>
      </trkpt>
      <trkpt lat="44.89849" lon="5.01947">
        <ele>207.31700134277</ele>
        <time>2010-01-23T14:13:29Z</time>
      </trkpt>
      <trkpt lat="44.89846" lon="5.01964">
        <ele>208.03799438477</ele>
        <time>2010-01-23T14:13:32Z</time>
      </trkpt>
      <trkpt lat="44.89827" lon="5.01989">
        <ele>207.20799255371</ele>
        <time>2010-01-23T14:13:37Z</time>
      </trkpt>
      <trkpt lat="44.89802" lon="5.02021">
        <ele>207.43200683594</ele>
        <time>2010-01-23T14:13:42Z</time>
      </trkpt>
      <trkpt lat="44.89782" lon="5.02048">
        <ele>206.80499267578</ele>
        <time>2010-01-23T14:13:46Z</time>
      </trkpt>
      <trkpt lat="44.89758" lon="5.02079">
        <ele>206.61599731445</ele>
        <time>2010-01-23T14:13:51Z</time>
      </trkpt>
      <trkpt lat="44.89746" lon="5.02108">
        <ele>206.29899597168</ele>
        <time>2010-01-23T14:13:55Z</time>
      </trkpt>
      <trkpt lat="44.89744" lon="5.02139">
        <ele>205.78999328613</ele>
        <time>2010-01-23T14:13:59Z</time>
      </trkpt>
      <trkpt lat="44.8973" lon="5.02145">
        <ele>205.57600402832</ele>
        <time>2010-01-23T14:14:03Z</time>
      </trkpt>
      <trkpt lat="44.89697" lon="5.02135">
        <ele>205.87800598144</ele>
        <time>2010-01-23T14:14:09Z</time>
      </trkpt>
      <trkpt lat="44.89674" lon="5.02139">
        <ele>205.12300109863</ele>
        <time>2010-01-23T14:14:13Z</time>
      </trkpt>
      <trkpt lat="44.89669" lon="5.02144">
        <ele>205.43699645996</ele>
        <time>2010-01-23T14:14:14Z</time>
      </trkpt>
      <trkpt lat="44.89652" lon="5.02161">
        <ele>205.17399597168</ele>
        <time>2010-01-23T14:14:18Z</time>
      </trkpt>
      <trkpt lat="44.8965" lon="5.02169">
        <ele>205.1190032959</ele>
        <time>2010-01-23T14:14:19Z</time>
      </trkpt>
      <trkpt lat="44.89642" lon="5.02234">
        <ele>204.66900634766</ele>
        <time>2010-01-23T14:14:27Z</time>
      </trkpt>
      <trkpt lat="44.89643" lon="5.0225">
        <ele>204.85200500488</ele>
        <time>2010-01-23T14:14:29Z</time>
      </trkpt>
      <trkpt lat="44.89645" lon="5.02281">
        <ele>204.84300231934</ele>
        <time>2010-01-23T14:14:33Z</time>
      </trkpt>
      <trkpt lat="44.89649" lon="5.0229">
        <ele>205.15600585938</ele>
        <time>2010-01-23T14:14:35Z</time>
      </trkpt>
      <trkpt lat="44.89663" lon="5.02325">
        <ele>205.125</ele>
        <time>2010-01-23T14:14:39Z</time>
      </trkpt>
      <trkpt lat="44.89668" lon="5.0239">
        <ele>205.43800354004</ele>
        <time>2010-01-23T14:14:47Z</time>
      </trkpt>
      <trkpt lat="44.8967" lon="5.02414">
        <ele>205.68499755859</ele>
        <time>2010-01-23T14:14:51Z</time>
      </trkpt>
      <trkpt lat="44.8967" lon="5.02419">
        <ele>206.13200378418</ele>
        <time>2010-01-23T14:14:52Z</time>
      </trkpt>
      <trkpt lat="44.8965" lon="5.02433">
        <ele>205.85299682617</ele>
        <time>2010-01-23T14:14:57Z</time>
      </trkpt>
      <trkpt lat="44.89619" lon="5.02449">
        <ele>206.07499694824</ele>
        <time>2010-01-23T14:15:03Z</time>
      </trkpt>
      <trkpt lat="44.89585" lon="5.02466">
        <ele>205.5359954834</ele>
        <time>2010-01-23T14:15:09Z</time>
      </trkpt>
      <trkpt lat="44.8953" lon="5.02495">
        <ele>205.50100708008</ele>
        <time>2010-01-23T14:15:18Z</time>
      </trkpt>
      <trkpt lat="44.89507" lon="5.02517">
        <ele>205.89599609375</ele>
        <time>2010-01-23T14:15:24Z</time>
      </trkpt>
      <trkpt lat="44.89473" lon="5.02564">
        <ele>206.48199462891</ele>
        <time>2010-01-23T14:15:33Z</time>
      </trkpt>
      <trkpt lat="44.89437" lon="5.02611">
        <ele>206.16600036621</ele>
        <time>2010-01-23T14:15:37Z</time>
      </trkpt>
      <trkpt lat="44.89405" lon="5.02623">
        <ele>205.81399536133</ele>
        <time>2010-01-23T14:15:42Z</time>
      </trkpt>
      <trkpt lat="44.89398" lon="5.02623">
        <ele>205.98399353027</ele>
        <time>2010-01-23T14:15:43Z</time>
      </trkpt>
      <trkpt lat="44.8937" lon="5.02626">
        <ele>206.02400207519</ele>
        <time>2010-01-23T14:15:47Z</time>
      </trkpt>
      <trkpt lat="44.89336" lon="5.02637">
        <ele>205.69900512695</ele>
        <time>2010-01-23T14:15:52Z</time>
      </trkpt>
      <trkpt lat="44.89298" lon="5.02672">
        <ele>205.59199523926</ele>
        <time>2010-01-23T14:15:58Z</time>
      </trkpt>
      <trkpt lat="44.89269" lon="5.02699">
        <ele>205.69200134277</ele>
        <time>2010-01-23T14:16:03Z</time>
      </trkpt>
      <trkpt lat="44.89235" lon="5.0273">
        <ele>205.84300231934</ele>
        <time>2010-01-23T14:16:10Z</time>
      </trkpt>
      <trkpt lat="44.8919" lon="5.02771">
        <ele>206.24800109863</ele>
        <time>2010-01-23T14:16:19Z</time>
      </trkpt>
      <trkpt lat="44.89149" lon="5.02808">
        <ele>206.55799865723</ele>
        <time>2010-01-23T14:16:28Z</time>
      </trkpt>
      <trkpt lat="44.89135" lon="5.02821">
        <ele>207.17799377441</ele>
        <time>2010-01-23T14:16:31Z</time>
      </trkpt>
      <trkpt lat="44.89112" lon="5.02852">
        <ele>207.77600097656</ele>
        <time>2010-01-23T14:16:38Z</time>
      </trkpt>
      <trkpt lat="44.89085" lon="5.02902">
        <ele>208.74800109863</ele>
        <time>2010-01-23T14:16:45Z</time>
      </trkpt>
      <trkpt lat="44.89053" lon="5.02945">
        <ele>209.72500610352</ele>
        <time>2010-01-23T14:16:53Z</time>
      </trkpt>
      <trkpt lat="44.89035" lon="5.02968">
        <ele>210.58599853516</ele>
        <time>2010-01-23T14:16:59Z</time>
      </trkpt>
      <trkpt lat="44.8899" lon="5.03018">
        <ele>211.72099304199</ele>
        <time>2010-01-23T14:17:08Z</time>
      </trkpt>
      <trkpt lat="44.88956" lon="5.03055">
        <ele>212.97300720215</ele>
        <time>2010-01-23T14:17:16Z</time>
      </trkpt>
      <trkpt lat="44.88925" lon="5.03068">
        <ele>213.68600463867</ele>
        <time>2010-01-23T14:17:22Z</time>
      </trkpt>
      <trkpt lat="44.88898" lon="5.0308">
        <ele>213.74299621582</ele>
        <time>2010-01-23T14:17:27Z</time>
      </trkpt>
      <trkpt lat="44.88885" lon="5.03092">
        <ele>213.46200561523</ele>
        <time>2010-01-23T14:17:31Z</time>
      </trkpt>
      <trkpt lat="44.88856" lon="5.03135">
        <ele>212.93200683594</ele>
        <time>2010-01-23T14:17:37Z</time>
      </trkpt>
      <trkpt lat="44.88836" lon="5.03176">
        <ele>212.21099853516</ele>
        <time>2010-01-23T14:17:43Z</time>
      </trkpt>
      <trkpt lat="44.88823" lon="5.03215">
        <ele>212.20799255371</ele>
        <time>2010-01-23T14:17:48Z</time>
      </trkpt>
      <trkpt lat="44.88818" lon="5.0324">
        <ele>212.52000427246</ele>
        <time>2010-01-23T14:17:51Z</time>
      </trkpt>
      <trkpt lat="44.88812" lon="5.03264">
        <ele>212.96099853516</ele>
        <time>2010-01-23T14:17:56Z</time>
      </trkpt>
      <trkpt lat="44.8876" lon="5.03314">
        <ele>212.98300170898</ele>
        <time>2010-01-23T14:18:04Z</time>
      </trkpt>
      <trkpt lat="44.8873" lon="5.03319">
        <ele>213.25700378418</ele>
        <time>2010-01-23T14:18:09Z</time>
      </trkpt>
      <trkpt lat="44.88683" lon="5.03313">
        <ele>214.75799560547</ele>
        <time>2010-01-23T14:18:17Z</time>
      </trkpt>
      <trkpt lat="44.88638" lon="5.03308">
        <ele>216.97099304199</ele>
        <time>2010-01-23T14:18:26Z</time>
      </trkpt>
      <trkpt lat="44.88628" lon="5.03307">
        <ele>217.55400085449</ele>
        <time>2010-01-23T14:18:28Z</time>
      </trkpt>
      <trkpt lat="44.88615" lon="5.03313">
        <ele>218.52900695801</ele>
        <time>2010-01-23T14:18:31Z</time>
      </trkpt>
      <trkpt lat="44.88611" lon="5.03316">
        <ele>218.69500732422</ele>
        <time>2010-01-23T14:18:32Z</time>
      </trkpt>
      <trkpt lat="44.88604" lon="5.03323">
        <ele>219.23199462891</ele>
        <time>2010-01-23T14:18:34Z</time>
      </trkpt>
      <trkpt lat="44.88592" lon="5.03337">
        <ele>220.18800354004</ele>
        <time>2010-01-23T14:18:37Z</time>
      </trkpt>
      <trkpt lat="44.88568" lon="5.03381">
        <ele>221.76400756836</ele>
        <time>2010-01-23T14:18:45Z</time>
      </trkpt>
      <trkpt lat="44.88563" lon="5.03394">
        <ele>221.94500732422</ele>
        <time>2010-01-23T14:18:47Z</time>
      </trkpt>
      <trkpt lat="44.88537" lon="5.03452">
        <ele>222.20300292969</ele>
        <time>2010-01-23T14:18:56Z</time>
      </trkpt>
      <trkpt lat="44.88515" lon="5.03495">
        <ele>221.46200561523</ele>
        <time>2010-01-23T14:19:02Z</time>
      </trkpt>
      <trkpt lat="44.88485" lon="5.03517">
        <ele>221.86799621582</ele>
        <time>2010-01-23T14:19:07Z</time>
      </trkpt>
      <trkpt lat="44.8844" lon="5.03546">
        <ele>221.08999633789</ele>
        <time>2010-01-23T14:19:14Z</time>
      </trkpt>
      <trkpt lat="44.8843" lon="5.03562">
        <ele>221.61399841309</ele>
        <time>2010-01-23T14:19:16Z</time>
      </trkpt>
      <trkpt lat="44.88416" lon="5.03584">
        <ele>221.15199279785</ele>
        <time>2010-01-23T14:19:19Z</time>
      </trkpt>
      <trkpt lat="44.88391" lon="5.0362">
        <ele>220.94799804688</ele>
        <time>2010-01-23T14:19:24Z</time>
      </trkpt>
      <trkpt lat="44.88384" lon="5.03622">
        <ele>220.52299499512</ele>
        <time>2010-01-23T14:19:25Z</time>
      </trkpt>
      <trkpt lat="44.8834" lon="5.03635">
        <ele>221.53999328613</ele>
        <time>2010-01-23T14:19:32Z</time>
      </trkpt>
      <trkpt lat="44.88273" lon="5.03655">
        <ele>221.62800598144</ele>
        <time>2010-01-23T14:19:43Z</time>
      </trkpt>
      <trkpt lat="44.88212" lon="5.03673">
        <ele>221.38299560547</ele>
        <time>2010-01-23T14:19:53Z</time>
      </trkpt>
      <trkpt lat="44.88164" lon="5.03688">
        <ele>222.22799682617</ele>
        <time>2010-01-23T14:20:01Z</time>
      </trkpt>
      <trkpt lat="44.88095" lon="5.0371">
        <ele>223.25900268555</ele>
        <time>2010-01-23T14:20:12Z</time>
      </trkpt>
      <trkpt lat="44.88033" lon="5.03729">
        <ele>223.6130065918</ele>
        <time>2010-01-23T14:20:22Z</time>
      </trkpt>
      <trkpt lat="44.88004" lon="5.03738">
        <ele>224.52900695801</ele>
        <time>2010-01-23T14:20:27Z</time>
      </trkpt>
      <trkpt lat="44.87976" lon="5.03754">
        <ele>224.27900695801</ele>
        <time>2010-01-23T14:20:32Z</time>
      </trkpt>
      <trkpt lat="44.87971" lon="5.03757">
        <ele>224.63200378418</ele>
        <time>2010-01-23T14:20:33Z</time>
      </trkpt>
      <trkpt lat="44.87941" lon="5.03815">
        <ele>226.37399291992</ele>
        <time>2010-01-23T14:20:42Z</time>
      </trkpt>
      <trkpt lat="44.87918" lon="5.03863">
        <ele>228.625</ele>
        <time>2010-01-23T14:20:50Z</time>
      </trkpt>
      <trkpt lat="44.87902" lon="5.03905">
        <ele>228.42199707031</ele>
        <time>2010-01-23T14:20:56Z</time>
      </trkpt>
      <trkpt lat="44.87883" lon="5.03941">
        <ele>227.22500610352</ele>
        <time>2010-01-23T14:21:01Z</time>
      </trkpt>
      <trkpt lat="44.87862" lon="5.03974">
        <ele>226.35600280762</ele>
        <time>2010-01-23T14:21:06Z</time>
      </trkpt>
      <trkpt lat="44.87834" lon="5.04001">
        <ele>224.78999328613</ele>
        <time>2010-01-23T14:21:11Z</time>
      </trkpt>
      <trkpt lat="44.87785" lon="5.04022">
        <ele>223.85200500488</ele>
        <time>2010-01-23T14:21:18Z</time>
      </trkpt>
      <trkpt lat="44.87731" lon="5.04044">
        <ele>225.14900207519</ele>
        <time>2010-01-23T14:21:26Z</time>
      </trkpt>
      <trkpt lat="44.87701" lon="5.04059">
        <ele>226.35499572754</ele>
        <time>2010-01-23T14:21:32Z</time>
      </trkpt>
      <trkpt lat="44.87676" lon="5.04071">
        <ele>228.88000488281</ele>
        <time>2010-01-23T14:21:38Z</time>
      </trkpt>
      <trkpt lat="44.87649" lon="5.04084">
        <ele>231.28100585938</ele>
        <time>2010-01-23T14:21:45Z</time>
      </trkpt>
      <trkpt lat="44.87627" lon="5.04099">
        <ele>233.83599853516</ele>
        <time>2010-01-23T14:21:51Z</time>
      </trkpt>
      <trkpt lat="44.87624" lon="5.04102">
        <ele>234.10699462891</ele>
        <time>2010-01-23T14:21:52Z</time>
      </trkpt>
      <trkpt lat="44.8761" lon="5.04113">
        <ele>235.92999267578</ele>
        <time>2010-01-23T14:21:56Z</time>
      </trkpt>
      <trkpt lat="44.8759" lon="5.04132">
        <ele>237.54699707031</ele>
        <time>2010-01-23T14:22:03Z</time>
      </trkpt>
      <trkpt lat="44.87571" lon="5.0416">
        <ele>239.8390045166</ele>
        <time>2010-01-23T14:22:11Z</time>
      </trkpt>
      <trkpt lat="44.87556" lon="5.04182">
        <ele>241.67399597168</ele>
        <time>2010-01-23T14:22:17Z</time>
      </trkpt>
      <trkpt lat="44.87537" lon="5.04202">
        <ele>243.98399353027</ele>
        <time>2010-01-23T14:22:24Z</time>
      </trkpt>
      <trkpt lat="44.87511" lon="5.04218">
        <ele>245.41700744629</ele>
        <time>2010-01-23T14:22:32Z</time>
      </trkpt>
      <trkpt lat="44.8748" lon="5.04235">
        <ele>247.92100524902</ele>
        <time>2010-01-23T14:22:41Z</time>
      </trkpt>
      <trkpt lat="44.87443" lon="5.04255">
        <ele>249.24099731445</ele>
        <time>2010-01-23T14:22:51Z</time>
      </trkpt>
      <trkpt lat="44.87404" lon="5.04288">
        <ele>251.04600524902</ele>
        <time>2010-01-23T14:23:02Z</time>
      </trkpt>
      <trkpt lat="44.87375" lon="5.04312">
        <ele>252.74899291992</ele>
        <time>2010-01-23T14:23:10Z</time>
      </trkpt>
      <trkpt lat="44.87329" lon="5.04344">
        <ele>254.59899902344</ele>
        <time>2010-01-23T14:23:21Z</time>
      </trkpt>
      <trkpt lat="44.87299" lon="5.04367">
        <ele>255.12100219727</ele>
        <time>2010-01-23T14:23:29Z</time>
      </trkpt>
      <trkpt lat="44.87263" lon="5.04392">
        <ele>255.57499694824</ele>
        <time>2010-01-23T14:23:38Z</time>
      </trkpt>
      <trkpt lat="44.87218" lon="5.04427">
        <ele>257.2919921875</ele>
        <time>2010-01-23T14:23:49Z</time>
      </trkpt>
      <trkpt lat="44.87177" lon="5.04465">
        <ele>258.65200805664</ele>
        <time>2010-01-23T14:23:59Z</time>
      </trkpt>
      <trkpt lat="44.87139" lon="5.04499">
        <ele>259.80200195312</ele>
        <time>2010-01-23T14:24:08Z</time>
      </trkpt>
      <trkpt lat="44.87101" lon="5.04533">
        <ele>262.21798706055</ele>
        <time>2010-01-23T14:24:17Z</time>
      </trkpt>
      <trkpt lat="44.8708" lon="5.04566">
        <ele>263.47100830078</ele>
        <time>2010-01-23T14:24:23Z</time>
      </trkpt>
      <trkpt lat="44.8705" lon="5.04622">
        <ele>263.93200683594</ele>
        <time>2010-01-23T14:24:32Z</time>
      </trkpt>
      <trkpt lat="44.87025" lon="5.04672">
        <ele>265.71099853516</ele>
        <time>2010-01-23T14:24:40Z</time>
      </trkpt>
      <trkpt lat="44.86991" lon="5.04743">
        <ele>270.94500732422</ele>
        <time>2010-01-23T14:24:51Z</time>
      </trkpt>
      <trkpt lat="44.86988" lon="5.04749">
        <ele>272.54000854492</ele>
        <time>2010-01-23T14:24:54Z</time>
      </trkpt>
      <trkpt lat="44.86962" lon="5.04801">
        <ele>274.56399536133</ele>
        <time>2010-01-23T14:25:00Z</time>
      </trkpt>
      <trkpt lat="44.86937" lon="5.04851">
        <ele>277.53399658203</ele>
        <time>2010-01-23T14:25:08Z</time>
      </trkpt>
      <trkpt lat="44.86932" lon="5.04871">
        <ele>278.97100830078</ele>
        <time>2010-01-23T14:25:11Z</time>
      </trkpt>
      <trkpt lat="44.86939" lon="5.04891">
        <ele>280.38000488281</ele>
        <time>2010-01-23T14:25:15Z</time>
      </trkpt>
      <trkpt lat="44.86942" lon="5.04896">
        <ele>280.81799316406</ele>
        <time>2010-01-23T14:25:16Z</time>
      </trkpt>
      <trkpt lat="44.86945" lon="5.04935">
        <ele>282.76000976562</ele>
        <time>2010-01-23T14:25:22Z</time>
      </trkpt>
      <trkpt lat="44.86945" lon="5.04952">
        <ele>282.69299316406</ele>
        <time>2010-01-23T14:25:25Z</time>
      </trkpt>
      <trkpt lat="44.86954" lon="5.04996">
        <ele>283.21899414062</ele>
        <time>2010-01-23T14:25:33Z</time>
      </trkpt>
      <trkpt lat="44.8696" lon="5.05023">
        <ele>284.17599487305</ele>
        <time>2010-01-23T14:25:39Z</time>
      </trkpt>
      <trkpt lat="44.86961" lon="5.05026">
        <ele>284.37701416016</ele>
        <time>2010-01-23T14:25:40Z</time>
      </trkpt>
      <trkpt lat="44.86953" lon="5.05034">
        <ele>285.29998779297</ele>
        <time>2010-01-23T14:25:44Z</time>
      </trkpt>
      <trkpt lat="44.8695" lon="5.05034">
        <ele>285.51501464844</ele>
        <time>2010-01-23T14:25:46Z</time>
      </trkpt>
      <trkpt lat="44.86963" lon="5.05039">
        <ele>285.63299560547</ele>
        <time>2010-01-23T14:25:50Z</time>
      </trkpt>
      <trkpt lat="44.86952" lon="5.05034">
        <ele>285.26300048828</ele>
        <time>2010-01-23T14:25:54Z</time>
      </trkpt>
      <trkpt lat="44.8696" lon="5.05032">
        <ele>285.09899902344</ele>
        <time>2010-01-23T14:26:00Z</time>
      </trkpt>
      <trkpt lat="44.86963" lon="5.05032">
        <ele>285.28201293945</ele>
        <time>2010-01-23T14:26:03Z</time>
      </trkpt>
      <trkpt lat="44.86963" lon="5.05034">
        <ele>285.09600830078</ele>
        <time>2010-01-23T14:26:08Z</time>
      </trkpt>
      <trkpt lat="44.86957" lon="5.05033">
        <ele>284.95498657227</ele>
        <time>2010-01-23T14:26:11Z</time>
      </trkpt>
      <trkpt lat="44.86963" lon="5.05032">
        <ele>285.22299194336</ele>
        <time>2010-01-23T14:26:14Z</time>
      </trkpt>
      <trkpt lat="44.86963" lon="5.05032">
        <ele>285.45098876953</ele>
        <time>2010-01-23T14:26:17Z</time>
      </trkpt>
      <trkpt lat="44.86966" lon="5.05074">
        <ele>286.27700805664</ele>
        <time>2010-01-23T14:26:24Z</time>
      </trkpt>
      <trkpt lat="44.8697" lon="5.05114">
        <ele>286.89099121094</ele>
        <time>2010-01-23T14:26:32Z</time>
      </trkpt>
      <trkpt lat="44.86971" lon="5.0512">
        <ele>286.86801147461</ele>
        <time>2010-01-23T14:26:33Z</time>
      </trkpt>
      <trkpt lat="44.86963" lon="5.05149">
        <ele>288.00698852539</ele>
        <time>2010-01-23T14:26:38Z</time>
      </trkpt>
      <trkpt lat="44.86952" lon="5.05165">
        <ele>288.26501464844</ele>
        <time>2010-01-23T14:26:43Z</time>
      </trkpt>
      <trkpt lat="44.86945" lon="5.05177">
        <ele>288.57800292969</ele>
        <time>2010-01-23T14:26:49Z</time>
      </trkpt>
      <trkpt lat="44.86939" lon="5.05186">
        <ele>288.47601318359</ele>
        <time>2010-01-23T14:26:55Z</time>
      </trkpt>
      <trkpt lat="44.86938" lon="5.05187">
        <ele>288.49700927734</ele>
        <time>2010-01-23T14:26:56Z</time>
      </trkpt>
      <trkpt lat="44.86936" lon="5.05189">
        <ele>288.53698730469</ele>
        <time>2010-01-23T14:26:58Z</time>
      </trkpt>
      <trkpt lat="44.86935" lon="5.05191">
        <ele>288.17199707031</ele>
        <time>2010-01-23T14:27:02Z</time>
      </trkpt>
      <trkpt lat="44.86935" lon="5.05191">
        <ele>288.15399169922</ele>
        <time>2010-01-23T14:27:19Z</time>
      </trkpt>
      <trkpt lat="44.86935" lon="5.05191">
        <ele>288.19799804688</ele>
        <time>2010-01-23T14:27:20Z</time>
      </trkpt>
      <trkpt lat="44.86935" lon="5.05191">
        <ele>288.0710144043</ele>
        <time>2010-01-23T14:27:50Z</time>
      </trkpt>
      <trkpt lat="44.86935" lon="5.05191">
        <ele>288.04299926758</ele>
        <time>2010-01-23T14:27:51Z</time>
      </trkpt>
      <trkpt lat="44.86932" lon="5.05195">
        <ele>287.89898681641</ele>
        <time>2010-01-23T14:28:26Z</time>
      </trkpt>
      <trkpt lat="44.86932" lon="5.05195">
        <ele>287.94799804688</ele>
        <time>2010-01-23T14:28:27Z</time>
      </trkpt>
      <trkpt lat="44.86932" lon="5.05195">
        <ele>286.85800170898</ele>
        <time>2010-01-23T14:28:31Z</time>
      </trkpt>
      <trkpt lat="44.86928" lon="5.05238">
        <ele>285.43899536133</ele>
        <time>2010-01-23T14:28:35Z</time>
      </trkpt>
      <trkpt lat="44.86947" lon="5.0527">
        <ele>283.95401000977</ele>
        <time>2010-01-23T14:28:40Z</time>
      </trkpt>
      <trkpt lat="44.86986" lon="5.05321">
        <ele>283.38299560547</ele>
        <time>2010-01-23T14:28:48Z</time>
      </trkpt>
      <trkpt lat="44.87027" lon="5.05372">
        <ele>282.74200439453</ele>
        <time>2010-01-23T14:28:57Z</time>
      </trkpt>
      <trkpt lat="44.87064" lon="5.05411">
        <ele>282.97698974609</ele>
        <time>2010-01-23T14:29:05Z</time>
      </trkpt>
      <trkpt lat="44.87069" lon="5.05415">
        <ele>283.53399658203</ele>
        <time>2010-01-23T14:29:06Z</time>
      </trkpt>
      <trkpt lat="44.87087" lon="5.05431">
        <ele>283.48400878906</ele>
        <time>2010-01-23T14:29:11Z</time>
      </trkpt>
      <trkpt lat="44.87135" lon="5.05425">
        <ele>282.81100463867</ele>
        <time>2010-01-23T14:29:18Z</time>
      </trkpt>
      <trkpt lat="44.87173" lon="5.05421">
        <ele>281.67199707031</ele>
        <time>2010-01-23T14:29:24Z</time>
      </trkpt>
      <trkpt lat="44.87231" lon="5.05414">
        <ele>279.70001220703</ele>
        <time>2010-01-23T14:29:32Z</time>
      </trkpt>
      <trkpt lat="44.87262" lon="5.05418">
        <ele>278.86700439453</ele>
        <time>2010-01-23T14:29:36Z</time>
      </trkpt>
      <trkpt lat="44.87298" lon="5.05436">
        <ele>278.95098876953</ele>
        <time>2010-01-23T14:29:41Z</time>
      </trkpt>
      <trkpt lat="44.87325" lon="5.05464">
        <ele>279.73599243164</ele>
        <time>2010-01-23T14:29:46Z</time>
      </trkpt>
      <trkpt lat="44.87336" lon="5.05474">
        <ele>282.2619934082</ele>
        <time>2010-01-23T14:29:53Z</time>
      </trkpt>
      <trkpt lat="44.87376" lon="5.05508">
        <ele>284.15701293945</ele>
        <time>2010-01-23T14:29:58Z</time>
      </trkpt>
      <trkpt lat="44.87398" lon="5.0553">
        <ele>286.37100219727</ele>
        <time>2010-01-23T14:30:04Z</time>
      </trkpt>
      <trkpt lat="44.87416" lon="5.05557">
        <ele>287.95401000977</ele>
        <time>2010-01-23T14:30:10Z</time>
      </trkpt>
      <trkpt lat="44.8743" lon="5.05587">
        <ele>290.07000732422</ele>
        <time>2010-01-23T14:30:16Z</time>
      </trkpt>
      <trkpt lat="44.87445" lon="5.05619">
        <ele>292.5119934082</ele>
        <time>2010-01-23T14:30:23Z</time>
      </trkpt>
      <trkpt lat="44.87457" lon="5.05648">
        <ele>295.18701171875</ele>
        <time>2010-01-23T14:30:30Z</time>
      </trkpt>
      <trkpt lat="44.87458" lon="5.05667">
        <ele>296.68099975586</ele>
        <time>2010-01-23T14:30:35Z</time>
      </trkpt>
      <trkpt lat="44.87459" lon="5.05679">
        <ele>297.40100097656</ele>
        <time>2010-01-23T14:30:38Z</time>
      </trkpt>
      <trkpt lat="44.87462" lon="5.05708">
        <ele>299.90200805664</ele>
        <time>2010-01-23T14:30:46Z</time>
      </trkpt>
      <trkpt lat="44.87464" lon="5.0573">
        <ele>301.68099975586</ele>
        <time>2010-01-23T14:30:53Z</time>
      </trkpt>
      <trkpt lat="44.87467" lon="5.05763">
        <ele>304.6969909668</ele>
        <time>2010-01-23T14:31:04Z</time>
      </trkpt>
      <trkpt lat="44.87471" lon="5.05791">
        <ele>307.05200195312</ele>
        <time>2010-01-23T14:31:12Z</time>
      </trkpt>
      <trkpt lat="44.87483" lon="5.05827">
        <ele>309.77600097656</ele>
        <time>2010-01-23T14:31:22Z</time>
      </trkpt>
      <trkpt lat="44.87489" lon="5.0585">
        <ele>311.5710144043</ele>
        <time>2010-01-23T14:31:28Z</time>
      </trkpt>
      <trkpt lat="44.87489" lon="5.05876">
        <ele>313.36898803711</ele>
        <time>2010-01-23T14:31:34Z</time>
      </trkpt>
      <trkpt lat="44.87484" lon="5.05917">
        <ele>316.63400268555</ele>
        <time>2010-01-23T14:31:43Z</time>
      </trkpt>
      <trkpt lat="44.87482" lon="5.05933">
        <ele>318.00900268555</ele>
        <time>2010-01-23T14:31:47Z</time>
      </trkpt>
      <trkpt lat="44.87487" lon="5.05944">
        <ele>320.64801025391</ele>
        <time>2010-01-23T14:31:52Z</time>
      </trkpt>
      <trkpt lat="44.87497" lon="5.05946">
        <ele>321.94299316406</ele>
        <time>2010-01-23T14:31:57Z</time>
      </trkpt>
      <trkpt lat="44.87504" lon="5.05946">
        <ele>323.0119934082</ele>
        <time>2010-01-23T14:32:00Z</time>
      </trkpt>
      <trkpt lat="44.87519" lon="5.05946">
        <ele>324.48999023438</ele>
        <time>2010-01-23T14:32:07Z</time>
      </trkpt>
      <trkpt lat="44.87529" lon="5.05955">
        <ele>325.67599487305</ele>
        <time>2010-01-23T14:32:12Z</time>
      </trkpt>
      <trkpt lat="44.87544" lon="5.05979">
        <ele>327.60198974609</ele>
        <time>2010-01-23T14:32:19Z</time>
      </trkpt>
      <trkpt lat="44.87558" lon="5.06014">
        <ele>330.32000732422</ele>
        <time>2010-01-23T14:32:28Z</time>
      </trkpt>
      <trkpt lat="44.87568" lon="5.06041">
        <ele>332.10998535156</ele>
        <time>2010-01-23T14:32:35Z</time>
      </trkpt>
      <trkpt lat="44.87574" lon="5.06069">
        <ele>334.2799987793</ele>
        <time>2010-01-23T14:32:42Z</time>
      </trkpt>
      <trkpt lat="44.87573" lon="5.06093">
        <ele>336.04000854492</ele>
        <time>2010-01-23T14:32:48Z</time>
      </trkpt>
      <trkpt lat="44.8756" lon="5.06111">
        <ele>337.90399169922</ele>
        <time>2010-01-23T14:32:55Z</time>
      </trkpt>
      <trkpt lat="44.87547" lon="5.0613">
        <ele>340.05899047852</ele>
        <time>2010-01-23T14:33:03Z</time>
      </trkpt>
      <trkpt lat="44.8753" lon="5.06152">
        <ele>342.50799560547</ele>
        <time>2010-01-23T14:33:12Z</time>
      </trkpt>
      <trkpt lat="44.8752" lon="5.06165">
        <ele>343.80700683594</ele>
        <time>2010-01-23T14:33:17Z</time>
      </trkpt>
      <trkpt lat="44.87514" lon="5.06189">
        <ele>344.83898925781</ele>
        <time>2010-01-23T14:33:24Z</time>
      </trkpt>
      <trkpt lat="44.87508" lon="5.06232">
        <ele>346.49499511719</ele>
        <time>2010-01-23T14:33:34Z</time>
      </trkpt>
      <trkpt lat="44.87503" lon="5.06263">
        <ele>348.81698608398</ele>
        <time>2010-01-23T14:33:42Z</time>
      </trkpt>
      <trkpt lat="44.87502" lon="5.06297">
        <ele>350.71099853516</ele>
        <time>2010-01-23T14:33:51Z</time>
      </trkpt>
      <trkpt lat="44.875" lon="5.06327">
        <ele>352.1130065918</ele>
        <time>2010-01-23T14:33:58Z</time>
      </trkpt>
      <trkpt lat="44.87499" lon="5.06359">
        <ele>352.76699829102</ele>
        <time>2010-01-23T14:34:05Z</time>
      </trkpt>
      <trkpt lat="44.87499" lon="5.06369">
        <ele>353.20599365234</ele>
        <time>2010-01-23T14:34:07Z</time>
      </trkpt>
      <trkpt lat="44.87516" lon="5.06412">
        <ele>353.80200195312</ele>
        <time>2010-01-23T14:34:15Z</time>
      </trkpt>
      <trkpt lat="44.87518" lon="5.06418">
        <ele>353.94500732422</ele>
        <time>2010-01-23T14:34:16Z</time>
      </trkpt>
      <trkpt lat="44.87533" lon="5.06445">
        <ele>354.23599243164</ele>
        <time>2010-01-23T14:34:21Z</time>
      </trkpt>
      <trkpt lat="44.87537" lon="5.06446">
        <ele>354.74700927734</ele>
        <time>2010-01-23T14:34:22Z</time>
      </trkpt>
      <trkpt lat="44.87579" lon="5.06455">
        <ele>357.18600463867</ele>
        <time>2010-01-23T14:34:31Z</time>
      </trkpt>
      <trkpt lat="44.87606" lon="5.06461">
        <ele>359.03100585938</ele>
        <time>2010-01-23T14:34:38Z</time>
      </trkpt>
      <trkpt lat="44.87635" lon="5.06455">
        <ele>361.17098999023</ele>
        <time>2010-01-23T14:34:45Z</time>
      </trkpt>
      <trkpt lat="44.87652" lon="5.06443">
        <ele>362.24301147461</ele>
        <time>2010-01-23T14:34:50Z</time>
      </trkpt>
      <trkpt lat="44.87683" lon="5.06421">
        <ele>364.53601074219</ele>
        <time>2010-01-23T14:34:59Z</time>
      </trkpt>
      <trkpt lat="44.87688" lon="5.06418">
        <ele>365.32598876953</ele>
        <time>2010-01-23T14:35:05Z</time>
      </trkpt>
      <trkpt lat="44.8773" lon="5.06421">
        <ele>366.51901245117</ele>
        <time>2010-01-23T14:35:12Z</time>
      </trkpt>
      <trkpt lat="44.87753" lon="5.06429">
        <ele>368.64199829102</ele>
        <time>2010-01-23T14:35:19Z</time>
      </trkpt>
      <trkpt lat="44.87776" lon="5.06443">
        <ele>370.26998901367</ele>
        <time>2010-01-23T14:35:26Z</time>
      </trkpt>
      <trkpt lat="44.878" lon="5.06461">
        <ele>372.68798828125</ele>
        <time>2010-01-23T14:35:34Z</time>
      </trkpt>
      <trkpt lat="44.87823" lon="5.06478">
        <ele>374.12899780273</ele>
        <time>2010-01-23T14:35:43Z</time>
      </trkpt>
      <trkpt lat="44.87848" lon="5.06493">
        <ele>374.57699584961</ele>
        <time>2010-01-23T14:35:51Z</time>
      </trkpt>
      <trkpt lat="44.87881" lon="5.06513">
        <ele>375.85900878906</ele>
        <time>2010-01-23T14:36:00Z</time>
      </trkpt>
      <trkpt lat="44.87906" lon="5.06528">
        <ele>377.20999145508</ele>
        <time>2010-01-23T14:36:07Z</time>
      </trkpt>
      <trkpt lat="44.87922" lon="5.06544">
        <ele>378.12100219727</ele>
        <time>2010-01-23T14:36:12Z</time>
      </trkpt>
      <trkpt lat="44.87945" lon="5.06582">
        <ele>379.42098999023</ele>
        <time>2010-01-23T14:36:19Z</time>
      </trkpt>
      <trkpt lat="44.87959" lon="5.06604">
        <ele>379.80099487305</ele>
        <time>2010-01-23T14:36:22Z</time>
      </trkpt>
      <trkpt lat="44.87991" lon="5.06643">
        <ele>380.35699462891</ele>
        <time>2010-01-23T14:36:29Z</time>
      </trkpt>
      <trkpt lat="44.88" lon="5.06651">
        <ele>380.87701416016</ele>
        <time>2010-01-23T14:36:31Z</time>
      </trkpt>
      <trkpt lat="44.88023" lon="5.06672">
        <ele>382.18301391602</ele>
        <time>2010-01-23T14:36:37Z</time>
      </trkpt>
      <trkpt lat="44.88027" lon="5.0668">
        <ele>382.07299804688</ele>
        <time>2010-01-23T14:36:39Z</time>
      </trkpt>
      <trkpt lat="44.88044" lon="5.06712">
        <ele>380.73901367188</ele>
        <time>2010-01-23T14:36:45Z</time>
      </trkpt>
      <trkpt lat="44.88052" lon="5.06725">
        <ele>380.39599609375</ele>
        <time>2010-01-23T14:36:47Z</time>
      </trkpt>
      <trkpt lat="44.88059" lon="5.06738">
        <ele>380.46499633789</ele>
        <time>2010-01-23T14:36:49Z</time>
      </trkpt>
      <trkpt lat="44.88073" lon="5.0676">
        <ele>380.21701049805</ele>
        <time>2010-01-23T14:36:53Z</time>
      </trkpt>
      <trkpt lat="44.88092" lon="5.06775">
        <ele>380.14401245117</ele>
        <time>2010-01-23T14:36:57Z</time>
      </trkpt>
      <trkpt lat="44.88106" lon="5.06781">
        <ele>379.75201416016</ele>
        <time>2010-01-23T14:37:00Z</time>
      </trkpt>
      <trkpt lat="44.88128" lon="5.0679">
        <ele>378.93399047852</ele>
        <time>2010-01-23T14:37:04Z</time>
      </trkpt>
      <trkpt lat="44.88147" lon="5.06798">
        <ele>378.44900512695</ele>
        <time>2010-01-23T14:37:07Z</time>
      </trkpt>
      <trkpt lat="44.88171" lon="5.06828">
        <ele>378.19198608398</ele>
        <time>2010-01-23T14:37:12Z</time>
      </trkpt>
      <trkpt lat="44.88187" lon="5.06855">
        <ele>378.10400390625</ele>
        <time>2010-01-23T14:37:16Z</time>
      </trkpt>
      <trkpt lat="44.88198" lon="5.06873">
        <ele>377.63900756836</ele>
        <time>2010-01-23T14:37:19Z</time>
      </trkpt>
      <trkpt lat="44.88213" lon="5.06916">
        <ele>377.28399658203</ele>
        <time>2010-01-23T14:37:25Z</time>
      </trkpt>
      <trkpt lat="44.88218" lon="5.06957">
        <ele>377.11401367188</ele>
        <time>2010-01-23T14:37:31Z</time>
      </trkpt>
      <trkpt lat="44.88222" lon="5.0699">
        <ele>377.05499267578</ele>
        <time>2010-01-23T14:37:37Z</time>
      </trkpt>
      <trkpt lat="44.88224" lon="5.07006">
        <ele>376.76998901367</ele>
        <time>2010-01-23T14:37:43Z</time>
      </trkpt>
      <trkpt lat="44.88234" lon="5.07083">
        <ele>377.21301269531</ele>
        <time>2010-01-23T14:37:52Z</time>
      </trkpt>
      <trkpt lat="44.88239" lon="5.0712">
        <ele>377.74301147461</ele>
        <time>2010-01-23T14:37:58Z</time>
      </trkpt>
      <trkpt lat="44.88241" lon="5.07151">
        <ele>378.09899902344</ele>
        <time>2010-01-23T14:38:04Z</time>
      </trkpt>
      <trkpt lat="44.88241" lon="5.07173">
        <ele>379.04400634766</ele>
        <time>2010-01-23T14:38:11Z</time>
      </trkpt>
      <trkpt lat="44.88241" lon="5.07173">
        <ele>380.61999511719</ele>
        <time>2010-01-23T14:38:18Z</time>
      </trkpt>
      <trkpt lat="44.88223" lon="5.07217">
        <ele>381.97900390625</ele>
        <time>2010-01-23T14:38:24Z</time>
      </trkpt>
      <trkpt lat="44.88215" lon="5.07228">
        <ele>382.95498657227</ele>
        <time>2010-01-23T14:38:30Z</time>
      </trkpt>
      <trkpt lat="44.88206" lon="5.07238">
        <ele>383.95901489258</ele>
        <time>2010-01-23T14:38:36Z</time>
      </trkpt>
      <trkpt lat="44.88194" lon="5.0725">
        <ele>384.84899902344</ele>
        <time>2010-01-23T14:38:43Z</time>
      </trkpt>
      <trkpt lat="44.88188" lon="5.07255">
        <ele>384.95700073242</ele>
        <time>2010-01-23T14:38:48Z</time>
      </trkpt>
      <trkpt lat="44.88185" lon="5.07259">
        <ele>385.03298950195</ele>
        <time>2010-01-23T14:38:52Z</time>
      </trkpt>
      <trkpt lat="44.88177" lon="5.07266">
        <ele>385.63900756836</ele>
        <time>2010-01-23T14:38:58Z</time>
      </trkpt>
      <trkpt lat="44.88164" lon="5.07278">
        <ele>385.99301147461</ele>
        <time>2010-01-23T14:39:06Z</time>
      </trkpt>
      <trkpt lat="44.8815" lon="5.07291">
        <ele>385.70199584961</ele>
        <time>2010-01-23T14:39:13Z</time>
      </trkpt>
      <trkpt lat="44.88128" lon="5.07304">
        <ele>384.59899902344</ele>
        <time>2010-01-23T14:39:20Z</time>
      </trkpt>
      <trkpt lat="44.88108" lon="5.07314">
        <ele>382.80700683594</ele>
        <time>2010-01-23T14:39:24Z</time>
      </trkpt>
      <trkpt lat="44.88088" lon="5.07327">
        <ele>380.65899658203</ele>
        <time>2010-01-23T14:39:27Z</time>
      </trkpt>
      <trkpt lat="44.88058" lon="5.07352">
        <ele>376.09399414062</ele>
        <time>2010-01-23T14:39:31Z</time>
      </trkpt>
      <trkpt lat="44.88005" lon="5.07356">
        <ele>369.64300537109</ele>
        <time>2010-01-23T14:39:36Z</time>
      </trkpt>
      <trkpt lat="44.87971" lon="5.07358">
        <ele>365.20498657227</ele>
        <time>2010-01-23T14:39:39Z</time>
      </trkpt>
      <trkpt lat="44.87927" lon="5.07372">
        <ele>359.875</ele>
        <time>2010-01-23T14:39:43Z</time>
      </trkpt>
      <trkpt lat="44.87869" lon="5.07404">
        <ele>355.94799804688</ele>
        <time>2010-01-23T14:39:49Z</time>
      </trkpt>
      <trkpt lat="44.8786" lon="5.07409">
        <ele>356.08401489258</ele>
        <time>2010-01-23T14:39:50Z</time>
      </trkpt>
      <trkpt lat="44.87813" lon="5.07449">
        <ele>355.42700195312</ele>
        <time>2010-01-23T14:39:56Z</time>
      </trkpt>
      <trkpt lat="44.87772" lon="5.07492">
        <ele>354.44500732422</ele>
        <time>2010-01-23T14:40:02Z</time>
      </trkpt>
      <trkpt lat="44.87761" lon="5.0752">
        <ele>355.73199462891</ele>
        <time>2010-01-23T14:40:06Z</time>
      </trkpt>
      <trkpt lat="44.87761" lon="5.07527">
        <ele>354.40798950195</ele>
        <time>2010-01-23T14:40:07Z</time>
      </trkpt>
      <trkpt lat="44.87761" lon="5.07546">
        <ele>353.56201171875</ele>
        <time>2010-01-23T14:40:09Z</time>
      </trkpt>
      <trkpt lat="44.87761" lon="5.07616">
        <ele>353.35000610352</ele>
        <time>2010-01-23T14:40:17Z</time>
      </trkpt>
      <trkpt lat="44.87761" lon="5.07654">
        <ele>352.84698486328</ele>
        <time>2010-01-23T14:40:23Z</time>
      </trkpt>
      <trkpt lat="44.87761" lon="5.07674">
        <ele>353.71600341797</ele>
        <time>2010-01-23T14:40:28Z</time>
      </trkpt>
      <trkpt lat="44.87761" lon="5.07676">
        <ele>353.98901367188</ele>
        <time>2010-01-23T14:40:29Z</time>
      </trkpt>
      <trkpt lat="44.87761" lon="5.07676">
        <ele>353.81900024414</ele>
        <time>2010-01-23T14:40:33Z</time>
      </trkpt>
      <trkpt lat="44.87753" lon="5.07676">
        <ele>353.67498779297</ele>
        <time>2010-01-23T14:40:39Z</time>
      </trkpt>
      <trkpt lat="44.87759" lon="5.07676">
        <ele>353.39599609375</ele>
        <time>2010-01-23T14:42:05Z</time>
      </trkpt>
      <trkpt lat="44.87761" lon="5.07676">
        <ele>352.86999511719</ele>
        <time>2010-01-23T14:42:10Z</time>
      </trkpt>
      <trkpt lat="44.87761" lon="5.07676">
        <ele>352.96301269531</ele>
        <time>2010-01-23T14:42:14Z</time>
      </trkpt>
      <trkpt lat="44.87822" lon="5.07667">
        <ele>353.70599365234</ele>
        <time>2010-01-23T14:42:21Z</time>
      </trkpt>
      <trkpt lat="44.87835" lon="5.07659">
        <ele>354.69000244141</ele>
        <time>2010-01-23T14:42:24Z</time>
      </trkpt>
      <trkpt lat="44.8787" lon="5.07639">
        <ele>355.74301147461</ele>
        <time>2010-01-23T14:42:32Z</time>
      </trkpt>
      <trkpt lat="44.87903" lon="5.07629">
        <ele>355.92401123047</ele>
        <time>2010-01-23T14:42:39Z</time>
      </trkpt>
      <trkpt lat="44.87937" lon="5.07628">
        <ele>354.31399536133</ele>
        <time>2010-01-23T14:42:45Z</time>
      </trkpt>
      <trkpt lat="44.8798" lon="5.07628">
        <ele>352.44900512695</ele>
        <time>2010-01-23T14:42:51Z</time>
      </trkpt>
      <trkpt lat="44.87989" lon="5.07629">
        <ele>352.03100585938</ele>
        <time>2010-01-23T14:42:52Z</time>
      </trkpt>
      <trkpt lat="44.88017" lon="5.07651">
        <ele>350.81201171875</ele>
        <time>2010-01-23T14:42:56Z</time>
      </trkpt>
      <trkpt lat="44.88036" lon="5.07674">
        <ele>350.51300048828</ele>
        <time>2010-01-23T14:42:59Z</time>
      </trkpt>
      <trkpt lat="44.88082" lon="5.07699">
        <ele>349.6960144043</ele>
        <time>2010-01-23T14:43:05Z</time>
      </trkpt>
      <trkpt lat="44.8813" lon="5.07721">
        <ele>348.74499511719</ele>
        <time>2010-01-23T14:43:11Z</time>
      </trkpt>
      <trkpt lat="44.8818" lon="5.07729">
        <ele>348.22900390625</ele>
        <time>2010-01-23T14:43:17Z</time>
      </trkpt>
      <trkpt lat="44.88235" lon="5.07737">
        <ele>348.47698974609</ele>
        <time>2010-01-23T14:43:24Z</time>
      </trkpt>
      <trkpt lat="44.88298" lon="5.07747">
        <ele>348.04598999023</ele>
        <time>2010-01-23T14:43:32Z</time>
      </trkpt>
      <trkpt lat="44.88346" lon="5.07744">
        <ele>346.42700195312</ele>
        <time>2010-01-23T14:43:38Z</time>
      </trkpt>
      <trkpt lat="44.88382" lon="5.07734">
        <ele>344.54998779297</ele>
        <time>2010-01-23T14:43:42Z</time>
      </trkpt>
      <trkpt lat="44.8844" lon="5.07705">
        <ele>341.48699951172</ele>
        <time>2010-01-23T14:43:48Z</time>
      </trkpt>
      <trkpt lat="44.8845" lon="5.077">
        <ele>341.12399291992</ele>
        <time>2010-01-23T14:43:49Z</time>
      </trkpt>
      <trkpt lat="44.88491" lon="5.07695">
        <ele>339.26098632812</ele>
        <time>2010-01-23T14:43:53Z</time>
      </trkpt>
      <trkpt lat="44.88542" lon="5.07708">
        <ele>337.16500854492</ele>
        <time>2010-01-23T14:43:58Z</time>
      </trkpt>
      <trkpt lat="44.88626" lon="5.07736">
        <ele>334.20700073242</ele>
        <time>2010-01-23T14:44:06Z</time>
      </trkpt>
      <trkpt lat="44.88676" lon="5.07752">
        <ele>333.73400878906</ele>
        <time>2010-01-23T14:44:11Z</time>
      </trkpt>
      <trkpt lat="44.8873" lon="5.07784">
        <ele>332.72100830078</ele>
        <time>2010-01-23T14:44:17Z</time>
      </trkpt>
      <trkpt lat="44.88773" lon="5.07796">
        <ele>330.11898803711</ele>
        <time>2010-01-23T14:44:25Z</time>
      </trkpt>
      <trkpt lat="44.88868" lon="5.0783">
        <ele>329.42001342773</ele>
        <time>2010-01-23T14:44:31Z</time>
      </trkpt>
      <trkpt lat="44.88886" lon="5.07839">
        <ele>329.14498901367</ele>
        <time>2010-01-23T14:44:33Z</time>
      </trkpt>
      <trkpt lat="44.88919" lon="5.07856">
        <ele>328.90798950195</ele>
        <time>2010-01-23T14:44:37Z</time>
      </trkpt>
      <trkpt lat="44.88961" lon="5.07877">
        <ele>328.33801269531</ele>
        <time>2010-01-23T14:44:42Z</time>
      </trkpt>
      <trkpt lat="44.88994" lon="5.07893">
        <ele>328.48001098633</ele>
        <time>2010-01-23T14:44:46Z</time>
      </trkpt>
      <trkpt lat="44.89044" lon="5.07931">
        <ele>329.5950012207</ele>
        <time>2010-01-23T14:44:53Z</time>
      </trkpt>
      <trkpt lat="44.89096" lon="5.07971">
        <ele>329.49700927734</ele>
        <time>2010-01-23T14:45:01Z</time>
      </trkpt>
      <trkpt lat="44.89176" lon="5.08013">
        <ele>329.86199951172</ele>
        <time>2010-01-23T14:45:12Z</time>
      </trkpt>
      <trkpt lat="44.89223" lon="5.08036">
        <ele>331.15701293945</ele>
        <time>2010-01-23T14:45:19Z</time>
      </trkpt>
      <trkpt lat="44.89258" lon="5.08057">
        <ele>333.10400390625</ele>
        <time>2010-01-23T14:45:25Z</time>
      </trkpt>
      <trkpt lat="44.89267" lon="5.08066">
        <ele>334.125</ele>
        <time>2010-01-23T14:45:27Z</time>
      </trkpt>
      <trkpt lat="44.89291" lon="5.08085">
        <ele>335.14599609375</ele>
        <time>2010-01-23T14:45:32Z</time>
      </trkpt>
      <trkpt lat="44.89329" lon="5.08102">
        <ele>336.27499389648</ele>
        <time>2010-01-23T14:45:39Z</time>
      </trkpt>
      <trkpt lat="44.89338" lon="5.08105">
        <ele>336.71301269531</ele>
        <time>2010-01-23T14:45:41Z</time>
      </trkpt>
      <trkpt lat="44.89377" lon="5.08118">
        <ele>339.06600952148</ele>
        <time>2010-01-23T14:45:49Z</time>
      </trkpt>
      <trkpt lat="44.89394" lon="5.08126">
        <ele>340.54699707031</ele>
        <time>2010-01-23T14:45:53Z</time>
      </trkpt>
      <trkpt lat="44.89405" lon="5.08134">
        <ele>341.41799926758</ele>
        <time>2010-01-23T14:45:56Z</time>
      </trkpt>
      <trkpt lat="44.8942" lon="5.08144">
        <ele>343.0830078125</ele>
        <time>2010-01-23T14:46:00Z</time>
      </trkpt>
      <trkpt lat="44.89427" lon="5.08149">
        <ele>343.4289855957</ele>
        <time>2010-01-23T14:46:02Z</time>
      </trkpt>
      <trkpt lat="44.89442" lon="5.08161">
        <ele>344.58499145508</ele>
        <time>2010-01-23T14:46:06Z</time>
      </trkpt>
      <trkpt lat="44.89461" lon="5.08181">
        <ele>345.29098510742</ele>
        <time>2010-01-23T14:46:11Z</time>
      </trkpt>
      <trkpt lat="44.89467" lon="5.08188">
        <ele>345.53298950195</ele>
        <time>2010-01-23T14:46:13Z</time>
      </trkpt>
      <trkpt lat="44.89477" lon="5.08199">
        <ele>346</ele>
        <time>2010-01-23T14:46:17Z</time>
      </trkpt>
      <trkpt lat="44.89514" lon="5.08236">
        <ele>345.98999023438</ele>
        <time>2010-01-23T14:46:24Z</time>
      </trkpt>
      <trkpt lat="44.89554" lon="5.08272">
        <ele>345.88800048828</ele>
        <time>2010-01-23T14:46:32Z</time>
      </trkpt>
      <trkpt lat="44.89591" lon="5.08302">
        <ele>345.14898681641</ele>
        <time>2010-01-23T14:46:38Z</time>
      </trkpt>
      <trkpt lat="44.8964" lon="5.08332">
        <ele>344.49398803711</ele>
        <time>2010-01-23T14:46:45Z</time>
      </trkpt>
      <trkpt lat="44.89686" lon="5.08378">
        <ele>343.96200561523</ele>
        <time>2010-01-23T14:46:52Z</time>
      </trkpt>
      <trkpt lat="44.89724" lon="5.08416">
        <ele>344.89300537109</ele>
        <time>2010-01-23T14:46:58Z</time>
      </trkpt>
      <trkpt lat="44.89764" lon="5.08456">
        <ele>346.18499755859</ele>
        <time>2010-01-23T14:47:05Z</time>
      </trkpt>
      <trkpt lat="44.89794" lon="5.08486">
        <ele>346.23599243164</ele>
        <time>2010-01-23T14:47:11Z</time>
      </trkpt>
      <trkpt lat="44.89832" lon="5.08518">
        <ele>343.66101074219</ele>
        <time>2010-01-23T14:47:17Z</time>
      </trkpt>
      <trkpt lat="44.89867" lon="5.08549">
        <ele>343.46301269531</ele>
        <time>2010-01-23T14:47:22Z</time>
      </trkpt>
      <trkpt lat="44.89905" lon="5.08582">
        <ele>345.20599365234</ele>
        <time>2010-01-23T14:47:28Z</time>
      </trkpt>
      <trkpt lat="44.89915" lon="5.08591">
        <ele>345.91799926758</ele>
        <time>2010-01-23T14:47:30Z</time>
      </trkpt>
      <trkpt lat="44.89925" lon="5.08603">
        <ele>346.92999267578</ele>
        <time>2010-01-23T14:47:32Z</time>
      </trkpt>
      <trkpt lat="44.89935" lon="5.08629">
        <ele>348.68701171875</ele>
        <time>2010-01-23T14:47:36Z</time>
      </trkpt>
      <trkpt lat="44.89938" lon="5.08639">
        <ele>349.43798828125</ele>
        <time>2010-01-23T14:47:38Z</time>
      </trkpt>
      <trkpt lat="44.8994" lon="5.08651">
        <ele>350.05200195312</ele>
        <time>2010-01-23T14:47:40Z</time>
      </trkpt>
      <trkpt lat="44.89938" lon="5.08699">
        <ele>353.13101196289</ele>
        <time>2010-01-23T14:47:49Z</time>
      </trkpt>
      <trkpt lat="44.89938" lon="5.08739">
        <ele>355.51501464844</ele>
        <time>2010-01-23T14:47:57Z</time>
      </trkpt>
      <trkpt lat="44.8994" lon="5.08761">
        <ele>356.51300048828</ele>
        <time>2010-01-23T14:48:03Z</time>
      </trkpt>
      <trkpt lat="44.89941" lon="5.0877">
        <ele>357.20300292969</ele>
        <time>2010-01-23T14:48:06Z</time>
      </trkpt>
      <trkpt lat="44.89943" lon="5.08788">
        <ele>358.2080078125</ele>
        <time>2010-01-23T14:48:12Z</time>
      </trkpt>
      <trkpt lat="44.89945" lon="5.08807">
        <ele>359.70599365234</ele>
        <time>2010-01-23T14:48:18Z</time>
      </trkpt>
      <trkpt lat="44.89946" lon="5.08823">
        <ele>360.70599365234</ele>
        <time>2010-01-23T14:48:23Z</time>
      </trkpt>
      <trkpt lat="44.89949" lon="5.08851">
        <ele>362.07901000977</ele>
        <time>2010-01-23T14:48:31Z</time>
      </trkpt>
      <trkpt lat="44.89952" lon="5.08877">
        <ele>363.64498901367</ele>
        <time>2010-01-23T14:48:38Z</time>
      </trkpt>
      <trkpt lat="44.89956" lon="5.08896">
        <ele>365.1960144043</ele>
        <time>2010-01-23T14:48:45Z</time>
      </trkpt>
      <trkpt lat="44.89956" lon="5.08931">
        <ele>365.80899047852</ele>
        <time>2010-01-23T14:48:53Z</time>
      </trkpt>
      <trkpt lat="44.89953" lon="5.08967">
        <ele>367.04901123047</ele>
        <time>2010-01-23T14:49:01Z</time>
      </trkpt>
      <trkpt lat="44.89951" lon="5.09009">
        <ele>368.98901367188</ele>
        <time>2010-01-23T14:49:10Z</time>
      </trkpt>
      <trkpt lat="44.89949" lon="5.09027">
        <ele>370.09298706055</ele>
        <time>2010-01-23T14:49:17Z</time>
      </trkpt>
      <trkpt lat="44.89949" lon="5.09027">
        <ele>370.88299560547</ele>
        <time>2010-01-23T14:49:22Z</time>
      </trkpt>
      <trkpt lat="44.89949" lon="5.09097">
        <ele>372.46701049805</ele>
        <time>2010-01-23T14:49:30Z</time>
      </trkpt>
      <trkpt lat="44.89949" lon="5.09121">
        <ele>373.4289855957</ele>
        <time>2010-01-23T14:49:36Z</time>
      </trkpt>
      <trkpt lat="44.89949" lon="5.0915">
        <ele>374.77499389648</ele>
        <time>2010-01-23T14:49:43Z</time>
      </trkpt>
      <trkpt lat="44.8995" lon="5.09175">
        <ele>375.14001464844</ele>
        <time>2010-01-23T14:49:49Z</time>
      </trkpt>
      <trkpt lat="44.89951" lon="5.09209">
        <ele>376.65600585938</ele>
        <time>2010-01-23T14:49:57Z</time>
      </trkpt>
      <trkpt lat="44.89952" lon="5.09248">
        <ele>378.15200805664</ele>
        <time>2010-01-23T14:50:06Z</time>
      </trkpt>
      <trkpt lat="44.89953" lon="5.09275">
        <ele>378.75601196289</ele>
        <time>2010-01-23T14:50:12Z</time>
      </trkpt>
      <trkpt lat="44.89956" lon="5.09314">
        <ele>379.81298828125</ele>
        <time>2010-01-23T14:50:21Z</time>
      </trkpt>
      <trkpt lat="44.89958" lon="5.09342">
        <ele>380.42599487305</ele>
        <time>2010-01-23T14:50:27Z</time>
      </trkpt>
      <trkpt lat="44.89959" lon="5.09375">
        <ele>381.52801513672</ele>
        <time>2010-01-23T14:50:34Z</time>
      </trkpt>
      <trkpt lat="44.8996" lon="5.09411">
        <ele>382.24798583984</ele>
        <time>2010-01-23T14:50:41Z</time>
      </trkpt>
      <trkpt lat="44.89961" lon="5.09444">
        <ele>383.18099975586</ele>
        <time>2010-01-23T14:50:47Z</time>
      </trkpt>
      <trkpt lat="44.89962" lon="5.09489">
        <ele>384.42498779297</ele>
        <time>2010-01-23T14:50:55Z</time>
      </trkpt>
      <trkpt lat="44.89954" lon="5.09517">
        <ele>385.52398681641</ele>
        <time>2010-01-23T14:51:01Z</time>
      </trkpt>
      <trkpt lat="44.89954" lon="5.09517">
        <ele>385.24301147461</ele>
        <time>2010-01-23T14:51:06Z</time>
      </trkpt>
      <trkpt lat="44.89945" lon="5.09551">
        <ele>386.05200195312</ele>
        <time>2010-01-23T14:51:10Z</time>
      </trkpt>
      <trkpt lat="44.89945" lon="5.09577">
        <ele>387.31100463867</ele>
        <time>2010-01-23T14:51:14Z</time>
      </trkpt>
      <trkpt lat="44.89952" lon="5.09578">
        <ele>387.91900634766</ele>
        <time>2010-01-23T14:51:16Z</time>
      </trkpt>
      <trkpt lat="44.89958" lon="5.09581">
        <ele>390.24301147461</ele>
        <time>2010-01-23T14:51:23Z</time>
      </trkpt>
      <trkpt lat="44.89984" lon="5.09594">
        <ele>391.83499145508</ele>
        <time>2010-01-23T14:51:29Z</time>
      </trkpt>
      <trkpt lat="44.89984" lon="5.09594">
        <ele>392.77600097656</ele>
        <time>2010-01-23T14:51:33Z</time>
      </trkpt>
      <trkpt lat="44.90013" lon="5.09619">
        <ele>393.19900512695</ele>
        <time>2010-01-23T14:51:39Z</time>
      </trkpt>
      <trkpt lat="44.90028" lon="5.09623">
        <ele>393.32998657227</ele>
        <time>2010-01-23T14:51:46Z</time>
      </trkpt>
      <trkpt lat="44.90031" lon="5.09624">
        <ele>391.90399169922</ele>
        <time>2010-01-23T14:51:50Z</time>
      </trkpt>
      <trkpt lat="44.9007" lon="5.09625">
        <ele>388.21701049805</ele>
        <time>2010-01-23T14:51:55Z</time>
      </trkpt>
      <trkpt lat="44.90104" lon="5.09635">
        <ele>384.39498901367</ele>
        <time>2010-01-23T14:51:59Z</time>
      </trkpt>
      <trkpt lat="44.90142" lon="5.09641">
        <ele>381.29501342773</ele>
        <time>2010-01-23T14:52:04Z</time>
      </trkpt>
      <trkpt lat="44.90214" lon="5.09664">
        <ele>380.6369934082</ele>
        <time>2010-01-23T14:52:10Z</time>
      </trkpt>
      <trkpt lat="44.90256" lon="5.09675">
        <ele>381.47601318359</ele>
        <time>2010-01-23T14:52:15Z</time>
      </trkpt>
      <trkpt lat="44.90277" lon="5.09681">
        <ele>382.07998657227</ele>
        <time>2010-01-23T14:52:18Z</time>
      </trkpt>
      <trkpt lat="44.90308" lon="5.09689">
        <ele>383.68301391602</ele>
        <time>2010-01-23T14:52:23Z</time>
      </trkpt>
      <trkpt lat="44.90343" lon="5.09699">
        <ele>384.66198730469</ele>
        <time>2010-01-23T14:52:29Z</time>
      </trkpt>
      <trkpt lat="44.90353" lon="5.09701">
        <ele>385.76699829102</ele>
        <time>2010-01-23T14:52:35Z</time>
      </trkpt>
      <trkpt lat="44.90409" lon="5.09718">
        <ele>387.16400146484</ele>
        <time>2010-01-23T14:52:40Z</time>
      </trkpt>
      <trkpt lat="44.9045" lon="5.0973">
        <ele>388.39300537109</ele>
        <time>2010-01-23T14:52:47Z</time>
      </trkpt>
      <trkpt lat="44.90473" lon="5.09737">
        <ele>388.62399291992</ele>
        <time>2010-01-23T14:52:51Z</time>
      </trkpt>
      <trkpt lat="44.90499" lon="5.09744">
        <ele>388.39700317383</ele>
        <time>2010-01-23T14:52:58Z</time>
      </trkpt>
      <trkpt lat="44.90566" lon="5.09763">
        <ele>387.30899047852</ele>
        <time>2010-01-23T14:53:05Z</time>
      </trkpt>
      <trkpt lat="44.90609" lon="5.09757">
        <ele>385.95599365234</ele>
        <time>2010-01-23T14:53:11Z</time>
      </trkpt>
      <trkpt lat="44.90657" lon="5.09747">
        <ele>384.19900512695</ele>
        <time>2010-01-23T14:53:17Z</time>
      </trkpt>
      <trkpt lat="44.907" lon="5.09744">
        <ele>382.35400390625</ele>
        <time>2010-01-23T14:53:22Z</time>
      </trkpt>
      <trkpt lat="44.90774" lon="5.09746">
        <ele>381.98098754883</ele>
        <time>2010-01-23T14:53:31Z</time>
      </trkpt>
      <trkpt lat="44.90819" lon="5.09757">
        <ele>383.51998901367</ele>
        <time>2010-01-23T14:53:37Z</time>
      </trkpt>
      <trkpt lat="44.90863" lon="5.09778">
        <ele>384.76699829102</ele>
        <time>2010-01-23T14:53:44Z</time>
      </trkpt>
      <trkpt lat="44.9091" lon="5.09811">
        <ele>386.58999633789</ele>
        <time>2010-01-23T14:53:52Z</time>
      </trkpt>
      <trkpt lat="44.90947" lon="5.09841">
        <ele>386.58898925781</ele>
        <time>2010-01-23T14:53:58Z</time>
      </trkpt>
      <trkpt lat="44.90976" lon="5.09876">
        <ele>385.84201049805</ele>
        <time>2010-01-23T14:54:03Z</time>
      </trkpt>
      <trkpt lat="44.91027" lon="5.09943">
        <ele>385.72799682617</ele>
        <time>2010-01-23T14:54:12Z</time>
      </trkpt>
      <trkpt lat="44.91043" lon="5.09979">
        <ele>385.77200317383</ele>
        <time>2010-01-23T14:54:16Z</time>
      </trkpt>
      <trkpt lat="44.9105" lon="5.1001">
        <ele>385.75399780273</ele>
        <time>2010-01-23T14:54:19Z</time>
      </trkpt>
      <trkpt lat="44.91052" lon="5.10023">
        <ele>385.25900268555</ele>
        <time>2010-01-23T14:54:23Z</time>
      </trkpt>
      <trkpt lat="44.9107" lon="5.10058">
        <ele>385.33700561523</ele>
        <time>2010-01-23T14:54:24Z</time>
      </trkpt>
      <trkpt lat="44.9112" lon="5.10108">
        <ele>385.87701416016</ele>
        <time>2010-01-23T14:54:32Z</time>
      </trkpt>
      <trkpt lat="44.91142" lon="5.10154">
        <ele>385.5119934082</ele>
        <time>2010-01-23T14:54:37Z</time>
      </trkpt>
      <trkpt lat="44.91171" lon="5.10217">
        <ele>385.68499755859</ele>
        <time>2010-01-23T14:54:44Z</time>
      </trkpt>
      <trkpt lat="44.91209" lon="5.10294">
        <ele>385.72900390625</ele>
        <time>2010-01-23T14:54:53Z</time>
      </trkpt>
      <trkpt lat="44.9123" lon="5.10342">
        <ele>385.89498901367</ele>
        <time>2010-01-23T14:54:59Z</time>
      </trkpt>
      <trkpt lat="44.91262" lon="5.10398">
        <ele>387.12899780273</ele>
        <time>2010-01-23T14:55:07Z</time>
      </trkpt>
      <trkpt lat="44.91278" lon="5.10424">
        <ele>387.21600341797</ele>
        <time>2010-01-23T14:55:11Z</time>
      </trkpt>
      <trkpt lat="44.91288" lon="5.10452">
        <ele>387.86599731445</ele>
        <time>2010-01-23T14:55:17Z</time>
      </trkpt>
      <trkpt lat="44.91288" lon="5.10452">
        <ele>387.89700317383</ele>
        <time>2010-01-23T14:55:18Z</time>
      </trkpt>
      <trkpt lat="44.91293" lon="5.10508">
        <ele>388.72799682617</ele>
        <time>2010-01-23T14:55:23Z</time>
      </trkpt>
      <trkpt lat="44.91293" lon="5.10508">
        <ele>387.99600219727</ele>
        <time>2010-01-23T14:55:26Z</time>
      </trkpt>
      <trkpt lat="44.91306" lon="5.10542">
        <ele>387.69799804688</ele>
        <time>2010-01-23T14:55:28Z</time>
      </trkpt>
      <trkpt lat="44.91317" lon="5.1054">
        <ele>386.56698608398</ele>
        <time>2010-01-23T14:55:33Z</time>
      </trkpt>
      <trkpt lat="44.9132" lon="5.10534">
        <ele>386.23599243164</ele>
        <time>2010-01-23T14:55:34Z</time>
      </trkpt>
      <trkpt lat="44.91327" lon="5.105">
        <ele>384.85800170898</ele>
        <time>2010-01-23T14:55:38Z</time>
      </trkpt>
      <trkpt lat="44.91336" lon="5.10455">
        <ele>382.81900024414</ele>
        <time>2010-01-23T14:55:43Z</time>
      </trkpt>
      <trkpt lat="44.91342" lon="5.10423">
        <ele>381.56100463867</ele>
        <time>2010-01-23T14:55:47Z</time>
      </trkpt>
      <trkpt lat="44.91352" lon="5.1039">
        <ele>380.33599853516</ele>
        <time>2010-01-23T14:55:51Z</time>
      </trkpt>
      <trkpt lat="44.91383" lon="5.10389">
        <ele>380.3450012207</ele>
        <time>2010-01-23T14:55:56Z</time>
      </trkpt>
      <trkpt lat="44.91391" lon="5.10384">
        <ele>379.81500244141</ele>
        <time>2010-01-23T14:56:01Z</time>
      </trkpt>
      <trkpt lat="44.91391" lon="5.10384">
        <ele>379.14999389648</ele>
        <time>2010-01-23T14:56:03Z</time>
      </trkpt>
      <trkpt lat="44.91433" lon="5.10376">
        <ele>376.53399658203</ele>
        <time>2010-01-23T14:56:08Z</time>
      </trkpt>
      <trkpt lat="44.91439" lon="5.10374">
        <ele>376.37298583984</ele>
        <time>2010-01-23T14:56:09Z</time>
      </trkpt>
      <trkpt lat="44.9147" lon="5.10369">
        <ele>374.44400024414</ele>
        <time>2010-01-23T14:56:13Z</time>
      </trkpt>
      <trkpt lat="44.91515" lon="5.10373">
        <ele>372.55599975586</ele>
        <time>2010-01-23T14:56:18Z</time>
      </trkpt>
      <trkpt lat="44.91553" lon="5.1039">
        <ele>370.36898803711</ele>
        <time>2010-01-23T14:56:22Z</time>
      </trkpt>
      <trkpt lat="44.91608" lon="5.10423">
        <ele>369.1369934082</ele>
        <time>2010-01-23T14:56:28Z</time>
      </trkpt>
      <trkpt lat="44.91623" lon="5.10427">
        <ele>370.39898681641</ele>
        <time>2010-01-23T14:56:32Z</time>
      </trkpt>
      <trkpt lat="44.91637" lon="5.10446">
        <ele>370.96701049805</ele>
        <time>2010-01-23T14:56:34Z</time>
      </trkpt>
      <trkpt lat="44.91663" lon="5.10466">
        <ele>372.92401123047</ele>
        <time>2010-01-23T14:56:40Z</time>
      </trkpt>
      <trkpt lat="44.91678" lon="5.10477">
        <ele>373.62200927734</ele>
        <time>2010-01-23T14:56:44Z</time>
      </trkpt>
      <trkpt lat="44.91685" lon="5.10483">
        <ele>373.85998535156</ele>
        <time>2010-01-23T14:56:46Z</time>
      </trkpt>
      <trkpt lat="44.91717" lon="5.10506">
        <ele>375.77700805664</ele>
        <time>2010-01-23T14:56:54Z</time>
      </trkpt>
      <trkpt lat="44.91724" lon="5.10512">
        <ele>375.94799804688</ele>
        <time>2010-01-23T14:56:56Z</time>
      </trkpt>
      <trkpt lat="44.91732" lon="5.10517">
        <ele>376.62100219727</ele>
        <time>2010-01-23T14:56:58Z</time>
      </trkpt>
      <trkpt lat="44.91737" lon="5.10518">
        <ele>376.98199462891</ele>
        <time>2010-01-23T14:56:59Z</time>
      </trkpt>
      <trkpt lat="44.91762" lon="5.10519">
        <ele>378.90100097656</ele>
        <time>2010-01-23T14:57:05Z</time>
      </trkpt>
      <trkpt lat="44.91766" lon="5.10519">
        <ele>379.60299682617</ele>
        <time>2010-01-23T14:57:06Z</time>
      </trkpt>
      <trkpt lat="44.91786" lon="5.10516">
        <ele>381.41598510742</ele>
        <time>2010-01-23T14:57:10Z</time>
      </trkpt>
      <trkpt lat="44.91796" lon="5.10514">
        <ele>382.60598754883</ele>
        <time>2010-01-23T14:57:12Z</time>
      </trkpt>
      <trkpt lat="44.91814" lon="5.10511">
        <ele>383.82501220703</ele>
        <time>2010-01-23T14:57:15Z</time>
      </trkpt>
      <trkpt lat="44.91825" lon="5.10509">
        <ele>384.45901489258</ele>
        <time>2010-01-23T14:57:17Z</time>
      </trkpt>
      <trkpt lat="44.9183" lon="5.10509">
        <ele>384.44000244141</ele>
        <time>2010-01-23T14:57:18Z</time>
      </trkpt>
      <trkpt lat="44.91844" lon="5.10512">
        <ele>384.79098510742</ele>
        <time>2010-01-23T14:57:21Z</time>
      </trkpt>
      <trkpt lat="44.91878" lon="5.10527">
        <ele>386.06500244141</ele>
        <time>2010-01-23T14:57:28Z</time>
      </trkpt>
      <trkpt lat="44.91912" lon="5.10547">
        <ele>387.60198974609</ele>
        <time>2010-01-23T14:57:36Z</time>
      </trkpt>
      <trkpt lat="44.91943" lon="5.10571">
        <ele>388.92599487305</ele>
        <time>2010-01-23T14:57:44Z</time>
      </trkpt>
      <trkpt lat="44.91968" lon="5.10599">
        <ele>390.1789855957</ele>
        <time>2010-01-23T14:57:52Z</time>
      </trkpt>
      <trkpt lat="44.91984" lon="5.10625">
        <ele>391.77899169922</ele>
        <time>2010-01-23T14:57:59Z</time>
      </trkpt>
      <trkpt lat="44.91996" lon="5.10651">
        <ele>393.59201049805</ele>
        <time>2010-01-23T14:58:05Z</time>
      </trkpt>
      <trkpt lat="44.9201" lon="5.10678">
        <ele>394.96798706055</ele>
        <time>2010-01-23T14:58:11Z</time>
      </trkpt>
      <trkpt lat="44.92033" lon="5.10706">
        <ele>396.41299438477</ele>
        <time>2010-01-23T14:58:18Z</time>
      </trkpt>
      <trkpt lat="44.92061" lon="5.10734">
        <ele>397.25399780273</ele>
        <time>2010-01-23T14:58:26Z</time>
      </trkpt>
      <trkpt lat="44.92092" lon="5.1076">
        <ele>397.18899536133</ele>
        <time>2010-01-23T14:58:33Z</time>
      </trkpt>
      <trkpt lat="44.92136" lon="5.10788">
        <ele>397.20001220703</ele>
        <time>2010-01-23T14:58:41Z</time>
      </trkpt>
      <trkpt lat="44.92151" lon="5.10798">
        <ele>397.50500488281</ele>
        <time>2010-01-23T14:58:44Z</time>
      </trkpt>
      <trkpt lat="44.92171" lon="5.10826">
        <ele>395.96398925781</ele>
        <time>2010-01-23T14:58:49Z</time>
      </trkpt>
      <trkpt lat="44.92176" lon="5.10833">
        <ele>395.875</ele>
        <time>2010-01-23T14:58:50Z</time>
      </trkpt>
      <trkpt lat="44.92182" lon="5.1085">
        <ele>395.55099487305</ele>
        <time>2010-01-23T14:58:52Z</time>
      </trkpt>
      <trkpt lat="44.922" lon="5.10882">
        <ele>394.47100830078</ele>
        <time>2010-01-23T14:58:56Z</time>
      </trkpt>
      <trkpt lat="44.92228" lon="5.10888">
        <ele>394.63800048828</ele>
        <time>2010-01-23T14:59:00Z</time>
      </trkpt>
      <trkpt lat="44.92242" lon="5.10884">
        <ele>394.94000244141</ele>
        <time>2010-01-23T14:59:02Z</time>
      </trkpt>
      <trkpt lat="44.92253" lon="5.1087">
        <ele>395.64401245117</ele>
        <time>2010-01-23T14:59:04Z</time>
      </trkpt>
      <trkpt lat="44.92278" lon="5.10858">
        <ele>397.16400146484</ele>
        <time>2010-01-23T14:59:08Z</time>
      </trkpt>
      <trkpt lat="44.92309" lon="5.10843">
        <ele>399.20700073242</ele>
        <time>2010-01-23T14:59:14Z</time>
      </trkpt>
      <trkpt lat="44.92318" lon="5.10839">
        <ele>399.94799804688</ele>
        <time>2010-01-23T14:59:16Z</time>
      </trkpt>
      <trkpt lat="44.92352" lon="5.10821">
        <ele>402.31600952148</ele>
        <time>2010-01-23T14:59:24Z</time>
      </trkpt>
      <trkpt lat="44.92356" lon="5.10818">
        <ele>402.61801147461</ele>
        <time>2010-01-23T14:59:25Z</time>
      </trkpt>
      <trkpt lat="44.92381" lon="5.10806">
        <ele>403.40600585938</ele>
        <time>2010-01-23T14:59:31Z</time>
      </trkpt>
      <trkpt lat="44.924" lon="5.10796">
        <ele>402.74200439453</ele>
        <time>2010-01-23T14:59:35Z</time>
      </trkpt>
      <trkpt lat="44.9243" lon="5.10789">
        <ele>402.43600463867</ele>
        <time>2010-01-23T14:59:40Z</time>
      </trkpt>
      <trkpt lat="44.92467" lon="5.10797">
        <ele>402.8869934082</ele>
        <time>2010-01-23T14:59:46Z</time>
      </trkpt>
      <trkpt lat="44.92495" lon="5.1081">
        <ele>401.92999267578</ele>
        <time>2010-01-23T14:59:51Z</time>
      </trkpt>
      <trkpt lat="44.92529" lon="5.1083">
        <ele>399.91799926758</ele>
        <time>2010-01-23T14:59:56Z</time>
      </trkpt>
      <trkpt lat="44.92578" lon="5.10861">
        <ele>397.35000610352</ele>
        <time>2010-01-23T15:00:02Z</time>
      </trkpt>
      <trkpt lat="44.9262" lon="5.10895">
        <ele>395.36099243164</ele>
        <time>2010-01-23T15:00:07Z</time>
      </trkpt>
      <trkpt lat="44.92658" lon="5.10926">
        <ele>393.06399536133</ele>
        <time>2010-01-23T15:00:11Z</time>
      </trkpt>
      <trkpt lat="44.92694" lon="5.10989">
        <ele>390.87200927734</ele>
        <time>2010-01-23T15:00:16Z</time>
      </trkpt>
      <trkpt lat="44.92722" lon="5.11041">
        <ele>388.78601074219</ele>
        <time>2010-01-23T15:00:20Z</time>
      </trkpt>
      <trkpt lat="44.92764" lon="5.11092">
        <ele>387.26901245117</ele>
        <time>2010-01-23T15:00:25Z</time>
      </trkpt>
      <trkpt lat="44.92808" lon="5.11145">
        <ele>383.6130065918</ele>
        <time>2010-01-23T15:00:30Z</time>
      </trkpt>
      <trkpt lat="44.92839" lon="5.11177">
        <ele>381.18600463867</ele>
        <time>2010-01-23T15:00:33Z</time>
      </trkpt>
      <trkpt lat="44.92871" lon="5.11205">
        <ele>380.60101318359</ele>
        <time>2010-01-23T15:00:36Z</time>
      </trkpt>
      <trkpt lat="44.92916" lon="5.1123">
        <ele>379.19198608398</ele>
        <time>2010-01-23T15:00:40Z</time>
      </trkpt>
      <trkpt lat="44.92971" lon="5.11252">
        <ele>377.31100463867</ele>
        <time>2010-01-23T15:00:45Z</time>
      </trkpt>
      <trkpt lat="44.93013" lon="5.11291">
        <ele>374.20001220703</ele>
        <time>2010-01-23T15:00:49Z</time>
      </trkpt>
      <trkpt lat="44.93059" lon="5.11322">
        <ele>369.20999145508</ele>
        <time>2010-01-23T15:00:53Z</time>
      </trkpt>
      <trkpt lat="44.9307" lon="5.11334">
        <ele>369.09201049805</ele>
        <time>2010-01-23T15:00:54Z</time>
      </trkpt>
      <trkpt lat="44.93096" lon="5.11362">
        <ele>367.56500244141</ele>
        <time>2010-01-23T15:00:57Z</time>
      </trkpt>
      <trkpt lat="44.93117" lon="5.11355">
        <ele>368.04098510742</ele>
        <time>2010-01-23T15:00:59Z</time>
      </trkpt>
      <trkpt lat="44.93162" lon="5.11326">
        <ele>370.42599487305</ele>
        <time>2010-01-23T15:01:04Z</time>
      </trkpt>
      <trkpt lat="44.93195" lon="5.11322">
        <ele>370.95098876953</ele>
        <time>2010-01-23T15:01:07Z</time>
      </trkpt>
      <trkpt lat="44.93219" lon="5.11319">
        <ele>370.86401367188</ele>
        <time>2010-01-23T15:01:09Z</time>
      </trkpt>
      <trkpt lat="44.93243" lon="5.11315">
        <ele>370.04400634766</ele>
        <time>2010-01-23T15:01:11Z</time>
      </trkpt>
      <trkpt lat="44.93281" lon="5.1131">
        <ele>368.39700317383</ele>
        <time>2010-01-23T15:01:14Z</time>
      </trkpt>
      <trkpt lat="44.93321" lon="5.11306">
        <ele>365.60900878906</ele>
        <time>2010-01-23T15:01:17Z</time>
      </trkpt>
      <trkpt lat="44.93334" lon="5.11306">
        <ele>365.68600463867</ele>
        <time>2010-01-23T15:01:18Z</time>
      </trkpt>
      <trkpt lat="44.93346" lon="5.11313">
        <ele>366.15100097656</ele>
        <time>2010-01-23T15:01:19Z</time>
      </trkpt>
      <trkpt lat="44.93357" lon="5.11319">
        <ele>366.80599975586</ele>
        <time>2010-01-23T15:01:20Z</time>
      </trkpt>
      <trkpt lat="44.93416" lon="5.11375">
        <ele>368.0710144043</ele>
        <time>2010-01-23T15:01:26Z</time>
      </trkpt>
      <trkpt lat="44.93466" lon="5.11413">
        <ele>369.70401000977</ele>
        <time>2010-01-23T15:01:32Z</time>
      </trkpt>
      <trkpt lat="44.93508" lon="5.11437">
        <ele>372.04299926758</ele>
        <time>2010-01-23T15:01:38Z</time>
      </trkpt>
      <trkpt lat="44.93526" lon="5.11444">
        <ele>373.55099487305</ele>
        <time>2010-01-23T15:01:41Z</time>
      </trkpt>
      <trkpt lat="44.93556" lon="5.11455">
        <ele>375.43200683594</ele>
        <time>2010-01-23T15:01:47Z</time>
      </trkpt>
      <trkpt lat="44.93587" lon="5.11468">
        <ele>374.26501464844</ele>
        <time>2010-01-23T15:01:53Z</time>
      </trkpt>
      <trkpt lat="44.93614" lon="5.11499">
        <ele>372.46301269531</ele>
        <time>2010-01-23T15:01:58Z</time>
      </trkpt>
      <trkpt lat="44.93646" lon="5.11537">
        <ele>370.00900268555</ele>
        <time>2010-01-23T15:02:03Z</time>
      </trkpt>
      <trkpt lat="44.93677" lon="5.11565">
        <ele>366.55899047852</ele>
        <time>2010-01-23T15:02:07Z</time>
      </trkpt>
      <trkpt lat="44.93699" lon="5.1157">
        <ele>365.68899536133</ele>
        <time>2010-01-23T15:02:09Z</time>
      </trkpt>
      <trkpt lat="44.93721" lon="5.11589">
        <ele>365.18899536133</ele>
        <time>2010-01-23T15:02:14Z</time>
      </trkpt>
      <trkpt lat="44.93778" lon="5.11613">
        <ele>368.03399658203</ele>
        <time>2010-01-23T15:02:18Z</time>
      </trkpt>
      <trkpt lat="44.93786" lon="5.11615">
        <ele>368.23901367188</ele>
        <time>2010-01-23T15:02:19Z</time>
      </trkpt>
      <trkpt lat="44.93807" lon="5.1162">
        <ele>369.88900756836</ele>
        <time>2010-01-23T15:02:23Z</time>
      </trkpt>
      <trkpt lat="44.93807" lon="5.1162">
        <ele>371.56900024414</ele>
        <time>2010-01-23T15:02:27Z</time>
      </trkpt>
      <trkpt lat="44.93807" lon="5.1162">
        <ele>372.68099975586</ele>
        <time>2010-01-23T15:02:29Z</time>
      </trkpt>
      <trkpt lat="44.93837" lon="5.11628">
        <ele>373.26699829102</ele>
        <time>2010-01-23T15:02:31Z</time>
      </trkpt>
      <trkpt lat="44.9384" lon="5.11628">
        <ele>373.61599731445</ele>
        <time>2010-01-23T15:02:32Z</time>
      </trkpt>
      <trkpt lat="44.93853" lon="5.11632">
        <ele>374.8869934082</ele>
        <time>2010-01-23T15:02:37Z</time>
      </trkpt>
      <trkpt lat="44.93855" lon="5.11632">
        <ele>375.79901123047</ele>
        <time>2010-01-23T15:02:43Z</time>
      </trkpt>
      <trkpt lat="44.93885" lon="5.1165">
        <ele>376.45498657227</ele>
        <time>2010-01-23T15:02:48Z</time>
      </trkpt>
      <trkpt lat="44.93907" lon="5.11662">
        <ele>377.34201049805</ele>
        <time>2010-01-23T15:02:54Z</time>
      </trkpt>
      <trkpt lat="44.93915" lon="5.11667">
        <ele>377.31900024414</ele>
        <time>2010-01-23T15:02:57Z</time>
      </trkpt>
      <trkpt lat="44.93915" lon="5.11667">
        <ele>377.36099243164</ele>
        <time>2010-01-23T15:03:00Z</time>
      </trkpt>
      <trkpt lat="44.93958" lon="5.11697">
        <ele>376.89801025391</ele>
        <time>2010-01-23T15:03:08Z</time>
      </trkpt>
      <trkpt lat="44.93993" lon="5.11723">
        <ele>375.69000244141</ele>
        <time>2010-01-23T15:03:14Z</time>
      </trkpt>
      <trkpt lat="44.93999" lon="5.11727">
        <ele>375.66400146484</ele>
        <time>2010-01-23T15:03:15Z</time>
      </trkpt>
      <trkpt lat="44.94022" lon="5.11744">
        <ele>374.94900512695</ele>
        <time>2010-01-23T15:03:19Z</time>
      </trkpt>
      <trkpt lat="44.9404" lon="5.11796">
        <ele>372.6130065918</ele>
        <time>2010-01-23T15:03:24Z</time>
      </trkpt>
      <trkpt lat="44.94048" lon="5.11801">
        <ele>371.84698486328</ele>
        <time>2010-01-23T15:03:25Z</time>
      </trkpt>
      <trkpt lat="44.94098" lon="5.11826">
        <ele>370.97500610352</ele>
        <time>2010-01-23T15:03:31Z</time>
      </trkpt>
      <trkpt lat="44.94157" lon="5.11846">
        <ele>370.74499511719</ele>
        <time>2010-01-23T15:03:38Z</time>
      </trkpt>
      <trkpt lat="44.94244" lon="5.11888">
        <ele>369.22799682617</ele>
        <time>2010-01-23T15:03:48Z</time>
      </trkpt>
      <trkpt lat="44.943" lon="5.11907">
        <ele>367.62100219727</ele>
        <time>2010-01-23T15:03:54Z</time>
      </trkpt>
      <trkpt lat="44.9431" lon="5.11906">
        <ele>367.09201049805</ele>
        <time>2010-01-23T15:03:55Z</time>
      </trkpt>
      <trkpt lat="44.94374" lon="5.11902">
        <ele>364.08801269531</ele>
        <time>2010-01-23T15:04:01Z</time>
      </trkpt>
      <trkpt lat="44.94429" lon="5.11899">
        <ele>362.35998535156</ele>
        <time>2010-01-23T15:04:06Z</time>
      </trkpt>
      <trkpt lat="44.94469" lon="5.11917">
        <ele>362.64199829102</ele>
        <time>2010-01-23T15:04:10Z</time>
      </trkpt>
      <trkpt lat="44.94526" lon="5.1195">
        <ele>363.62799072266</ele>
        <time>2010-01-23T15:04:16Z</time>
      </trkpt>
      <trkpt lat="44.94542" lon="5.1196">
        <ele>365.01699829102</ele>
        <time>2010-01-23T15:04:18Z</time>
      </trkpt>
      <trkpt lat="44.94592" lon="5.11976">
        <ele>365.77398681641</ele>
        <time>2010-01-23T15:04:24Z</time>
      </trkpt>
      <trkpt lat="44.9465" lon="5.11998">
        <ele>367.08898925781</ele>
        <time>2010-01-23T15:04:31Z</time>
      </trkpt>
      <trkpt lat="44.94703" lon="5.12022">
        <ele>368.95199584961</ele>
        <time>2010-01-23T15:04:38Z</time>
      </trkpt>
      <trkpt lat="44.94749" lon="5.12042">
        <ele>370.17999267578</ele>
        <time>2010-01-23T15:04:45Z</time>
      </trkpt>
      <trkpt lat="44.94794" lon="5.12061">
        <ele>368.67999267578</ele>
        <time>2010-01-23T15:04:51Z</time>
      </trkpt>
      <trkpt lat="44.94855" lon="5.12083">
        <ele>367.77398681641</ele>
        <time>2010-01-23T15:04:58Z</time>
      </trkpt>
      <trkpt lat="44.94902" lon="5.12124">
        <ele>368.48098754883</ele>
        <time>2010-01-23T15:05:04Z</time>
      </trkpt>
      <trkpt lat="44.94951" lon="5.12189">
        <ele>370.70700073242</ele>
        <time>2010-01-23T15:05:12Z</time>
      </trkpt>
      <trkpt lat="44.94994" lon="5.12244">
        <ele>372.99899291992</ele>
        <time>2010-01-23T15:05:20Z</time>
      </trkpt>
      <trkpt lat="44.95034" lon="5.1229">
        <ele>375.52099609375</ele>
        <time>2010-01-23T15:05:28Z</time>
      </trkpt>
      <trkpt lat="44.95089" lon="5.12353">
        <ele>377.60699462891</ele>
        <time>2010-01-23T15:05:40Z</time>
      </trkpt>
      <trkpt lat="44.95144" lon="5.12405">
        <ele>379.64199829102</ele>
        <time>2010-01-23T15:05:51Z</time>
      </trkpt>
      <trkpt lat="44.95182" lon="5.12428">
        <ele>380.55999755859</ele>
        <time>2010-01-23T15:05:58Z</time>
      </trkpt>
      <trkpt lat="44.95239" lon="5.12456">
        <ele>382.45599365234</ele>
        <time>2010-01-23T15:06:08Z</time>
      </trkpt>
      <trkpt lat="44.95281" lon="5.12475">
        <ele>383.03698730469</ele>
        <time>2010-01-23T15:06:15Z</time>
      </trkpt>
      <trkpt lat="44.95309" lon="5.12494">
        <ele>383.36700439453</ele>
        <time>2010-01-23T15:06:20Z</time>
      </trkpt>
      <trkpt lat="44.95309" lon="5.12495">
        <ele>383.49600219727</ele>
        <time>2010-01-23T15:06:21Z</time>
      </trkpt>
      <trkpt lat="44.95322" lon="5.12521">
        <ele>383.53698730469</ele>
        <time>2010-01-23T15:06:25Z</time>
      </trkpt>
      <trkpt lat="44.9535" lon="5.12564">
        <ele>383.33898925781</ele>
        <time>2010-01-23T15:06:30Z</time>
      </trkpt>
      <trkpt lat="44.95356" lon="5.12567">
        <ele>383.72299194336</ele>
        <time>2010-01-23T15:06:31Z</time>
      </trkpt>
      <trkpt lat="44.9541" lon="5.1259">
        <ele>384.21099853516</ele>
        <time>2010-01-23T15:06:40Z</time>
      </trkpt>
      <trkpt lat="44.95438" lon="5.12602">
        <ele>385.48599243164</ele>
        <time>2010-01-23T15:06:48Z</time>
      </trkpt>
      <trkpt lat="44.95489" lon="5.12623">
        <ele>387.34600830078</ele>
        <time>2010-01-23T15:06:56Z</time>
      </trkpt>
      <trkpt lat="44.95519" lon="5.12644">
        <ele>388.59298706055</ele>
        <time>2010-01-23T15:07:05Z</time>
      </trkpt>
      <trkpt lat="44.95542" lon="5.12669">
        <ele>390.22900390625</ele>
        <time>2010-01-23T15:07:14Z</time>
      </trkpt>
      <trkpt lat="44.95569" lon="5.12698">
        <ele>392.04000854492</ele>
        <time>2010-01-23T15:07:25Z</time>
      </trkpt>
      <trkpt lat="44.95593" lon="5.12724">
        <ele>393.46600341797</ele>
        <time>2010-01-23T15:07:34Z</time>
      </trkpt>
      <trkpt lat="44.95623" lon="5.12756">
        <ele>395.33200073242</ele>
        <time>2010-01-23T15:07:45Z</time>
      </trkpt>
      <trkpt lat="44.95655" lon="5.12791">
        <ele>396.51800537109</ele>
        <time>2010-01-23T15:07:55Z</time>
      </trkpt>
      <trkpt lat="44.95691" lon="5.12832">
        <ele>397.67300415039</ele>
        <time>2010-01-23T15:08:05Z</time>
      </trkpt>
      <trkpt lat="44.9572" lon="5.12875">
        <ele>398.6789855957</ele>
        <time>2010-01-23T15:08:13Z</time>
      </trkpt>
      <trkpt lat="44.95749" lon="5.12922">
        <ele>398.94100952148</ele>
        <time>2010-01-23T15:08:21Z</time>
      </trkpt>
      <trkpt lat="44.95798" lon="5.13002">
        <ele>400.53298950195</ele>
        <time>2010-01-23T15:08:34Z</time>
      </trkpt>
      <trkpt lat="44.95841" lon="5.13072">
        <ele>401.9049987793</ele>
        <time>2010-01-23T15:08:45Z</time>
      </trkpt>
      <trkpt lat="44.95874" lon="5.13125">
        <ele>402.96600341797</ele>
        <time>2010-01-23T15:08:53Z</time>
      </trkpt>
      <trkpt lat="44.95915" lon="5.13191">
        <ele>403.63299560547</ele>
        <time>2010-01-23T15:09:03Z</time>
      </trkpt>
      <trkpt lat="44.95934" lon="5.13221">
        <ele>404.52398681641</ele>
        <time>2010-01-23T15:09:09Z</time>
      </trkpt>
      <trkpt lat="44.95943" lon="5.13235">
        <ele>404.2380065918</ele>
        <time>2010-01-23T15:09:13Z</time>
      </trkpt>
      <trkpt lat="44.95947" lon="5.13242">
        <ele>403.92401123047</ele>
        <time>2010-01-23T15:09:18Z</time>
      </trkpt>
      <trkpt lat="44.95948" lon="5.13244">
        <ele>404.04098510742</ele>
        <time>2010-01-23T15:09:37Z</time>
      </trkpt>
      <trkpt lat="44.9595" lon="5.13247">
        <ele>404.20901489258</ele>
        <time>2010-01-23T15:09:41Z</time>
      </trkpt>
      <trkpt lat="44.95954" lon="5.13253">
        <ele>403.71600341797</ele>
        <time>2010-01-23T15:09:52Z</time>
      </trkpt>
      <trkpt lat="44.95964" lon="5.1327">
        <ele>403.86700439453</ele>
        <time>2010-01-23T15:09:57Z</time>
      </trkpt>
      <trkpt lat="44.9598" lon="5.13296">
        <ele>404.02398681641</ele>
        <time>2010-01-23T15:10:03Z</time>
      </trkpt>
      <trkpt lat="44.95996" lon="5.13322">
        <ele>404.23001098633</ele>
        <time>2010-01-23T15:10:08Z</time>
      </trkpt>
      <trkpt lat="44.96024" lon="5.13369">
        <ele>404.26699829102</ele>
        <time>2010-01-23T15:10:16Z</time>
      </trkpt>
      <trkpt lat="44.96056" lon="5.13431">
        <ele>404.18301391602</ele>
        <time>2010-01-23T15:10:25Z</time>
      </trkpt>
      <trkpt lat="44.96089" lon="5.13502">
        <ele>403.92999267578</ele>
        <time>2010-01-23T15:10:34Z</time>
      </trkpt>
      <trkpt lat="44.96103" lon="5.13533">
        <ele>403.125</ele>
        <time>2010-01-23T15:10:38Z</time>
      </trkpt>
      <trkpt lat="44.9611" lon="5.13548">
        <ele>403.33700561523</ele>
        <time>2010-01-23T15:10:40Z</time>
      </trkpt>
      <trkpt lat="44.96139" lon="5.13594">
        <ele>402.79800415039</ele>
        <time>2010-01-23T15:10:47Z</time>
      </trkpt>
      <trkpt lat="44.96175" lon="5.13637">
        <ele>403.0950012207</ele>
        <time>2010-01-23T15:10:54Z</time>
      </trkpt>
      <trkpt lat="44.9623" lon="5.13703">
        <ele>403.65301513672</ele>
        <time>2010-01-23T15:11:05Z</time>
      </trkpt>
      <trkpt lat="44.96273" lon="5.13754">
        <ele>402.89401245117</ele>
        <time>2010-01-23T15:11:13Z</time>
      </trkpt>
      <trkpt lat="44.9632" lon="5.13791">
        <ele>401.07901000977</ele>
        <time>2010-01-23T15:11:20Z</time>
      </trkpt>
      <trkpt lat="44.96381" lon="5.13838">
        <ele>398.85501098633</ele>
        <time>2010-01-23T15:11:28Z</time>
      </trkpt>
      <trkpt lat="44.96445" lon="5.13888">
        <ele>396.30899047852</ele>
        <time>2010-01-23T15:11:36Z</time>
      </trkpt>
      <trkpt lat="44.96497" lon="5.13941">
        <ele>394.69799804688</ele>
        <time>2010-01-23T15:11:43Z</time>
      </trkpt>
      <trkpt lat="44.96515" lon="5.13967">
        <ele>393.20001220703</ele>
        <time>2010-01-23T15:11:48Z</time>
      </trkpt>
      <trkpt lat="44.96575" lon="5.14071">
        <ele>392.07598876953</ele>
        <time>2010-01-23T15:11:56Z</time>
      </trkpt>
      <trkpt lat="44.9662" lon="5.14152">
        <ele>391.9280090332</ele>
        <time>2010-01-23T15:12:04Z</time>
      </trkpt>
      <trkpt lat="44.96673" lon="5.14232">
        <ele>391.51800537109</ele>
        <time>2010-01-23T15:12:13Z</time>
      </trkpt>
      <trkpt lat="44.96701" lon="5.14293">
        <ele>392.20700073242</ele>
        <time>2010-01-23T15:12:19Z</time>
      </trkpt>
      <trkpt lat="44.96744" lon="5.14373">
        <ele>393.20700073242</ele>
        <time>2010-01-23T15:12:28Z</time>
      </trkpt>
      <trkpt lat="44.96759" lon="5.144">
        <ele>393.77600097656</ele>
        <time>2010-01-23T15:12:31Z</time>
      </trkpt>
      <trkpt lat="44.96799" lon="5.14463">
        <ele>394.26501464844</ele>
        <time>2010-01-23T15:12:39Z</time>
      </trkpt>
      <trkpt lat="44.96828" lon="5.14494">
        <ele>394.70401000977</ele>
        <time>2010-01-23T15:12:44Z</time>
      </trkpt>
      <trkpt lat="44.96848" lon="5.14511">
        <ele>394.67401123047</ele>
        <time>2010-01-23T15:12:47Z</time>
      </trkpt>
      <trkpt lat="44.96883" lon="5.1455">
        <ele>395.47698974609</ele>
        <time>2010-01-23T15:12:53Z</time>
      </trkpt>
      <trkpt lat="44.96923" lon="5.14605">
        <ele>395.95401000977</ele>
        <time>2010-01-23T15:13:01Z</time>
      </trkpt>
      <trkpt lat="44.96954" lon="5.14652">
        <ele>394.42599487305</ele>
        <time>2010-01-23T15:13:07Z</time>
      </trkpt>
      <trkpt lat="44.96995" lon="5.14715">
        <ele>392.03201293945</ele>
        <time>2010-01-23T15:13:14Z</time>
      </trkpt>
      <trkpt lat="44.97021" lon="5.14755">
        <ele>389.97299194336</ele>
        <time>2010-01-23T15:13:18Z</time>
      </trkpt>
      <trkpt lat="44.97065" lon="5.14821">
        <ele>386.65301513672</ele>
        <time>2010-01-23T15:13:24Z</time>
      </trkpt>
      <trkpt lat="44.97111" lon="5.14889">
        <ele>383.60198974609</ele>
        <time>2010-01-23T15:13:30Z</time>
      </trkpt>
      <trkpt lat="44.97151" lon="5.14947">
        <ele>382.12899780273</ele>
        <time>2010-01-23T15:13:35Z</time>
      </trkpt>
      <trkpt lat="44.97186" lon="5.14986">
        <ele>380.66000366211</ele>
        <time>2010-01-23T15:13:39Z</time>
      </trkpt>
      <trkpt lat="44.97229" lon="5.15009">
        <ele>377.5</ele>
        <time>2010-01-23T15:13:43Z</time>
      </trkpt>
      <trkpt lat="44.9728" lon="5.15055">
        <ele>375.45001220703</ele>
        <time>2010-01-23T15:13:48Z</time>
      </trkpt>
      <trkpt lat="44.97301" lon="5.15079">
        <ele>378.30099487305</ele>
        <time>2010-01-23T15:13:52Z</time>
      </trkpt>
      <trkpt lat="44.97337" lon="5.15154">
        <ele>381.70498657227</ele>
        <time>2010-01-23T15:13:57Z</time>
      </trkpt>
      <trkpt lat="44.97351" lon="5.15184">
        <ele>383.11700439453</ele>
        <time>2010-01-23T15:14:00Z</time>
      </trkpt>
      <trkpt lat="44.97352" lon="5.15186">
        <ele>384.96200561523</ele>
        <time>2010-01-23T15:14:03Z</time>
      </trkpt>
      <trkpt lat="44.97382" lon="5.15233">
        <ele>385.76800537109</ele>
        <time>2010-01-23T15:14:06Z</time>
      </trkpt>
      <trkpt lat="44.97394" lon="5.15245">
        <ele>385.9169921875</ele>
        <time>2010-01-23T15:14:08Z</time>
      </trkpt>
      <trkpt lat="44.97401" lon="5.15251">
        <ele>386.06201171875</ele>
        <time>2010-01-23T15:14:09Z</time>
      </trkpt>
      <trkpt lat="44.9743" lon="5.15265">
        <ele>387.69299316406</ele>
        <time>2010-01-23T15:14:13Z</time>
      </trkpt>
      <trkpt lat="44.97456" lon="5.15277">
        <ele>389.03799438477</ele>
        <time>2010-01-23T15:14:17Z</time>
      </trkpt>
      <trkpt lat="44.97505" lon="5.15295">
        <ele>389.55801391602</ele>
        <time>2010-01-23T15:14:24Z</time>
      </trkpt>
      <trkpt lat="44.97549" lon="5.1531">
        <ele>390.73199462891</ele>
        <time>2010-01-23T15:14:34Z</time>
      </trkpt>
      <trkpt lat="44.97625" lon="5.15349">
        <ele>390.55599975586</ele>
        <time>2010-01-23T15:14:41Z</time>
      </trkpt>
      <trkpt lat="44.97677" lon="5.15379">
        <ele>389.97500610352</ele>
        <time>2010-01-23T15:14:48Z</time>
      </trkpt>
      <trkpt lat="44.9773" lon="5.1542">
        <ele>389.46798706055</ele>
        <time>2010-01-23T15:14:55Z</time>
      </trkpt>
      <trkpt lat="44.97787" lon="5.15471">
        <ele>390.02301025391</ele>
        <time>2010-01-23T15:15:03Z</time>
      </trkpt>
      <trkpt lat="44.97846" lon="5.15527">
        <ele>391.39199829102</ele>
        <time>2010-01-23T15:15:12Z</time>
      </trkpt>
      <trkpt lat="44.97894" lon="5.15582">
        <ele>392.61700439453</ele>
        <time>2010-01-23T15:15:19Z</time>
      </trkpt>
      <trkpt lat="44.97946" lon="5.15644">
        <ele>393.15798950195</ele>
        <time>2010-01-23T15:15:27Z</time>
      </trkpt>
      <trkpt lat="44.98007" lon="5.15712">
        <ele>394.26400756836</ele>
        <time>2010-01-23T15:15:36Z</time>
      </trkpt>
      <trkpt lat="44.98041" lon="5.1576">
        <ele>394.52099609375</ele>
        <time>2010-01-23T15:15:42Z</time>
      </trkpt>
      <trkpt lat="44.98067" lon="5.15823">
        <ele>393.00201416016</ele>
        <time>2010-01-23T15:15:48Z</time>
      </trkpt>
      <trkpt lat="44.98081" lon="5.15857">
        <ele>390.99200439453</ele>
        <time>2010-01-23T15:15:51Z</time>
      </trkpt>
      <trkpt lat="44.98086" lon="5.15896">
        <ele>389.34201049805</ele>
        <time>2010-01-23T15:15:54Z</time>
      </trkpt>
      <trkpt lat="44.98086" lon="5.1591">
        <ele>388.8869934082</ele>
        <time>2010-01-23T15:15:55Z</time>
      </trkpt>
      <trkpt lat="44.9805" lon="5.16">
        <ele>384.3030090332</ele>
        <time>2010-01-23T15:16:02Z</time>
      </trkpt>
      <trkpt lat="44.98024" lon="5.16051">
        <ele>381.58599853516</ele>
        <time>2010-01-23T15:16:06Z</time>
      </trkpt>
      <trkpt lat="44.98002" lon="5.1609">
        <ele>379.88000488281</ele>
        <time>2010-01-23T15:16:09Z</time>
      </trkpt>
      <trkpt lat="44.9797" lon="5.16161">
        <ele>377.56799316406</ele>
        <time>2010-01-23T15:16:14Z</time>
      </trkpt>
      <trkpt lat="44.97947" lon="5.162">
        <ele>375.66900634766</ele>
        <time>2010-01-23T15:16:17Z</time>
      </trkpt>
      <trkpt lat="44.97916" lon="5.16228">
        <ele>373.50799560547</ele>
        <time>2010-01-23T15:16:20Z</time>
      </trkpt>
      <trkpt lat="44.97902" lon="5.16253">
        <ele>372.30899047852</ele>
        <time>2010-01-23T15:16:22Z</time>
      </trkpt>
      <trkpt lat="44.97902" lon="5.16286">
        <ele>371.39401245117</ele>
        <time>2010-01-23T15:16:24Z</time>
      </trkpt>
      <trkpt lat="44.97911" lon="5.16311">
        <ele>371.87600708008</ele>
        <time>2010-01-23T15:16:26Z</time>
      </trkpt>
      <trkpt lat="44.97919" lon="5.16318">
        <ele>371.2080078125</ele>
        <time>2010-01-23T15:16:27Z</time>
      </trkpt>
      <trkpt lat="44.97968" lon="5.16353">
        <ele>372.13400268555</ele>
        <time>2010-01-23T15:16:33Z</time>
      </trkpt>
      <trkpt lat="44.98001" lon="5.16374">
        <ele>373.06201171875</ele>
        <time>2010-01-23T15:16:38Z</time>
      </trkpt>
      <trkpt lat="44.98033" lon="5.16391">
        <ele>374.22100830078</ele>
        <time>2010-01-23T15:16:44Z</time>
      </trkpt>
      <trkpt lat="44.98064" lon="5.16394">
        <ele>376.24499511719</ele>
        <time>2010-01-23T15:16:50Z</time>
      </trkpt>
      <trkpt lat="44.98069" lon="5.16393">
        <ele>376.54000854492</ele>
        <time>2010-01-23T15:16:51Z</time>
      </trkpt>
      <trkpt lat="44.98107" lon="5.16381">
        <ele>378.77801513672</ele>
        <time>2010-01-23T15:16:59Z</time>
      </trkpt>
      <trkpt lat="44.98143" lon="5.16367">
        <ele>382.04098510742</ele>
        <time>2010-01-23T15:17:06Z</time>
      </trkpt>
      <trkpt lat="44.98149" lon="5.16365">
        <ele>382.20999145508</ele>
        <time>2010-01-23T15:17:07Z</time>
      </trkpt>
      <trkpt lat="44.98159" lon="5.16362">
        <ele>383.12100219727</ele>
        <time>2010-01-23T15:17:09Z</time>
      </trkpt>
      <trkpt lat="44.98186" lon="5.16364">
        <ele>386.06799316406</ele>
        <time>2010-01-23T15:17:15Z</time>
      </trkpt>
      <trkpt lat="44.98191" lon="5.16364">
        <ele>386.28698730469</ele>
        <time>2010-01-23T15:17:16Z</time>
      </trkpt>
      <trkpt lat="44.98199" lon="5.16365">
        <ele>386.81900024414</ele>
        <time>2010-01-23T15:17:18Z</time>
      </trkpt>
      <trkpt lat="44.98222" lon="5.16361">
        <ele>389.12100219727</ele>
        <time>2010-01-23T15:17:23Z</time>
      </trkpt>
      <trkpt lat="44.98226" lon="5.16358">
        <ele>389.42199707031</ele>
        <time>2010-01-23T15:17:24Z</time>
      </trkpt>
      <trkpt lat="44.98263" lon="5.1631">
        <ele>392.48199462891</ele>
        <time>2010-01-23T15:17:35Z</time>
      </trkpt>
      <trkpt lat="44.98288" lon="5.16277">
        <ele>395.45401000977</ele>
        <time>2010-01-23T15:17:42Z</time>
      </trkpt>
      <trkpt lat="44.98297" lon="5.16268">
        <ele>396.19100952148</ele>
        <time>2010-01-23T15:17:44Z</time>
      </trkpt>
      <trkpt lat="44.98311" lon="5.16256">
        <ele>397.45401000977</ele>
        <time>2010-01-23T15:17:47Z</time>
      </trkpt>
      <trkpt lat="44.98335" lon="5.1624">
        <ele>399.17498779297</ele>
        <time>2010-01-23T15:17:52Z</time>
      </trkpt>
      <trkpt lat="44.98344" lon="5.16236">
        <ele>400.36199951172</ele>
        <time>2010-01-23T15:17:54Z</time>
      </trkpt>
      <trkpt lat="44.98366" lon="5.16242">
        <ele>402.20001220703</ele>
        <time>2010-01-23T15:17:59Z</time>
      </trkpt>
      <trkpt lat="44.98373" lon="5.1625">
        <ele>402.27801513672</ele>
        <time>2010-01-23T15:18:01Z</time>
      </trkpt>
      <trkpt lat="44.98406" lon="5.16296">
        <ele>402.55999755859</ele>
        <time>2010-01-23T15:18:11Z</time>
      </trkpt>
      <trkpt lat="44.9843" lon="5.16332">
        <ele>402.40899658203</ele>
        <time>2010-01-23T15:18:18Z</time>
      </trkpt>
      <trkpt lat="44.98467" lon="5.16382">
        <ele>401.92401123047</ele>
        <time>2010-01-23T15:18:28Z</time>
      </trkpt>
      <trkpt lat="44.98498" lon="5.16421">
        <ele>402.21600341797</ele>
        <time>2010-01-23T15:18:36Z</time>
      </trkpt>
      <trkpt lat="44.98528" lon="5.16452">
        <ele>403.2380065918</ele>
        <time>2010-01-23T15:18:45Z</time>
      </trkpt>
      <trkpt lat="44.98558" lon="5.16482">
        <ele>404.39199829102</ele>
        <time>2010-01-23T15:18:54Z</time>
      </trkpt>
      <trkpt lat="44.9859" lon="5.16514">
        <ele>404.91198730469</ele>
        <time>2010-01-23T15:19:04Z</time>
      </trkpt>
      <trkpt lat="44.98612" lon="5.16536">
        <ele>404.80200195312</ele>
        <time>2010-01-23T15:19:11Z</time>
      </trkpt>
      <trkpt lat="44.98639" lon="5.16562">
        <ele>404.77099609375</ele>
        <time>2010-01-23T15:19:19Z</time>
      </trkpt>
      <trkpt lat="44.98657" lon="5.1659">
        <ele>405.13500976562</ele>
        <time>2010-01-23T15:19:26Z</time>
      </trkpt>
      <trkpt lat="44.98681" lon="5.16631">
        <ele>405.32400512695</ele>
        <time>2010-01-23T15:19:35Z</time>
      </trkpt>
      <trkpt lat="44.98708" lon="5.16677">
        <ele>406.60900878906</ele>
        <time>2010-01-23T15:19:45Z</time>
      </trkpt>
      <trkpt lat="44.98741" lon="5.1672">
        <ele>406.81900024414</ele>
        <time>2010-01-23T15:19:55Z</time>
      </trkpt>
      <trkpt lat="44.98775" lon="5.1675">
        <ele>408.41198730469</ele>
        <time>2010-01-23T15:20:04Z</time>
      </trkpt>
      <trkpt lat="44.98796" lon="5.16768">
        <ele>409.22601318359</ele>
        <time>2010-01-23T15:20:10Z</time>
      </trkpt>
      <trkpt lat="44.98827" lon="5.16794">
        <ele>408.87399291992</ele>
        <time>2010-01-23T15:20:18Z</time>
      </trkpt>
      <trkpt lat="44.98856" lon="5.16831">
        <ele>407.88800048828</ele>
        <time>2010-01-23T15:20:25Z</time>
      </trkpt>
      <trkpt lat="44.98871" lon="5.16848">
        <ele>406.64099121094</ele>
        <time>2010-01-23T15:20:28Z</time>
      </trkpt>
      <trkpt lat="44.98912" lon="5.16894">
        <ele>404.67700195312</ele>
        <time>2010-01-23T15:20:35Z</time>
      </trkpt>
      <trkpt lat="44.98938" lon="5.16918">
        <ele>404.70901489258</ele>
        <time>2010-01-23T15:20:39Z</time>
      </trkpt>
      <trkpt lat="44.9897" lon="5.16929">
        <ele>404.76400756836</ele>
        <time>2010-01-23T15:20:44Z</time>
      </trkpt>
      <trkpt lat="44.99011" lon="5.16945">
        <ele>404.36999511719</ele>
        <time>2010-01-23T15:20:51Z</time>
      </trkpt>
      <trkpt lat="44.99039" lon="5.1696">
        <ele>404.04000854492</ele>
        <time>2010-01-23T15:20:56Z</time>
      </trkpt>
      <trkpt lat="44.99056" lon="5.16965">
        <ele>403.92599487305</ele>
        <time>2010-01-23T15:20:59Z</time>
      </trkpt>
      <trkpt lat="44.99095" lon="5.16964">
        <ele>404.76400756836</ele>
        <time>2010-01-23T15:21:07Z</time>
      </trkpt>
      <trkpt lat="44.99123" lon="5.16964">
        <ele>405.00799560547</ele>
        <time>2010-01-23T15:21:13Z</time>
      </trkpt>
      <trkpt lat="44.9914" lon="5.16965">
        <ele>405.05700683594</ele>
        <time>2010-01-23T15:21:17Z</time>
      </trkpt>
      <trkpt lat="44.99166" lon="5.16972">
        <ele>405.14300537109</ele>
        <time>2010-01-23T15:21:23Z</time>
      </trkpt>
      <trkpt lat="44.99212" lon="5.16992">
        <ele>405.51098632812</ele>
        <time>2010-01-23T15:21:32Z</time>
      </trkpt>
      <trkpt lat="44.99217" lon="5.16994">
        <ele>405.5530090332</ele>
        <time>2010-01-23T15:21:33Z</time>
      </trkpt>
      <trkpt lat="44.99255" lon="5.17022">
        <ele>406.48199462891</ele>
        <time>2010-01-23T15:21:41Z</time>
      </trkpt>
      <trkpt lat="44.99295" lon="5.17069">
        <ele>407.89099121094</ele>
        <time>2010-01-23T15:21:51Z</time>
      </trkpt>
      <trkpt lat="44.9932" lon="5.17099">
        <ele>408.84298706055</ele>
        <time>2010-01-23T15:21:58Z</time>
      </trkpt>
      <trkpt lat="44.99342" lon="5.17125">
        <ele>409.9169921875</ele>
        <time>2010-01-23T15:22:04Z</time>
      </trkpt>
      <trkpt lat="44.99371" lon="5.1716">
        <ele>411.23400878906</ele>
        <time>2010-01-23T15:22:12Z</time>
      </trkpt>
      <trkpt lat="44.99397" lon="5.17191">
        <ele>412.50201416016</ele>
        <time>2010-01-23T15:22:19Z</time>
      </trkpt>
      <trkpt lat="44.9942" lon="5.17219">
        <ele>413.87200927734</ele>
        <time>2010-01-23T15:22:26Z</time>
      </trkpt>
      <trkpt lat="44.99442" lon="5.17248">
        <ele>415.51901245117</ele>
        <time>2010-01-23T15:22:33Z</time>
      </trkpt>
      <trkpt lat="44.99463" lon="5.17275">
        <ele>416.49301147461</ele>
        <time>2010-01-23T15:22:39Z</time>
      </trkpt>
      <trkpt lat="44.99488" lon="5.17302">
        <ele>417.37899780273</ele>
        <time>2010-01-23T15:22:46Z</time>
      </trkpt>
      <trkpt lat="44.99511" lon="5.1732">
        <ele>418.91000366211</ele>
        <time>2010-01-23T15:22:52Z</time>
      </trkpt>
      <trkpt lat="44.99519" lon="5.17326">
        <ele>419.26300048828</ele>
        <time>2010-01-23T15:22:54Z</time>
      </trkpt>
      <trkpt lat="44.99547" lon="5.17348">
        <ele>421.06600952148</ele>
        <time>2010-01-23T15:23:02Z</time>
      </trkpt>
      <trkpt lat="44.99557" lon="5.17356">
        <ele>421.61898803711</ele>
        <time>2010-01-23T15:23:05Z</time>
      </trkpt>
      <trkpt lat="44.99582" lon="5.17375">
        <ele>422.78500366211</ele>
        <time>2010-01-23T15:23:12Z</time>
      </trkpt>
      <trkpt lat="44.99593" lon="5.17383">
        <ele>423.28698730469</ele>
        <time>2010-01-23T15:23:15Z</time>
      </trkpt>
      <trkpt lat="44.9961" lon="5.17413">
        <ele>424.625</ele>
        <time>2010-01-23T15:23:22Z</time>
      </trkpt>
      <trkpt lat="44.99625" lon="5.17442">
        <ele>425.95199584961</ele>
        <time>2010-01-23T15:23:29Z</time>
      </trkpt>
      <trkpt lat="44.99643" lon="5.17485">
        <ele>427.60900878906</ele>
        <time>2010-01-23T15:23:38Z</time>
      </trkpt>
      <trkpt lat="44.99658" lon="5.17522">
        <ele>429.25201416016</ele>
        <time>2010-01-23T15:23:46Z</time>
      </trkpt>
      <trkpt lat="44.99672" lon="5.17552">
        <ele>430.42199707031</ele>
        <time>2010-01-23T15:23:52Z</time>
      </trkpt>
      <trkpt lat="44.99702" lon="5.17566">
        <ele>431.67498779297</ele>
        <time>2010-01-23T15:24:00Z</time>
      </trkpt>
      <trkpt lat="44.9973" lon="5.17581">
        <ele>432.66799926758</ele>
        <time>2010-01-23T15:24:07Z</time>
      </trkpt>
      <trkpt lat="44.99757" lon="5.176">
        <ele>433.60900878906</ele>
        <time>2010-01-23T15:24:14Z</time>
      </trkpt>
      <trkpt lat="44.99772" lon="5.17614">
        <ele>434.18399047852</ele>
        <time>2010-01-23T15:24:18Z</time>
      </trkpt>
      <trkpt lat="44.99783" lon="5.17625">
        <ele>434.8210144043</ele>
        <time>2010-01-23T15:24:21Z</time>
      </trkpt>
      <trkpt lat="44.99795" lon="5.17641">
        <ele>435.5950012207</ele>
        <time>2010-01-23T15:24:25Z</time>
      </trkpt>
      <trkpt lat="44.99825" lon="5.17682">
        <ele>437.77398681641</ele>
        <time>2010-01-23T15:24:35Z</time>
      </trkpt>
      <trkpt lat="44.99849" lon="5.17704">
        <ele>437.86599731445</ele>
        <time>2010-01-23T15:24:41Z</time>
      </trkpt>
      <trkpt lat="44.9989" lon="5.17726">
        <ele>436.58401489258</ele>
        <time>2010-01-23T15:24:48Z</time>
      </trkpt>
      <trkpt lat="44.99935" lon="5.17746">
        <ele>434.97799682617</ele>
        <time>2010-01-23T15:24:54Z</time>
      </trkpt>
      <trkpt lat="44.99977" lon="5.17779">
        <ele>434.47698974609</ele>
        <time>2010-01-23T15:25:00Z</time>
      </trkpt>
      <trkpt lat="45.00021" lon="5.1782">
        <ele>432.63800048828</ele>
        <time>2010-01-23T15:25:06Z</time>
      </trkpt>
      <trkpt lat="45.00071" lon="5.17859">
        <ele>429.59600830078</ele>
        <time>2010-01-23T15:25:12Z</time>
      </trkpt>
      <trkpt lat="45.0012" lon="5.17881">
        <ele>425.79699707031</ele>
        <time>2010-01-23T15:25:17Z</time>
      </trkpt>
      <trkpt lat="45.00191" lon="5.17893">
        <ele>418.875</ele>
        <time>2010-01-23T15:25:23Z</time>
      </trkpt>
      <trkpt lat="45.00204" lon="5.17894">
        <ele>417.41900634766</ele>
        <time>2010-01-23T15:25:24Z</time>
      </trkpt>
      <trkpt lat="45.00259" lon="5.17886">
        <ele>413.69900512695</ele>
        <time>2010-01-23T15:25:28Z</time>
      </trkpt>
      <trkpt lat="45.00271" lon="5.17879">
        <ele>412.94900512695</ele>
        <time>2010-01-23T15:25:29Z</time>
      </trkpt>
      <trkpt lat="45.00301" lon="5.17854">
        <ele>410.32699584961</ele>
        <time>2010-01-23T15:25:32Z</time>
      </trkpt>
      <trkpt lat="45.00305" lon="5.17825">
        <ele>408.75601196289</ele>
        <time>2010-01-23T15:25:34Z</time>
      </trkpt>
      <trkpt lat="45.00305" lon="5.17778">
        <ele>406.53201293945</ele>
        <time>2010-01-23T15:25:37Z</time>
      </trkpt>
      <trkpt lat="45.00313" lon="5.17713">
        <ele>404.06698608398</ele>
        <time>2010-01-23T15:25:41Z</time>
      </trkpt>
      <trkpt lat="45.0033" lon="5.17654">
        <ele>398.88900756836</ele>
        <time>2010-01-23T15:25:45Z</time>
      </trkpt>
      <trkpt lat="45.00349" lon="5.17627">
        <ele>396.73599243164</ele>
        <time>2010-01-23T15:25:48Z</time>
      </trkpt>
      <trkpt lat="45.00368" lon="5.17625">
        <ele>394.27200317383</ele>
        <time>2010-01-23T15:25:50Z</time>
      </trkpt>
      <trkpt lat="45.00379" lon="5.17627">
        <ele>393.32800292969</ele>
        <time>2010-01-23T15:25:51Z</time>
      </trkpt>
      <trkpt lat="45.00409" lon="5.17651">
        <ele>391.47198486328</ele>
        <time>2010-01-23T15:25:54Z</time>
      </trkpt>
      <trkpt lat="45.00453" lon="5.17672">
        <ele>387.12701416016</ele>
        <time>2010-01-23T15:25:58Z</time>
      </trkpt>
      <trkpt lat="45.00514" lon="5.17699">
        <ele>382.85299682617</ele>
        <time>2010-01-23T15:26:03Z</time>
      </trkpt>
      <trkpt lat="45.00539" lon="5.17712">
        <ele>382.00900268555</ele>
        <time>2010-01-23T15:26:05Z</time>
      </trkpt>
      <trkpt lat="45.00625" lon="5.17758">
        <ele>377.1789855957</ele>
        <time>2010-01-23T15:26:12Z</time>
      </trkpt>
      <trkpt lat="45.007" lon="5.17797">
        <ele>372.21200561523</ele>
        <time>2010-01-23T15:26:18Z</time>
      </trkpt>
      <trkpt lat="45.0076" lon="5.17829">
        <ele>370.20498657227</ele>
        <time>2010-01-23T15:26:23Z</time>
      </trkpt>
      <trkpt lat="45.00782" lon="5.1784">
        <ele>369.88900756836</ele>
        <time>2010-01-23T15:26:25Z</time>
      </trkpt>
      <trkpt lat="45.00816" lon="5.17883">
        <ele>368.98999023438</ele>
        <time>2010-01-23T15:26:29Z</time>
      </trkpt>
      <trkpt lat="45.0082" lon="5.17896">
        <ele>369.15301513672</ele>
        <time>2010-01-23T15:26:30Z</time>
      </trkpt>
      <trkpt lat="45.00842" lon="5.17978">
        <ele>369.40399169922</ele>
        <time>2010-01-23T15:26:37Z</time>
      </trkpt>
      <trkpt lat="45.00853" lon="5.18027">
        <ele>369.49700927734</ele>
        <time>2010-01-23T15:26:41Z</time>
      </trkpt>
      <trkpt lat="45.00862" lon="5.18064">
        <ele>369.17401123047</ele>
        <time>2010-01-23T15:26:44Z</time>
      </trkpt>
      <trkpt lat="45.00868" lon="5.1809">
        <ele>368.58700561523</ele>
        <time>2010-01-23T15:26:46Z</time>
      </trkpt>
      <trkpt lat="45.00896" lon="5.18147">
        <ele>366.66299438477</ele>
        <time>2010-01-23T15:26:51Z</time>
      </trkpt>
      <trkpt lat="45.00949" lon="5.18208">
        <ele>363.59399414062</ele>
        <time>2010-01-23T15:26:57Z</time>
      </trkpt>
      <trkpt lat="45.01024" lon="5.18289">
        <ele>361.10501098633</ele>
        <time>2010-01-23T15:27:05Z</time>
      </trkpt>
      <trkpt lat="45.0107" lon="5.18333">
        <ele>359.79998779297</ele>
        <time>2010-01-23T15:27:10Z</time>
      </trkpt>
      <trkpt lat="45.011" lon="5.18358">
        <ele>358.46600341797</ele>
        <time>2010-01-23T15:27:13Z</time>
      </trkpt>
      <trkpt lat="45.0111" lon="5.18366">
        <ele>358.19198608398</ele>
        <time>2010-01-23T15:27:14Z</time>
      </trkpt>
      <trkpt lat="45.01183" lon="5.18426">
        <ele>353.82901000977</ele>
        <time>2010-01-23T15:27:21Z</time>
      </trkpt>
      <trkpt lat="45.01216" lon="5.18453">
        <ele>352.35998535156</ele>
        <time>2010-01-23T15:27:24Z</time>
      </trkpt>
      <trkpt lat="45.01297" lon="5.18521">
        <ele>346.79598999023</ele>
        <time>2010-01-23T15:27:31Z</time>
      </trkpt>
      <trkpt lat="45.01308" lon="5.18532">
        <ele>346.23199462891</ele>
        <time>2010-01-23T15:27:32Z</time>
      </trkpt>
      <trkpt lat="45.01352" lon="5.18588">
        <ele>342.87200927734</ele>
        <time>2010-01-23T15:27:36Z</time>
      </trkpt>
      <trkpt lat="45.01369" lon="5.18622">
        <ele>341.95700073242</ele>
        <time>2010-01-23T15:27:38Z</time>
      </trkpt>
      <trkpt lat="45.01425" lon="5.18738">
        <ele>337.65200805664</ele>
        <time>2010-01-23T15:27:45Z</time>
      </trkpt>
      <trkpt lat="45.01466" lon="5.18789">
        <ele>334.57800292969</ele>
        <time>2010-01-23T15:27:49Z</time>
      </trkpt>
      <trkpt lat="45.01569" lon="5.18896">
        <ele>327.50698852539</ele>
        <time>2010-01-23T15:27:58Z</time>
      </trkpt>
      <trkpt lat="45.0162" lon="5.18938">
        <ele>323.54000854492</ele>
        <time>2010-01-23T15:28:02Z</time>
      </trkpt>
      <trkpt lat="45.01719" lon="5.19">
        <ele>316.3330078125</ele>
        <time>2010-01-23T15:28:09Z</time>
      </trkpt>
      <trkpt lat="45.01833" lon="5.19061">
        <ele>308.78500366211</ele>
        <time>2010-01-23T15:28:17Z</time>
      </trkpt>
      <trkpt lat="45.01945" lon="5.19122">
        <ele>303.31298828125</ele>
        <time>2010-01-23T15:28:25Z</time>
      </trkpt>
      <trkpt lat="45.02057" lon="5.19181">
        <ele>298.3210144043</ele>
        <time>2010-01-23T15:28:33Z</time>
      </trkpt>
      <trkpt lat="45.02084" lon="5.19195">
        <ele>297.41900634766</ele>
        <time>2010-01-23T15:28:35Z</time>
      </trkpt>
      <trkpt lat="45.0215" lon="5.19239">
        <ele>294.44100952148</ele>
        <time>2010-01-23T15:28:40Z</time>
      </trkpt>
      <trkpt lat="45.02188" lon="5.1927">
        <ele>292.4580078125</ele>
        <time>2010-01-23T15:28:43Z</time>
      </trkpt>
      <trkpt lat="45.02257" lon="5.19333">
        <ele>289.5719909668</ele>
        <time>2010-01-23T15:28:49Z</time>
      </trkpt>
      <trkpt lat="45.02288" lon="5.19368">
        <ele>288.16900634766</ele>
        <time>2010-01-23T15:28:52Z</time>
      </trkpt>
      <trkpt lat="45.02361" lon="5.19449">
        <ele>285.35998535156</ele>
        <time>2010-01-23T15:28:59Z</time>
      </trkpt>
      <trkpt lat="45.02382" lon="5.19473">
        <ele>282.48901367188</ele>
        <time>2010-01-23T15:29:04Z</time>
      </trkpt>
      <trkpt lat="45.02451" lon="5.19531">
        <ele>280.86199951172</ele>
        <time>2010-01-23T15:29:07Z</time>
      </trkpt>
      <trkpt lat="45.02493" lon="5.19567">
        <ele>277.3330078125</ele>
        <time>2010-01-23T15:29:13Z</time>
      </trkpt>
      <trkpt lat="45.02558" lon="5.19611">
        <ele>275.75900268555</ele>
        <time>2010-01-23T15:29:16Z</time>
      </trkpt>
      <trkpt lat="45.02606" lon="5.19637">
        <ele>272.70498657227</ele>
        <time>2010-01-23T15:29:20Z</time>
      </trkpt>
      <trkpt lat="45.02668" lon="5.1966">
        <ele>269.85998535156</ele>
        <time>2010-01-23T15:29:25Z</time>
      </trkpt>
      <trkpt lat="45.02782" lon="5.19686">
        <ele>265.69100952148</ele>
        <time>2010-01-23T15:29:34Z</time>
      </trkpt>
      <trkpt lat="45.02837" lon="5.197">
        <ele>263.70700073242</ele>
        <time>2010-01-23T15:29:38Z</time>
      </trkpt>
      <trkpt lat="45.0288" lon="5.19712">
        <ele>262.18899536133</ele>
        <time>2010-01-23T15:29:41Z</time>
      </trkpt>
      <trkpt lat="45.02923" lon="5.19723">
        <ele>260.3039855957</ele>
        <time>2010-01-23T15:29:44Z</time>
      </trkpt>
      <trkpt lat="45.02937" lon="5.19727">
        <ele>259.71398925781</ele>
        <time>2010-01-23T15:29:45Z</time>
      </trkpt>
      <trkpt lat="45.0299" lon="5.19741">
        <ele>258.06298828125</ele>
        <time>2010-01-23T15:29:49Z</time>
      </trkpt>
      <trkpt lat="45.03037" lon="5.19764">
        <ele>257.5299987793</ele>
        <time>2010-01-23T15:29:53Z</time>
      </trkpt>
      <trkpt lat="45.03078" lon="5.19805">
        <ele>254.73199462891</ele>
        <time>2010-01-23T15:29:57Z</time>
      </trkpt>
      <trkpt lat="45.03104" lon="5.19809">
        <ele>254.08599853516</ele>
        <time>2010-01-23T15:29:59Z</time>
      </trkpt>
      <trkpt lat="45.03185" lon="5.19811">
        <ele>250.63499450684</ele>
        <time>2010-01-23T15:30:05Z</time>
      </trkpt>
      <trkpt lat="45.03212" lon="5.19812">
        <ele>249.84300231934</ele>
        <time>2010-01-23T15:30:07Z</time>
      </trkpt>
      <trkpt lat="45.03239" lon="5.1981">
        <ele>249.27099609375</ele>
        <time>2010-01-23T15:30:09Z</time>
      </trkpt>
      <trkpt lat="45.03293" lon="5.19806">
        <ele>247.35000610352</ele>
        <time>2010-01-23T15:30:13Z</time>
      </trkpt>
      <trkpt lat="45.03355" lon="5.19772">
        <ele>245.7140045166</ele>
        <time>2010-01-23T15:30:18Z</time>
      </trkpt>
      <trkpt lat="45.03379" lon="5.19757">
        <ele>244.72399902344</ele>
        <time>2010-01-23T15:30:20Z</time>
      </trkpt>
      <trkpt lat="45.03428" lon="5.19737">
        <ele>243.29499816894</ele>
        <time>2010-01-23T15:30:24Z</time>
      </trkpt>
      <trkpt lat="45.03532" lon="5.19741">
        <ele>240.72599792481</ele>
        <time>2010-01-23T15:30:32Z</time>
      </trkpt>
      <trkpt lat="45.0362" lon="5.19747">
        <ele>239.01100158691</ele>
        <time>2010-01-23T15:30:39Z</time>
      </trkpt>
      <trkpt lat="45.03635" lon="5.19748">
        <ele>237.78100585938</ele>
        <time>2010-01-23T15:30:41Z</time>
      </trkpt>
      <trkpt lat="45.03722" lon="5.19752">
        <ele>236.12199401856</ele>
        <time>2010-01-23T15:30:48Z</time>
      </trkpt>
      <trkpt lat="45.03787" lon="5.19759">
        <ele>234.34399414062</ele>
        <time>2010-01-23T15:30:54Z</time>
      </trkpt>
      <trkpt lat="45.03861" lon="5.19766">
        <ele>232.50999450684</ele>
        <time>2010-01-23T15:31:02Z</time>
      </trkpt>
      <trkpt lat="45.03922" lon="5.19771">
        <ele>231.17900085449</ele>
        <time>2010-01-23T15:31:09Z</time>
      </trkpt>
      <trkpt lat="45.03947" lon="5.19774">
        <ele>230.59199523926</ele>
        <time>2010-01-23T15:31:12Z</time>
      </trkpt>
      <trkpt lat="45.04006" lon="5.19781">
        <ele>229.20899963379</ele>
        <time>2010-01-23T15:31:19Z</time>
      </trkpt>
      <trkpt lat="45.04086" lon="5.19792">
        <ele>227.0950012207</ele>
        <time>2010-01-23T15:31:28Z</time>
      </trkpt>
      <trkpt lat="45.04145" lon="5.19806">
        <ele>225.90899658203</ele>
        <time>2010-01-23T15:31:35Z</time>
      </trkpt>
      <trkpt lat="45.04167" lon="5.19812">
        <ele>225.23899841309</ele>
        <time>2010-01-23T15:31:40Z</time>
      </trkpt>
      <trkpt lat="45.0422" lon="5.1985">
        <ele>224.51899719238</ele>
        <time>2010-01-23T15:31:46Z</time>
      </trkpt>
      <trkpt lat="45.04254" lon="5.19859">
        <ele>223.65199279785</ele>
        <time>2010-01-23T15:31:51Z</time>
      </trkpt>
      <trkpt lat="45.04298" lon="5.19856">
        <ele>222.66499328613</ele>
        <time>2010-01-23T15:31:57Z</time>
      </trkpt>
      <trkpt lat="45.04354" lon="5.19852">
        <ele>221.34100341797</ele>
        <time>2010-01-23T15:32:04Z</time>
      </trkpt>
      <trkpt lat="45.04412" lon="5.19847">
        <ele>219.99200439453</ele>
        <time>2010-01-23T15:32:11Z</time>
      </trkpt>
      <trkpt lat="45.0448" lon="5.19842">
        <ele>218.40899658203</ele>
        <time>2010-01-23T15:32:20Z</time>
      </trkpt>
      <trkpt lat="45.04536" lon="5.19835">
        <ele>217.48899841309</ele>
        <time>2010-01-23T15:32:27Z</time>
      </trkpt>
      <trkpt lat="45.04575" lon="5.19829">
        <ele>216.27499389648</ele>
        <time>2010-01-23T15:32:35Z</time>
      </trkpt>
      <trkpt lat="45.04652" lon="5.19824">
        <ele>215.00199890137</ele>
        <time>2010-01-23T15:32:42Z</time>
      </trkpt>
      <trkpt lat="45.04707" lon="5.19821">
        <ele>213.52499389648</ele>
        <time>2010-01-23T15:32:49Z</time>
      </trkpt>
      <trkpt lat="45.04775" lon="5.19816">
        <ele>212.30299377441</ele>
        <time>2010-01-23T15:32:57Z</time>
      </trkpt>
      <trkpt lat="45.04885" lon="5.19809">
        <ele>210.47200012207</ele>
        <time>2010-01-23T15:33:10Z</time>
      </trkpt>
      <trkpt lat="45.04943" lon="5.19798">
        <ele>209.83799743652</ele>
        <time>2010-01-23T15:33:17Z</time>
      </trkpt>
      <trkpt lat="45.04987" lon="5.19785">
        <ele>209.07200622559</ele>
        <time>2010-01-23T15:33:23Z</time>
      </trkpt>
      <trkpt lat="45.05054" lon="5.1977">
        <ele>208.08099365234</ele>
        <time>2010-01-23T15:33:32Z</time>
      </trkpt>
      <trkpt lat="45.05127" lon="5.19755">
        <ele>207.08399963379</ele>
        <time>2010-01-23T15:33:42Z</time>
      </trkpt>
      <trkpt lat="45.05185" lon="5.19743">
        <ele>206.62800598144</ele>
        <time>2010-01-23T15:33:50Z</time>
      </trkpt>
      <trkpt lat="45.05242" lon="5.19729">
        <ele>205.83099365234</ele>
        <time>2010-01-23T15:33:58Z</time>
      </trkpt>
      <trkpt lat="45.05295" lon="5.19714">
        <ele>205.98399353027</ele>
        <time>2010-01-23T15:34:06Z</time>
      </trkpt>
      <trkpt lat="45.05341" lon="5.197">
        <ele>204.79400634766</ele>
        <time>2010-01-23T15:34:13Z</time>
      </trkpt>
      <trkpt lat="45.05387" lon="5.19687">
        <ele>205.02699279785</ele>
        <time>2010-01-23T15:34:20Z</time>
      </trkpt>
      <trkpt lat="45.05425" lon="5.19687">
        <ele>204.22399902344</ele>
        <time>2010-01-23T15:34:25Z</time>
      </trkpt>
      <trkpt lat="45.05458" lon="5.19698">
        <ele>202.44299316406</ele>
        <time>2010-01-23T15:34:29Z</time>
      </trkpt>
      <trkpt lat="45.05507" lon="5.19727">
        <ele>199.97900390625</ele>
        <time>2010-01-23T15:34:35Z</time>
      </trkpt>
      <trkpt lat="45.05564" lon="5.1974">
        <ele>196.71800231934</ele>
        <time>2010-01-23T15:34:41Z</time>
      </trkpt>
      <trkpt lat="45.05602" lon="5.19742">
        <ele>194.28100585938</ele>
        <time>2010-01-23T15:34:45Z</time>
      </trkpt>
      <trkpt lat="45.05629" lon="5.19736">
        <ele>192.93600463867</ele>
        <time>2010-01-23T15:34:48Z</time>
      </trkpt>
      <trkpt lat="45.05664" lon="5.19728">
        <ele>192.03399658203</ele>
        <time>2010-01-23T15:34:53Z</time>
      </trkpt>
      <trkpt lat="45.05679" lon="5.19725">
        <ele>192.16700744629</ele>
        <time>2010-01-23T15:34:58Z</time>
      </trkpt>
      <trkpt lat="45.05685" lon="5.19723">
        <ele>192.23899841309</ele>
        <time>2010-01-23T15:35:05Z</time>
      </trkpt>
      <trkpt lat="45.05685" lon="5.19723">
        <ele>192.16400146484</ele>
        <time>2010-01-23T15:35:07Z</time>
      </trkpt>
      <trkpt lat="45.05696" lon="5.1972">
        <ele>192.64100646973</ele>
        <time>2010-01-23T15:35:22Z</time>
      </trkpt>
      <trkpt lat="45.0571" lon="5.19712">
        <ele>192.45599365234</ele>
        <time>2010-01-23T15:35:26Z</time>
      </trkpt>
      <trkpt lat="45.05732" lon="5.19697">
        <ele>192.26600646973</ele>
        <time>2010-01-23T15:35:31Z</time>
      </trkpt>
      <trkpt lat="45.05748" lon="5.19663">
        <ele>192.12699890137</ele>
        <time>2010-01-23T15:35:36Z</time>
      </trkpt>
      <trkpt lat="45.05751" lon="5.19628">
        <ele>191.93899536133</ele>
        <time>2010-01-23T15:35:40Z</time>
      </trkpt>
      <trkpt lat="45.05747" lon="5.19571">
        <ele>192.54299926758</ele>
        <time>2010-01-23T15:35:46Z</time>
      </trkpt>
      <trkpt lat="45.05746" lon="5.19553">
        <ele>192.91200256348</ele>
        <time>2010-01-23T15:35:48Z</time>
      </trkpt>
      <trkpt lat="45.0575" lon="5.19506">
        <ele>193.74600219727</ele>
        <time>2010-01-23T15:35:53Z</time>
      </trkpt>
      <trkpt lat="45.05759" lon="5.19491">
        <ele>193.15800476074</ele>
        <time>2010-01-23T15:35:55Z</time>
      </trkpt>
      <trkpt lat="45.05803" lon="5.19435">
        <ele>192.21099853516</ele>
        <time>2010-01-23T15:36:03Z</time>
      </trkpt>
      <trkpt lat="45.05857" lon="5.19369">
        <ele>190.72399902344</ele>
        <time>2010-01-23T15:36:12Z</time>
      </trkpt>
      <trkpt lat="45.05906" lon="5.19309">
        <ele>189.31399536133</ele>
        <time>2010-01-23T15:36:20Z</time>
      </trkpt>
      <trkpt lat="45.0595" lon="5.19257">
        <ele>188.77400207519</ele>
        <time>2010-01-23T15:36:27Z</time>
      </trkpt>
      <trkpt lat="45.05986" lon="5.19212">
        <ele>189.61599731445</ele>
        <time>2010-01-23T15:36:33Z</time>
      </trkpt>
      <trkpt lat="45.06025" lon="5.19164">
        <ele>191.27900695801</ele>
        <time>2010-01-23T15:36:42Z</time>
      </trkpt>
      <trkpt lat="45.06078" lon="5.19103">
        <ele>192.43800354004</ele>
        <time>2010-01-23T15:36:51Z</time>
      </trkpt>
      <trkpt lat="45.06081" lon="5.191">
        <ele>192.50399780273</ele>
        <time>2010-01-23T15:36:53Z</time>
      </trkpt>
      <trkpt lat="45.06129" lon="5.19066">
        <ele>192.36700439453</ele>
        <time>2010-01-23T15:37:00Z</time>
      </trkpt>
      <trkpt lat="45.06173" lon="5.19033">
        <ele>192.17700195312</ele>
        <time>2010-01-23T15:37:07Z</time>
      </trkpt>
      <trkpt lat="45.0622" lon="5.18982">
        <ele>191.94900512695</ele>
        <time>2010-01-23T15:37:15Z</time>
      </trkpt>
      <trkpt lat="45.06277" lon="5.18916">
        <ele>191.19999694824</ele>
        <time>2010-01-23T15:37:24Z</time>
      </trkpt>
      <trkpt lat="45.06321" lon="5.1887">
        <ele>191.64999389648</ele>
        <time>2010-01-23T15:37:31Z</time>
      </trkpt>
      <trkpt lat="45.06382" lon="5.18811">
        <ele>192.34700012207</ele>
        <time>2010-01-23T15:37:41Z</time>
      </trkpt>
      <trkpt lat="45.06435" lon="5.18761">
        <ele>192.22200012207</ele>
        <time>2010-01-23T15:37:50Z</time>
      </trkpt>
      <trkpt lat="45.06481" lon="5.18723">
        <ele>192.49099731445</ele>
        <time>2010-01-23T15:37:58Z</time>
      </trkpt>
      <trkpt lat="45.06514" lon="5.18696">
        <ele>192.36599731445</ele>
        <time>2010-01-23T15:38:04Z</time>
      </trkpt>
      <trkpt lat="45.06561" lon="5.18663">
        <ele>192.39500427246</ele>
        <time>2010-01-23T15:38:12Z</time>
      </trkpt>
      <trkpt lat="45.06607" lon="5.1864">
        <ele>192.07299804688</ele>
        <time>2010-01-23T15:38:19Z</time>
      </trkpt>
      <trkpt lat="45.06672" lon="5.1862">
        <ele>190.74299621582</ele>
        <time>2010-01-23T15:38:28Z</time>
      </trkpt>
      <trkpt lat="45.06735" lon="5.18603">
        <ele>191.01899719238</ele>
        <time>2010-01-23T15:38:36Z</time>
      </trkpt>
      <trkpt lat="45.06784" lon="5.18567">
        <ele>190.61700439453</ele>
        <time>2010-01-23T15:38:43Z</time>
      </trkpt>
      <trkpt lat="45.06833" lon="5.18529">
        <ele>191.11099243164</ele>
        <time>2010-01-23T15:38:50Z</time>
      </trkpt>
      <trkpt lat="45.06871" lon="5.18495">
        <ele>191.24600219727</ele>
        <time>2010-01-23T15:38:56Z</time>
      </trkpt>
      <trkpt lat="45.06932" lon="5.1844">
        <ele>190.82200622559</ele>
        <time>2010-01-23T15:39:05Z</time>
      </trkpt>
      <trkpt lat="45.06954" lon="5.18421">
        <ele>191.14100646973</ele>
        <time>2010-01-23T15:39:08Z</time>
      </trkpt>
      <trkpt lat="45.06994" lon="5.18404">
        <ele>191.82899475098</ele>
        <time>2010-01-23T15:39:13Z</time>
      </trkpt>
      <trkpt lat="45.07074" lon="5.18401">
        <ele>191.67999267578</ele>
        <time>2010-01-23T15:39:23Z</time>
      </trkpt>
      <trkpt lat="45.07142" lon="5.1839">
        <ele>191.60800170898</ele>
        <time>2010-01-23T15:39:32Z</time>
      </trkpt>
      <trkpt lat="45.07184" lon="5.18377">
        <ele>191.9049987793</ele>
        <time>2010-01-23T15:39:38Z</time>
      </trkpt>
      <trkpt lat="45.07234" lon="5.18354">
        <ele>190.95500183106</ele>
        <time>2010-01-23T15:39:45Z</time>
      </trkpt>
      <trkpt lat="45.07278" lon="5.18333">
        <ele>189.20899963379</ele>
        <time>2010-01-23T15:39:51Z</time>
      </trkpt>
      <trkpt lat="45.07294" lon="5.18325">
        <ele>188.39999389648</ele>
        <time>2010-01-23T15:39:54Z</time>
      </trkpt>
      <trkpt lat="45.07306" lon="5.1832">
        <ele>188.10400390625</ele>
        <time>2010-01-23T15:39:59Z</time>
      </trkpt>
      <trkpt lat="45.07306" lon="5.1832">
        <ele>187.82000732422</ele>
        <time>2010-01-23T15:40:00Z</time>
      </trkpt>
      <trkpt lat="45.07307" lon="5.18319">
        <ele>187.91900634766</ele>
        <time>2010-01-23T15:40:26Z</time>
      </trkpt>
      <trkpt lat="45.07309" lon="5.18319">
        <ele>188.06399536133</ele>
        <time>2010-01-23T15:40:27Z</time>
      </trkpt>
      <trkpt lat="45.07309" lon="5.18319">
        <ele>187.97999572754</ele>
        <time>2010-01-23T15:40:33Z</time>
      </trkpt>
      <trkpt lat="45.07331" lon="5.18302">
        <ele>187.92399597168</ele>
        <time>2010-01-23T15:40:37Z</time>
      </trkpt>
      <trkpt lat="45.07363" lon="5.18275">
        <ele>188.77400207519</ele>
        <time>2010-01-23T15:40:44Z</time>
      </trkpt>
      <trkpt lat="45.07391" lon="5.18252">
        <ele>187.89999389648</ele>
        <time>2010-01-23T15:40:50Z</time>
      </trkpt>
      <trkpt lat="45.07425" lon="5.18224">
        <ele>186.87899780273</ele>
        <time>2010-01-23T15:40:56Z</time>
      </trkpt>
      <trkpt lat="45.0745" lon="5.18203">
        <ele>186.61199951172</ele>
        <time>2010-01-23T15:41:04Z</time>
      </trkpt>
      <trkpt lat="45.07502" lon="5.18154">
        <ele>185.64799499512</ele>
        <time>2010-01-23T15:41:10Z</time>
      </trkpt>
      <trkpt lat="45.07507" lon="5.18149">
        <ele>185.37300109863</ele>
        <time>2010-01-23T15:41:11Z</time>
      </trkpt>
      <trkpt lat="45.07531" lon="5.1812">
        <ele>184.22399902344</ele>
        <time>2010-01-23T15:41:16Z</time>
      </trkpt>
      <trkpt lat="45.07562" lon="5.18079">
        <ele>181.79299926758</ele>
        <time>2010-01-23T15:41:22Z</time>
      </trkpt>
      <trkpt lat="45.07568" lon="5.18071">
        <ele>181.60299682617</ele>
        <time>2010-01-23T15:41:23Z</time>
      </trkpt>
      <trkpt lat="45.07582" lon="5.18028">
        <ele>178.04899597168</ele>
        <time>2010-01-23T15:41:27Z</time>
      </trkpt>
      <trkpt lat="45.07587" lon="5.18004">
        <ele>177.00300598144</ele>
        <time>2010-01-23T15:41:29Z</time>
      </trkpt>
      <trkpt lat="45.07596" lon="5.17975">
        <ele>175.27499389648</ele>
        <time>2010-01-23T15:41:32Z</time>
      </trkpt>
      <trkpt lat="45.07619" lon="5.17966">
        <ele>173.87199401856</ele>
        <time>2010-01-23T15:41:34Z</time>
      </trkpt>
      <trkpt lat="45.07686" lon="5.17929">
        <ele>169.61399841309</ele>
        <time>2010-01-23T15:41:41Z</time>
      </trkpt>
      <trkpt lat="45.07741" lon="5.17899">
        <ele>168.48199462891</ele>
        <time>2010-01-23T15:41:47Z</time>
      </trkpt>
      <trkpt lat="45.07771" lon="5.17869">
        <ele>167.17399597168</ele>
        <time>2010-01-23T15:41:51Z</time>
      </trkpt>
      <trkpt lat="45.07805" lon="5.1786">
        <ele>166.64799499512</ele>
        <time>2010-01-23T15:41:55Z</time>
      </trkpt>
      <trkpt lat="45.07851" lon="5.17869">
        <ele>166.29600524902</ele>
        <time>2010-01-23T15:42:01Z</time>
      </trkpt>
      <trkpt lat="45.07893" lon="5.17885">
        <ele>167.12800598144</ele>
        <time>2010-01-23T15:42:08Z</time>
      </trkpt>
      <trkpt lat="45.07933" lon="5.17901">
        <ele>168.00199890137</ele>
        <time>2010-01-23T15:42:15Z</time>
      </trkpt>
      <trkpt lat="45.07971" lon="5.17915">
        <ele>168.53500366211</ele>
        <time>2010-01-23T15:42:22Z</time>
      </trkpt>
      <trkpt lat="45.08012" lon="5.17931">
        <ele>167.60299682617</ele>
        <time>2010-01-23T15:42:29Z</time>
      </trkpt>
      <trkpt lat="45.08025" lon="5.17937">
        <ele>165.36199951172</ele>
        <time>2010-01-23T15:42:34Z</time>
      </trkpt>
      <trkpt lat="45.08097" lon="5.17967">
        <ele>161.46200561523</ele>
        <time>2010-01-23T15:42:40Z</time>
      </trkpt>
      <trkpt lat="45.08126" lon="5.17979">
        <ele>159.57200622559</ele>
        <time>2010-01-23T15:42:43Z</time>
      </trkpt>
      <trkpt lat="45.08168" lon="5.17997">
        <ele>157.29899597168</ele>
        <time>2010-01-23T15:42:47Z</time>
      </trkpt>
      <trkpt lat="45.08187" lon="5.18005">
        <ele>156.81900024414</ele>
        <time>2010-01-23T15:42:49Z</time>
      </trkpt>
      <trkpt lat="45.08225" lon="5.18047">
        <ele>156.51800537109</ele>
        <time>2010-01-23T15:42:54Z</time>
      </trkpt>
      <trkpt lat="45.08267" lon="5.18106">
        <ele>156.97300720215</ele>
        <time>2010-01-23T15:43:01Z</time>
      </trkpt>
      <trkpt lat="45.08283" lon="5.18129">
        <ele>156.99099731445</ele>
        <time>2010-01-23T15:43:04Z</time>
      </trkpt>
      <trkpt lat="45.08314" lon="5.18184">
        <ele>157.43800354004</ele>
        <time>2010-01-23T15:43:11Z</time>
      </trkpt>
      <trkpt lat="45.08332" lon="5.18222">
        <ele>158.00799560547</ele>
        <time>2010-01-23T15:43:17Z</time>
      </trkpt>
      <trkpt lat="45.0835" lon="5.18258">
        <ele>157.63499450684</ele>
        <time>2010-01-23T15:43:24Z</time>
      </trkpt>
      <trkpt lat="45.08371" lon="5.18302">
        <ele>155.85600280762</ele>
        <time>2010-01-23T15:43:33Z</time>
      </trkpt>
      <trkpt lat="45.08373" lon="5.18306">
        <ele>155.61199951172</ele>
        <time>2010-01-23T15:43:37Z</time>
      </trkpt>
      <trkpt lat="45.08373" lon="5.18306">
        <ele>155.51699829102</ele>
        <time>2010-01-23T15:43:38Z</time>
      </trkpt>
      <trkpt lat="45.08373" lon="5.18306">
        <ele>155.46899414062</ele>
        <time>2010-01-23T15:44:37Z</time>
      </trkpt>
      <trkpt lat="45.08373" lon="5.18306">
        <ele>155.27499389648</ele>
        <time>2010-01-23T15:44:38Z</time>
      </trkpt>
      <trkpt lat="45.08373" lon="5.18306">
        <ele>154.53199768066</ele>
        <time>2010-01-23T15:44:43Z</time>
      </trkpt>
      <trkpt lat="45.08404" lon="5.18345">
        <ele>153.62300109863</ele>
        <time>2010-01-23T15:44:49Z</time>
      </trkpt>
      <trkpt lat="45.08412" lon="5.1835">
        <ele>153.13000488281</ele>
        <time>2010-01-23T15:44:54Z</time>
      </trkpt>
      <trkpt lat="45.08414" lon="5.1835">
        <ele>153.13800048828</ele>
        <time>2010-01-23T15:44:57Z</time>
      </trkpt>
      <trkpt lat="45.08423" lon="5.18353">
        <ele>153.20399475098</ele>
        <time>2010-01-23T15:45:06Z</time>
      </trkpt>
      <trkpt lat="45.08462" lon="5.18339">
        <ele>153.5890045166</ele>
        <time>2010-01-23T15:45:14Z</time>
      </trkpt>
      <trkpt lat="45.08478" lon="5.18333">
        <ele>153.52900695801</ele>
        <time>2010-01-23T15:45:17Z</time>
      </trkpt>
      <trkpt lat="45.08523" lon="5.18319">
        <ele>153.28300476074</ele>
        <time>2010-01-23T15:45:25Z</time>
      </trkpt>
      <trkpt lat="45.08541" lon="5.18314">
        <ele>153.22099304199</ele>
        <time>2010-01-23T15:45:28Z</time>
      </trkpt>
      <trkpt lat="45.08553" lon="5.1831">
        <ele>154.20500183106</ele>
        <time>2010-01-23T15:45:32Z</time>
      </trkpt>
      <trkpt lat="45.08553" lon="5.1831">
        <ele>154.12399291992</ele>
        <time>2010-01-23T15:45:33Z</time>
      </trkpt>
      <trkpt lat="45.08559" lon="5.18283">
        <ele>154.74000549316</ele>
        <time>2010-01-23T15:45:35Z</time>
      </trkpt>
      <trkpt lat="45.08544" lon="5.1823">
        <ele>155.6609954834</ele>
        <time>2010-01-23T15:45:42Z</time>
      </trkpt>
      <trkpt lat="45.08532" lon="5.18188">
        <ele>156.49000549316</ele>
        <time>2010-01-23T15:45:47Z</time>
      </trkpt>
      <trkpt lat="45.08524" lon="5.18162">
        <ele>156.95599365234</ele>
        <time>2010-01-23T15:45:50Z</time>
      </trkpt>
      <trkpt lat="45.08519" lon="5.18147">
        <ele>157.73599243164</ele>
        <time>2010-01-23T15:45:55Z</time>
      </trkpt>
      <trkpt lat="45.08519" lon="5.18147">
        <ele>157.75399780273</ele>
        <time>2010-01-23T15:45:56Z</time>
      </trkpt>
      <trkpt lat="45.08487" lon="5.18053">
        <ele>159.02099609375</ele>
        <time>2010-01-23T15:46:05Z</time>
      </trkpt>
      <trkpt lat="45.08469" lon="5.18008">
        <ele>159.99499511719</ele>
        <time>2010-01-23T15:46:13Z</time>
      </trkpt>
      <trkpt lat="45.08448" lon="5.17968">
        <ele>160.7619934082</ele>
        <time>2010-01-23T15:46:20Z</time>
      </trkpt>
      <trkpt lat="45.08443" lon="5.17957">
        <ele>161.22999572754</ele>
        <time>2010-01-23T15:46:22Z</time>
      </trkpt>
      <trkpt lat="45.08421" lon="5.17914">
        <ele>162.47099304199</ele>
        <time>2010-01-23T15:46:30Z</time>
      </trkpt>
      <trkpt lat="45.08392" lon="5.17862">
        <ele>163.86199951172</ele>
        <time>2010-01-23T15:46:39Z</time>
      </trkpt>
      <trkpt lat="45.08364" lon="5.17817">
        <ele>164.99299621582</ele>
        <time>2010-01-23T15:46:47Z</time>
      </trkpt>
      <trkpt lat="45.08322" lon="5.17764">
        <ele>165.3690032959</ele>
        <time>2010-01-23T15:46:57Z</time>
      </trkpt>
      <trkpt lat="45.08281" lon="5.17712">
        <ele>165.62699890137</ele>
        <time>2010-01-23T15:47:06Z</time>
      </trkpt>
      <trkpt lat="45.0824" lon="5.17661">
        <ele>166.52400207519</ele>
        <time>2010-01-23T15:47:14Z</time>
      </trkpt>
      <trkpt lat="45.082" lon="5.176">
        <ele>168.05400085449</ele>
        <time>2010-01-23T15:47:23Z</time>
      </trkpt>
      <trkpt lat="45.08162" lon="5.17544">
        <ele>168.80299377441</ele>
        <time>2010-01-23T15:47:32Z</time>
      </trkpt>
      <trkpt lat="45.08128" lon="5.17493">
        <ele>170.01100158691</ele>
        <time>2010-01-23T15:47:40Z</time>
      </trkpt>
      <trkpt lat="45.08088" lon="5.17429">
        <ele>171.56900024414</ele>
        <time>2010-01-23T15:47:50Z</time>
      </trkpt>
      <trkpt lat="45.08051" lon="5.17365">
        <ele>172.78700256348</ele>
        <time>2010-01-23T15:48:00Z</time>
      </trkpt>
      <trkpt lat="45.0802" lon="5.17318">
        <ele>174.80799865723</ele>
        <time>2010-01-23T15:48:08Z</time>
      </trkpt>
      <trkpt lat="45.07987" lon="5.17271">
        <ele>177.56100463867</ele>
        <time>2010-01-23T15:48:17Z</time>
      </trkpt>
      <trkpt lat="45.0798" lon="5.1726">
        <ele>178.03900146484</ele>
        <time>2010-01-23T15:48:19Z</time>
      </trkpt>
      <trkpt lat="45.07951" lon="5.17211">
        <ele>180.3450012207</ele>
        <time>2010-01-23T15:48:27Z</time>
      </trkpt>
      <trkpt lat="45.07923" lon="5.17161">
        <ele>182.45700073242</ele>
        <time>2010-01-23T15:48:34Z</time>
      </trkpt>
      <trkpt lat="45.07909" lon="5.17135">
        <ele>182.99099731445</ele>
        <time>2010-01-23T15:48:38Z</time>
      </trkpt>
      <trkpt lat="45.07881" lon="5.17085">
        <ele>183.31500244141</ele>
        <time>2010-01-23T15:48:46Z</time>
      </trkpt>
      <trkpt lat="45.07853" lon="5.17018">
        <ele>183.67399597168</ele>
        <time>2010-01-23T15:48:55Z</time>
      </trkpt>
      <trkpt lat="45.07819" lon="5.16928">
        <ele>184.18299865723</ele>
        <time>2010-01-23T15:49:06Z</time>
      </trkpt>
      <trkpt lat="45.07795" lon="5.16846">
        <ele>185.36599731445</ele>
        <time>2010-01-23T15:49:15Z</time>
      </trkpt>
      <trkpt lat="45.07779" lon="5.1678">
        <ele>185.36599731445</ele>
        <time>2010-01-23T15:49:22Z</time>
      </trkpt>
      <trkpt lat="45.07759" lon="5.16693">
        <ele>186.27299499512</ele>
        <time>2010-01-23T15:49:31Z</time>
      </trkpt>
      <trkpt lat="45.07738" lon="5.16601">
        <ele>187.01800537109</ele>
        <time>2010-01-23T15:49:41Z</time>
      </trkpt>
      <trkpt lat="45.07716" lon="5.16494">
        <ele>186.97700500488</ele>
        <time>2010-01-23T15:49:52Z</time>
      </trkpt>
      <trkpt lat="45.07697" lon="5.16406">
        <ele>186.92399597168</ele>
        <time>2010-01-23T15:50:01Z</time>
      </trkpt>
      <trkpt lat="45.07673" lon="5.16304">
        <ele>186.73300170898</ele>
        <time>2010-01-23T15:50:11Z</time>
      </trkpt>
      <trkpt lat="45.07669" lon="5.16284">
        <ele>186.81599426269</ele>
        <time>2010-01-23T15:50:13Z</time>
      </trkpt>
      <trkpt lat="45.07662" lon="5.16255">
        <ele>186.77600097656</ele>
        <time>2010-01-23T15:50:16Z</time>
      </trkpt>
      <trkpt lat="45.07661" lon="5.16248">
        <ele>186.88000488281</ele>
        <time>2010-01-23T15:50:17Z</time>
      </trkpt>
      <trkpt lat="45.07694" lon="5.16216">
        <ele>187.0359954834</ele>
        <time>2010-01-23T15:50:21Z</time>
      </trkpt>
      <trkpt lat="45.07716" lon="5.16177">
        <ele>187.74600219727</ele>
        <time>2010-01-23T15:50:29Z</time>
      </trkpt>
      <trkpt lat="45.07737" lon="5.16143">
        <ele>188.76400756836</ele>
        <time>2010-01-23T15:50:33Z</time>
      </trkpt>
      <trkpt lat="45.07744" lon="5.16131">
        <ele>189.28900146484</ele>
        <time>2010-01-23T15:50:35Z</time>
      </trkpt>
      <trkpt lat="45.07763" lon="5.161">
        <ele>191.94999694824</ele>
        <time>2010-01-23T15:50:43Z</time>
      </trkpt>
      <trkpt lat="45.07787" lon="5.16042">
        <ele>193.63200378418</ele>
        <time>2010-01-23T15:50:48Z</time>
      </trkpt>
      <trkpt lat="45.07798" lon="5.15993">
        <ele>195.86700439453</ele>
        <time>2010-01-23T15:50:54Z</time>
      </trkpt>
      <trkpt lat="45.07805" lon="5.1596">
        <ele>196.37399291992</ele>
        <time>2010-01-23T15:50:58Z</time>
      </trkpt>
      <trkpt lat="45.07806" lon="5.15954">
        <ele>196.71699523926</ele>
        <time>2010-01-23T15:51:02Z</time>
      </trkpt>
      <trkpt lat="45.07806" lon="5.15954">
        <ele>196.77699279785</ele>
        <time>2010-01-23T15:51:03Z</time>
      </trkpt>
      <trkpt lat="45.07829" lon="5.15866">
        <ele>197.1130065918</ele>
        <time>2010-01-23T15:51:10Z</time>
      </trkpt>
      <trkpt lat="45.07848" lon="5.15794">
        <ele>197.84399414062</ele>
        <time>2010-01-23T15:51:19Z</time>
      </trkpt>
      <trkpt lat="45.07862" lon="5.15733">
        <ele>198.40299987793</ele>
        <time>2010-01-23T15:51:27Z</time>
      </trkpt>
      <trkpt lat="45.07876" lon="5.15666">
        <ele>199.35699462891</ele>
        <time>2010-01-23T15:51:36Z</time>
      </trkpt>
      <trkpt lat="45.07893" lon="5.15581">
        <ele>200.29600524902</ele>
        <time>2010-01-23T15:51:47Z</time>
      </trkpt>
      <trkpt lat="45.07901" lon="5.15541">
        <ele>200.79800415039</ele>
        <time>2010-01-23T15:51:53Z</time>
      </trkpt>
      <trkpt lat="45.07909" lon="5.15503">
        <ele>201.6130065918</ele>
        <time>2010-01-23T15:51:59Z</time>
      </trkpt>
      <trkpt lat="45.07915" lon="5.15468">
        <ele>202.36000061035</ele>
        <time>2010-01-23T15:52:04Z</time>
      </trkpt>
      <trkpt lat="45.07918" lon="5.15454">
        <ele>202.3630065918</ele>
        <time>2010-01-23T15:52:06Z</time>
      </trkpt>
      <trkpt lat="45.0792" lon="5.15448">
        <ele>202.44500732422</ele>
        <time>2010-01-23T15:52:07Z</time>
      </trkpt>
      <trkpt lat="45.07933" lon="5.15399">
        <ele>202.73199462891</ele>
        <time>2010-01-23T15:52:15Z</time>
      </trkpt>
      <trkpt lat="45.07949" lon="5.15344">
        <ele>201.54699707031</ele>
        <time>2010-01-23T15:52:24Z</time>
      </trkpt>
      <trkpt lat="45.07961" lon="5.15303">
        <ele>201.56399536133</ele>
        <time>2010-01-23T15:52:30Z</time>
      </trkpt>
      <trkpt lat="45.07969" lon="5.15274">
        <ele>201.3450012207</ele>
        <time>2010-01-23T15:52:34Z</time>
      </trkpt>
      <trkpt lat="45.07978" lon="5.15219">
        <ele>201.12399291992</ele>
        <time>2010-01-23T15:52:41Z</time>
      </trkpt>
      <trkpt lat="45.07987" lon="5.15142">
        <ele>201.63999938965</ele>
        <time>2010-01-23T15:52:51Z</time>
      </trkpt>
      <trkpt lat="45.07994" lon="5.15086">
        <ele>202.16499328613</ele>
        <time>2010-01-23T15:52:59Z</time>
      </trkpt>
      <trkpt lat="45.07996" lon="5.15073">
        <ele>202.71899414062</ele>
        <time>2010-01-23T15:53:01Z</time>
      </trkpt>
      <trkpt lat="45.0801" lon="5.15024">
        <ele>201.39700317383</ele>
        <time>2010-01-23T15:53:09Z</time>
      </trkpt>
      <trkpt lat="45.08029" lon="5.14953">
        <ele>199.84700012207</ele>
        <time>2010-01-23T15:53:18Z</time>
      </trkpt>
      <trkpt lat="45.08042" lon="5.14894">
        <ele>198.81599426269</ele>
        <time>2010-01-23T15:53:25Z</time>
      </trkpt>
      <trkpt lat="45.08055" lon="5.14835">
        <ele>198.19200134277</ele>
        <time>2010-01-23T15:53:32Z</time>
      </trkpt>
      <trkpt lat="45.0806" lon="5.14813">
        <ele>198.05900573731</ele>
        <time>2010-01-23T15:53:39Z</time>
      </trkpt>
      <trkpt lat="45.08073" lon="5.14774">
        <ele>198.00399780273</ele>
        <time>2010-01-23T15:53:40Z</time>
      </trkpt>
      <trkpt lat="45.08095" lon="5.14718">
        <ele>198.36099243164</ele>
        <time>2010-01-23T15:53:48Z</time>
      </trkpt>
      <trkpt lat="45.08115" lon="5.14668">
        <ele>199.16900634766</ele>
        <time>2010-01-23T15:53:56Z</time>
      </trkpt>
      <trkpt lat="45.0813" lon="5.14622">
        <ele>200.17799377441</ele>
        <time>2010-01-23T15:54:03Z</time>
      </trkpt>
      <trkpt lat="45.08145" lon="5.14579">
        <ele>201.23199462891</ele>
        <time>2010-01-23T15:54:09Z</time>
      </trkpt>
      <trkpt lat="45.08158" lon="5.14539">
        <ele>202.2440032959</ele>
        <time>2010-01-23T15:54:15Z</time>
      </trkpt>
      <trkpt lat="45.08164" lon="5.14521">
        <ele>202.99499511719</ele>
        <time>2010-01-23T15:54:18Z</time>
      </trkpt>
      <trkpt lat="45.08171" lon="5.14499">
        <ele>203.66900634766</ele>
        <time>2010-01-23T15:54:23Z</time>
      </trkpt>
      <trkpt lat="45.08171" lon="5.14499">
        <ele>203.32200622559</ele>
        <time>2010-01-23T15:54:26Z</time>
      </trkpt>
      <trkpt lat="45.08196" lon="5.14416">
        <ele>202.75900268555</ele>
        <time>2010-01-23T15:54:33Z</time>
      </trkpt>
      <trkpt lat="45.08199" lon="5.14408">
        <ele>202.8450012207</ele>
        <time>2010-01-23T15:54:34Z</time>
      </trkpt>
      <trkpt lat="45.08221" lon="5.14333">
        <ele>202.33200073242</ele>
        <time>2010-01-23T15:54:43Z</time>
      </trkpt>
      <trkpt lat="45.08237" lon="5.14277">
        <ele>201.98300170898</ele>
        <time>2010-01-23T15:54:50Z</time>
      </trkpt>
      <trkpt lat="45.08258" lon="5.14197">
        <ele>200.78999328613</ele>
        <time>2010-01-23T15:54:59Z</time>
      </trkpt>
      <trkpt lat="45.08274" lon="5.14132">
        <ele>200.03500366211</ele>
        <time>2010-01-23T15:55:06Z</time>
      </trkpt>
      <trkpt lat="45.08286" lon="5.14099">
        <ele>199.25999450684</ele>
        <time>2010-01-23T15:55:10Z</time>
      </trkpt>
      <trkpt lat="45.08312" lon="5.14028">
        <ele>198.68099975586</ele>
        <time>2010-01-23T15:55:19Z</time>
      </trkpt>
      <trkpt lat="45.08331" lon="5.13969">
        <ele>198.08700561523</ele>
        <time>2010-01-23T15:55:26Z</time>
      </trkpt>
      <trkpt lat="45.08358" lon="5.13901">
        <ele>198.97799682617</ele>
        <time>2010-01-23T15:55:35Z</time>
      </trkpt>
      <trkpt lat="45.08375" lon="5.13862">
        <ele>199.64100646973</ele>
        <time>2010-01-23T15:55:41Z</time>
      </trkpt>
      <trkpt lat="45.08411" lon="5.13811">
        <ele>199.59899902344</ele>
        <time>2010-01-23T15:55:50Z</time>
      </trkpt>
      <trkpt lat="45.0845" lon="5.13757">
        <ele>199.01100158691</ele>
        <time>2010-01-23T15:55:59Z</time>
      </trkpt>
      <trkpt lat="45.08479" lon="5.13718">
        <ele>199.13000488281</ele>
        <time>2010-01-23T15:56:06Z</time>
      </trkpt>
      <trkpt lat="45.08498" lon="5.13692">
        <ele>199.29400634766</ele>
        <time>2010-01-23T15:56:12Z</time>
      </trkpt>
      <trkpt lat="45.08507" lon="5.1368">
        <ele>199.19799804688</ele>
        <time>2010-01-23T15:56:15Z</time>
      </trkpt>
      <trkpt lat="45.08513" lon="5.13672">
        <ele>199.27799987793</ele>
        <time>2010-01-23T15:56:17Z</time>
      </trkpt>
      <trkpt lat="45.08538" lon="5.13638">
        <ele>198.90899658203</ele>
        <time>2010-01-23T15:56:25Z</time>
      </trkpt>
      <trkpt lat="45.08557" lon="5.13614">
        <ele>198.65600585938</ele>
        <time>2010-01-23T15:56:31Z</time>
      </trkpt>
      <trkpt lat="45.08575" lon="5.13589">
        <ele>199.11000061035</ele>
        <time>2010-01-23T15:56:38Z</time>
      </trkpt>
      <trkpt lat="45.086" lon="5.13535">
        <ele>199.08000183106</ele>
        <time>2010-01-23T15:56:45Z</time>
      </trkpt>
      <trkpt lat="45.08609" lon="5.13516">
        <ele>199.11500549316</ele>
        <time>2010-01-23T15:56:50Z</time>
      </trkpt>
      <trkpt lat="45.08628" lon="5.13472">
        <ele>199.2200012207</ele>
        <time>2010-01-23T15:56:55Z</time>
      </trkpt>
      <trkpt lat="45.08657" lon="5.13403">
        <ele>199.16499328613</ele>
        <time>2010-01-23T15:57:05Z</time>
      </trkpt>
      <trkpt lat="45.0868" lon="5.13349">
        <ele>199.31700134277</ele>
        <time>2010-01-23T15:57:13Z</time>
      </trkpt>
      <trkpt lat="45.08699" lon="5.13304">
        <ele>199.06100463867</ele>
        <time>2010-01-23T15:57:20Z</time>
      </trkpt>
      <trkpt lat="45.08702" lon="5.13299">
        <ele>199.21200561523</ele>
        <time>2010-01-23T15:57:21Z</time>
      </trkpt>
      <trkpt lat="45.0872" lon="5.13257">
        <ele>199.04299926758</ele>
        <time>2010-01-23T15:57:28Z</time>
      </trkpt>
      <trkpt lat="45.08743" lon="5.13208">
        <ele>198.65600585938</ele>
        <time>2010-01-23T15:57:36Z</time>
      </trkpt>
      <trkpt lat="45.08769" lon="5.13156">
        <ele>199.00500488281</ele>
        <time>2010-01-23T15:57:45Z</time>
      </trkpt>
      <trkpt lat="45.08774" lon="5.13142">
        <ele>198.95799255371</ele>
        <time>2010-01-23T15:57:48Z</time>
      </trkpt>
      <trkpt lat="45.08777" lon="5.13131">
        <ele>198.76400756836</ele>
        <time>2010-01-23T15:57:50Z</time>
      </trkpt>
      <trkpt lat="45.08783" lon="5.13103">
        <ele>198.7799987793</ele>
        <time>2010-01-23T15:57:54Z</time>
      </trkpt>
      <trkpt lat="45.08793" lon="5.13054">
        <ele>198.59300231934</ele>
        <time>2010-01-23T15:58:01Z</time>
      </trkpt>
      <trkpt lat="45.08794" lon="5.13046">
        <ele>198.58200073242</ele>
        <time>2010-01-23T15:58:02Z</time>
      </trkpt>
      <trkpt lat="45.08798" lon="5.13027">
        <ele>198.91200256348</ele>
        <time>2010-01-23T15:58:07Z</time>
      </trkpt>
      <trkpt lat="45.08789" lon="5.12984">
        <ele>199.20300292969</ele>
        <time>2010-01-23T15:58:11Z</time>
      </trkpt>
      <trkpt lat="45.08789" lon="5.12984">
        <ele>199.31199645996</ele>
        <time>2010-01-23T15:58:14Z</time>
      </trkpt>
      <trkpt lat="45.08804" lon="5.1291">
        <ele>200.6549987793</ele>
        <time>2010-01-23T15:58:21Z</time>
      </trkpt>
      <trkpt lat="45.08807" lon="5.12869">
        <ele>201.34300231934</ele>
        <time>2010-01-23T15:58:27Z</time>
      </trkpt>
      <trkpt lat="45.08813" lon="5.12841">
        <ele>202.02200317383</ele>
        <time>2010-01-23T15:58:31Z</time>
      </trkpt>
      <trkpt lat="45.0882" lon="5.12812">
        <ele>202.26600646973</ele>
        <time>2010-01-23T15:58:35Z</time>
      </trkpt>
      <trkpt lat="45.08822" lon="5.12805">
        <ele>202.13200378418</ele>
        <time>2010-01-23T15:58:36Z</time>
      </trkpt>
      <trkpt lat="45.08825" lon="5.12791">
        <ele>202.48500061035</ele>
        <time>2010-01-23T15:58:38Z</time>
      </trkpt>
      <trkpt lat="45.08826" lon="5.12784">
        <ele>202.50700378418</ele>
        <time>2010-01-23T15:58:39Z</time>
      </trkpt>
      <trkpt lat="45.08841" lon="5.12733">
        <ele>203.01300048828</ele>
        <time>2010-01-23T15:58:46Z</time>
      </trkpt>
      <trkpt lat="45.08862" lon="5.12663">
        <ele>203.59199523926</ele>
        <time>2010-01-23T15:58:55Z</time>
      </trkpt>
      <trkpt lat="45.08885" lon="5.12591">
        <ele>204.50700378418</ele>
        <time>2010-01-23T15:59:04Z</time>
      </trkpt>
      <trkpt lat="45.08901" lon="5.12546">
        <ele>204.65600585938</ele>
        <time>2010-01-23T15:59:12Z</time>
      </trkpt>
      <trkpt lat="45.08913" lon="5.12471">
        <ele>204.0059967041</ele>
        <time>2010-01-23T15:59:18Z</time>
      </trkpt>
      <trkpt lat="45.08913" lon="5.12416">
        <ele>203.39700317383</ele>
        <time>2010-01-23T15:59:23Z</time>
      </trkpt>
      <trkpt lat="45.08908" lon="5.12335">
        <ele>201.46600341797</ele>
        <time>2010-01-23T15:59:30Z</time>
      </trkpt>
      <trkpt lat="45.08903" lon="5.12217">
        <ele>199.29800415039</ele>
        <time>2010-01-23T15:59:40Z</time>
      </trkpt>
      <trkpt lat="45.08901" lon="5.12152">
        <ele>198.69099426269</ele>
        <time>2010-01-23T15:59:46Z</time>
      </trkpt>
      <trkpt lat="45.08895" lon="5.12072">
        <ele>198.16499328613</ele>
        <time>2010-01-23T15:59:52Z</time>
      </trkpt>
      <trkpt lat="45.08888" lon="5.11966">
        <ele>197.15400695801</ele>
        <time>2010-01-23T16:00:01Z</time>
      </trkpt>
      <trkpt lat="45.08882" lon="5.11875">
        <ele>196.09800720215</ele>
        <time>2010-01-23T16:00:09Z</time>
      </trkpt>
      <trkpt lat="45.08878" lon="5.11817">
        <ele>196.08099365234</ele>
        <time>2010-01-23T16:00:15Z</time>
      </trkpt>
      <trkpt lat="45.08873" lon="5.1175">
        <ele>195.87800598144</ele>
        <time>2010-01-23T16:00:23Z</time>
      </trkpt>
      <trkpt lat="45.0887" lon="5.11698">
        <ele>195.82699584961</ele>
        <time>2010-01-23T16:00:29Z</time>
      </trkpt>
      <trkpt lat="45.08863" lon="5.11598">
        <ele>196.51899719238</ele>
        <time>2010-01-23T16:00:40Z</time>
      </trkpt>
      <trkpt lat="45.08856" lon="5.11522">
        <ele>195.6369934082</ele>
        <time>2010-01-23T16:00:48Z</time>
      </trkpt>
      <trkpt lat="45.08849" lon="5.11448">
        <ele>195.05499267578</ele>
        <time>2010-01-23T16:00:55Z</time>
      </trkpt>
      <trkpt lat="45.08839" lon="5.11349">
        <ele>194.13200378418</ele>
        <time>2010-01-23T16:01:04Z</time>
      </trkpt>
      <trkpt lat="45.0883" lon="5.1126">
        <ele>193.53900146484</ele>
        <time>2010-01-23T16:01:12Z</time>
      </trkpt>
      <trkpt lat="45.08817" lon="5.11132">
        <ele>192.81700134277</ele>
        <time>2010-01-23T16:01:23Z</time>
      </trkpt>
      <trkpt lat="45.088" lon="5.11036">
        <ele>191.91999816894</ele>
        <time>2010-01-23T16:01:31Z</time>
      </trkpt>
      <trkpt lat="45.08786" lon="5.10927">
        <ele>191.7200012207</ele>
        <time>2010-01-23T16:01:40Z</time>
      </trkpt>
      <trkpt lat="45.08781" lon="5.10819">
        <ele>191.51300048828</ele>
        <time>2010-01-23T16:01:49Z</time>
      </trkpt>
      <trkpt lat="45.08776" lon="5.10713">
        <ele>191.93299865723</ele>
        <time>2010-01-23T16:01:58Z</time>
      </trkpt>
      <trkpt lat="45.0876" lon="5.10647">
        <ele>192.06599426269</ele>
        <time>2010-01-23T16:02:04Z</time>
      </trkpt>
      <trkpt lat="45.08732" lon="5.10531">
        <ele>192.28700256348</ele>
        <time>2010-01-23T16:02:15Z</time>
      </trkpt>
      <trkpt lat="45.08714" lon="5.10452">
        <ele>193.37100219727</ele>
        <time>2010-01-23T16:02:23Z</time>
      </trkpt>
      <trkpt lat="45.08691" lon="5.10367">
        <ele>193.28500366211</ele>
        <time>2010-01-23T16:02:32Z</time>
      </trkpt>
      <trkpt lat="45.0867" lon="5.10292">
        <ele>193.52299499512</ele>
        <time>2010-01-23T16:02:40Z</time>
      </trkpt>
      <trkpt lat="45.08654" lon="5.10228">
        <ele>194.98899841309</ele>
        <time>2010-01-23T16:02:47Z</time>
      </trkpt>
      <trkpt lat="45.08635" lon="5.10134">
        <ele>194.97200012207</ele>
        <time>2010-01-23T16:02:57Z</time>
      </trkpt>
      <trkpt lat="45.08611" lon="5.10033">
        <ele>193.33399963379</ele>
        <time>2010-01-23T16:03:07Z</time>
      </trkpt>
      <trkpt lat="45.08568" lon="5.09875">
        <ele>191.87600708008</ele>
        <time>2010-01-23T16:03:22Z</time>
      </trkpt>
      <trkpt lat="45.08534" lon="5.09764">
        <ele>191.94299316406</ele>
        <time>2010-01-23T16:03:33Z</time>
      </trkpt>
      <trkpt lat="45.085" lon="5.09672">
        <ele>190.74600219727</ele>
        <time>2010-01-23T16:03:42Z</time>
      </trkpt>
      <trkpt lat="45.08468" lon="5.09591">
        <ele>190.30900573731</ele>
        <time>2010-01-23T16:03:50Z</time>
      </trkpt>
      <trkpt lat="45.08455" lon="5.09551">
        <ele>189.99899291992</ele>
        <time>2010-01-23T16:03:54Z</time>
      </trkpt>
      <trkpt lat="45.08457" lon="5.09482">
        <ele>190.25700378418</ele>
        <time>2010-01-23T16:04:00Z</time>
      </trkpt>
      <trkpt lat="45.08468" lon="5.09403">
        <ele>189.9700012207</ele>
        <time>2010-01-23T16:04:07Z</time>
      </trkpt>
      <trkpt lat="45.08481" lon="5.0933">
        <ele>190.45100402832</ele>
        <time>2010-01-23T16:04:14Z</time>
      </trkpt>
      <trkpt lat="45.085" lon="5.09285">
        <ele>191.05400085449</ele>
        <time>2010-01-23T16:04:19Z</time>
      </trkpt>
      <trkpt lat="45.0854" lon="5.09224">
        <ele>192.03300476074</ele>
        <time>2010-01-23T16:04:27Z</time>
      </trkpt>
      <trkpt lat="45.08557" lon="5.09176">
        <ele>192.70300292969</ele>
        <time>2010-01-23T16:04:32Z</time>
      </trkpt>
      <trkpt lat="45.08582" lon="5.09098">
        <ele>193.31300354004</ele>
        <time>2010-01-23T16:04:40Z</time>
      </trkpt>
      <trkpt lat="45.08603" lon="5.09032">
        <ele>193.90800476074</ele>
        <time>2010-01-23T16:04:47Z</time>
      </trkpt>
      <trkpt lat="45.08632" lon="5.08961">
        <ele>194.70300292969</ele>
        <time>2010-01-23T16:04:55Z</time>
      </trkpt>
      <trkpt lat="45.08668" lon="5.08887">
        <ele>195.97099304199</ele>
        <time>2010-01-23T16:05:04Z</time>
      </trkpt>
      <trkpt lat="45.08689" lon="5.08814">
        <ele>196.7559967041</ele>
        <time>2010-01-23T16:05:12Z</time>
      </trkpt>
      <trkpt lat="45.08715" lon="5.08715">
        <ele>198.61599731445</ele>
        <time>2010-01-23T16:05:23Z</time>
      </trkpt>
      <trkpt lat="45.08731" lon="5.08644">
        <ele>199.74600219727</ele>
        <time>2010-01-23T16:05:31Z</time>
      </trkpt>
      <trkpt lat="45.08735" lon="5.08627">
        <ele>200.21299743652</ele>
        <time>2010-01-23T16:05:33Z</time>
      </trkpt>
      <trkpt lat="45.0874" lon="5.08602">
        <ele>200.97099304199</ele>
        <time>2010-01-23T16:05:36Z</time>
      </trkpt>
      <trkpt lat="45.08742" lon="5.08594">
        <ele>201.60299682617</ele>
        <time>2010-01-23T16:05:40Z</time>
      </trkpt>
      <trkpt lat="45.08748" lon="5.08521">
        <ele>202.32499694824</ele>
        <time>2010-01-23T16:05:46Z</time>
      </trkpt>
      <trkpt lat="45.08753" lon="5.08466">
        <ele>203.90800476074</ele>
        <time>2010-01-23T16:05:53Z</time>
      </trkpt>
      <trkpt lat="45.08759" lon="5.08401">
        <ele>206.47900390625</ele>
        <time>2010-01-23T16:06:03Z</time>
      </trkpt>
      <trkpt lat="45.08771" lon="5.08327">
        <ele>209.20599365234</ele>
        <time>2010-01-23T16:06:13Z</time>
      </trkpt>
      <trkpt lat="45.0878" lon="5.08266">
        <ele>211.10800170898</ele>
        <time>2010-01-23T16:06:22Z</time>
      </trkpt>
      <trkpt lat="45.08789" lon="5.08206">
        <ele>213.84599304199</ele>
        <time>2010-01-23T16:06:31Z</time>
      </trkpt>
      <trkpt lat="45.08793" lon="5.08182">
        <ele>215.39500427246</ele>
        <time>2010-01-23T16:06:39Z</time>
      </trkpt>
      <trkpt lat="45.08806" lon="5.08092">
        <ele>217.48199462891</ele>
        <time>2010-01-23T16:06:49Z</time>
      </trkpt>
      <trkpt lat="45.08818" lon="5.08033">
        <ele>219.35800170898</ele>
        <time>2010-01-23T16:06:59Z</time>
      </trkpt>
      <trkpt lat="45.08827" lon="5.07983">
        <ele>221.27000427246</ele>
        <time>2010-01-23T16:07:08Z</time>
      </trkpt>
      <trkpt lat="45.08836" lon="5.07938">
        <ele>222.62800598144</ele>
        <time>2010-01-23T16:07:17Z</time>
      </trkpt>
      <trkpt lat="45.08849" lon="5.07902">
        <ele>223.6549987793</ele>
        <time>2010-01-23T16:07:25Z</time>
      </trkpt>
      <trkpt lat="45.08864" lon="5.07877">
        <ele>224.68600463867</ele>
        <time>2010-01-23T16:07:32Z</time>
      </trkpt>
      <trkpt lat="45.08889" lon="5.07846">
        <ele>226.50900268555</ele>
        <time>2010-01-23T16:07:43Z</time>
      </trkpt>
      <trkpt lat="45.08916" lon="5.0783">
        <ele>227.4700012207</ele>
        <time>2010-01-23T16:07:52Z</time>
      </trkpt>
      <trkpt lat="45.08949" lon="5.07813">
        <ele>228.40899658203</ele>
        <time>2010-01-23T16:08:02Z</time>
      </trkpt>
      <trkpt lat="45.08976" lon="5.07794">
        <ele>229.31100463867</ele>
        <time>2010-01-23T16:08:10Z</time>
      </trkpt>
      <trkpt lat="45.09007" lon="5.07767">
        <ele>230.48699951172</ele>
        <time>2010-01-23T16:08:19Z</time>
      </trkpt>
      <trkpt lat="45.09031" lon="5.07747">
        <ele>230.92900085449</ele>
        <time>2010-01-23T16:08:26Z</time>
      </trkpt>
      <trkpt lat="45.09046" lon="5.07733">
        <ele>230.91200256348</ele>
        <time>2010-01-23T16:08:32Z</time>
      </trkpt>
      <trkpt lat="45.09066" lon="5.07715">
        <ele>230.23399353027</ele>
        <time>2010-01-23T16:08:39Z</time>
      </trkpt>
      <trkpt lat="45.0909" lon="5.07695">
        <ele>229.80599975586</ele>
        <time>2010-01-23T16:08:46Z</time>
      </trkpt>
      <trkpt lat="45.09093" lon="5.07691">
        <ele>229.69900512695</ele>
        <time>2010-01-23T16:08:47Z</time>
      </trkpt>
      <trkpt lat="45.09117" lon="5.07663">
        <ele>229.39700317383</ele>
        <time>2010-01-23T16:08:54Z</time>
      </trkpt>
      <trkpt lat="45.09125" lon="5.07647">
        <ele>228.66400146484</ele>
        <time>2010-01-23T16:08:57Z</time>
      </trkpt>
      <trkpt lat="45.09137" lon="5.07622">
        <ele>228.22900390625</ele>
        <time>2010-01-23T16:09:01Z</time>
      </trkpt>
      <trkpt lat="45.09175" lon="5.07547">
        <ele>226.66499328613</ele>
        <time>2010-01-23T16:09:12Z</time>
      </trkpt>
      <trkpt lat="45.0921" lon="5.07475">
        <ele>224.56100463867</ele>
        <time>2010-01-23T16:09:22Z</time>
      </trkpt>
      <trkpt lat="45.09243" lon="5.07408">
        <ele>223.20399475098</ele>
        <time>2010-01-23T16:09:31Z</time>
      </trkpt>
      <trkpt lat="45.09279" lon="5.07335">
        <ele>222.40100097656</ele>
        <time>2010-01-23T16:09:41Z</time>
      </trkpt>
      <trkpt lat="45.09306" lon="5.07271">
        <ele>222.59199523926</ele>
        <time>2010-01-23T16:09:50Z</time>
      </trkpt>
      <trkpt lat="45.09326" lon="5.07225">
        <ele>223.07000732422</ele>
        <time>2010-01-23T16:09:57Z</time>
      </trkpt>
      <trkpt lat="45.09339" lon="5.07212">
        <ele>223.625</ele>
        <time>2010-01-23T16:10:00Z</time>
      </trkpt>
      <trkpt lat="45.09362" lon="5.07192">
        <ele>223.71699523926</ele>
        <time>2010-01-23T16:10:05Z</time>
      </trkpt>
      <trkpt lat="45.09377" lon="5.07168">
        <ele>223.56500244141</ele>
        <time>2010-01-23T16:10:10Z</time>
      </trkpt>
      <trkpt lat="45.09385" lon="5.07138">
        <ele>222.59100341797</ele>
        <time>2010-01-23T16:10:14Z</time>
      </trkpt>
      <trkpt lat="45.09383" lon="5.07079">
        <ele>221.28999328613</ele>
        <time>2010-01-23T16:10:21Z</time>
      </trkpt>
      <trkpt lat="45.09381" lon="5.07042">
        <ele>220.28199768066</ele>
        <time>2010-01-23T16:10:25Z</time>
      </trkpt>
      <trkpt lat="45.09378" lon="5.06963">
        <ele>218.96800231934</ele>
        <time>2010-01-23T16:10:33Z</time>
      </trkpt>
      <trkpt lat="45.09375" lon="5.06885">
        <ele>217.80700683594</ele>
        <time>2010-01-23T16:10:41Z</time>
      </trkpt>
      <trkpt lat="45.09372" lon="5.06804">
        <ele>217.20799255371</ele>
        <time>2010-01-23T16:10:50Z</time>
      </trkpt>
      <trkpt lat="45.09369" lon="5.06733">
        <ele>216.83099365234</ele>
        <time>2010-01-23T16:10:58Z</time>
      </trkpt>
      <trkpt lat="45.09373" lon="5.06639">
        <ele>215.82400512695</ele>
        <time>2010-01-23T16:11:08Z</time>
      </trkpt>
      <trkpt lat="45.09377" lon="5.06563">
        <ele>214.71000671387</ele>
        <time>2010-01-23T16:11:16Z</time>
      </trkpt>
      <trkpt lat="45.09374" lon="5.0649">
        <ele>214.15800476074</ele>
        <time>2010-01-23T16:11:24Z</time>
      </trkpt>
      <trkpt lat="45.0937" lon="5.06385">
        <ele>213.30299377441</ele>
        <time>2010-01-23T16:11:35Z</time>
      </trkpt>
      <trkpt lat="45.09369" lon="5.06299">
        <ele>212.76800537109</ele>
        <time>2010-01-23T16:11:44Z</time>
      </trkpt>
      <trkpt lat="45.09369" lon="5.06196">
        <ele>210.97300720215</ele>
        <time>2010-01-23T16:11:54Z</time>
      </trkpt>
      <trkpt lat="45.09369" lon="5.06094">
        <ele>210.25999450684</ele>
        <time>2010-01-23T16:12:04Z</time>
      </trkpt>
      <trkpt lat="45.09369" lon="5.06003">
        <ele>210.05499267578</ele>
        <time>2010-01-23T16:12:13Z</time>
      </trkpt>
      <trkpt lat="45.09374" lon="5.05963">
        <ele>209.74800109863</ele>
        <time>2010-01-23T16:12:17Z</time>
      </trkpt>
      <trkpt lat="45.09386" lon="5.05877">
        <ele>209.37699890137</ele>
        <time>2010-01-23T16:12:26Z</time>
      </trkpt>
      <trkpt lat="45.09399" lon="5.05816">
        <ele>209.73599243164</ele>
        <time>2010-01-23T16:12:33Z</time>
      </trkpt>
      <trkpt lat="45.09416" lon="5.0574">
        <ele>210.36199951172</ele>
        <time>2010-01-23T16:12:42Z</time>
      </trkpt>
      <trkpt lat="45.09427" lon="5.05674">
        <ele>211.34599304199</ele>
        <time>2010-01-23T16:12:50Z</time>
      </trkpt>
      <trkpt lat="45.09433" lon="5.05607">
        <ele>212.1190032959</ele>
        <time>2010-01-23T16:12:59Z</time>
      </trkpt>
      <trkpt lat="45.09429" lon="5.05542">
        <ele>211.41200256348</ele>
        <time>2010-01-23T16:13:06Z</time>
      </trkpt>
      <trkpt lat="45.0942" lon="5.05437">
        <ele>210.91600036621</ele>
        <time>2010-01-23T16:13:17Z</time>
      </trkpt>
      <trkpt lat="45.09411" lon="5.05388">
        <ele>210.97999572754</ele>
        <time>2010-01-23T16:13:23Z</time>
      </trkpt>
      <trkpt lat="45.09384" lon="5.0532">
        <ele>210.42199707031</ele>
        <time>2010-01-23T16:13:30Z</time>
      </trkpt>
      <trkpt lat="45.09357" lon="5.0527">
        <ele>210.22999572754</ele>
        <time>2010-01-23T16:13:36Z</time>
      </trkpt>
      <trkpt lat="45.09314" lon="5.05193">
        <ele>210.77600097656</ele>
        <time>2010-01-23T16:13:46Z</time>
      </trkpt>
      <trkpt lat="45.09278" lon="5.05126">
        <ele>210.89399719238</ele>
        <time>2010-01-23T16:13:57Z</time>
      </trkpt>
      <trkpt lat="45.09249" lon="5.05062">
        <ele>209.46099853516</ele>
        <time>2010-01-23T16:14:03Z</time>
      </trkpt>
      <trkpt lat="45.09241" lon="5.05044">
        <ele>208.98399353027</ele>
        <time>2010-01-23T16:14:05Z</time>
      </trkpt>
      <trkpt lat="45.09238" lon="5.04996">
        <ele>208.03399658203</ele>
        <time>2010-01-23T16:14:09Z</time>
      </trkpt>
      <trkpt lat="45.0925" lon="5.04966">
        <ele>207.46699523926</ele>
        <time>2010-01-23T16:14:12Z</time>
      </trkpt>
      <trkpt lat="45.09254" lon="5.04956">
        <ele>207.12899780273</ele>
        <time>2010-01-23T16:14:13Z</time>
      </trkpt>
      <trkpt lat="45.09275" lon="5.04921">
        <ele>205.61799621582</ele>
        <time>2010-01-23T16:14:17Z</time>
      </trkpt>
      <trkpt lat="45.0928" lon="5.04912">
        <ele>205.41000366211</ele>
        <time>2010-01-23T16:14:18Z</time>
      </trkpt>
      <trkpt lat="45.09296" lon="5.04864">
        <ele>204.41499328613</ele>
        <time>2010-01-23T16:14:23Z</time>
      </trkpt>
      <trkpt lat="45.09299" lon="5.04842">
        <ele>204.15699768066</ele>
        <time>2010-01-23T16:14:25Z</time>
      </trkpt>
      <trkpt lat="45.09303" lon="5.04784">
        <ele>203.70399475098</ele>
        <time>2010-01-23T16:14:31Z</time>
      </trkpt>
      <trkpt lat="45.09301" lon="5.04773">
        <ele>203.30099487305</ele>
        <time>2010-01-23T16:14:34Z</time>
      </trkpt>
      <trkpt lat="45.09301" lon="5.04771">
        <ele>203.67900085449</ele>
        <time>2010-01-23T16:14:36Z</time>
      </trkpt>
      <trkpt lat="45.093" lon="5.04769">
        <ele>203.49899291992</ele>
        <time>2010-01-23T16:15:13Z</time>
      </trkpt>
      <trkpt lat="45.093" lon="5.04766">
        <ele>203.7559967041</ele>
        <time>2010-01-23T16:15:16Z</time>
      </trkpt>
      <trkpt lat="45.09331" lon="5.04731">
        <ele>204.27299499512</ele>
        <time>2010-01-23T16:15:22Z</time>
      </trkpt>
      <trkpt lat="45.09346" lon="5.04718">
        <ele>204.83200073242</ele>
        <time>2010-01-23T16:15:26Z</time>
      </trkpt>
      <trkpt lat="45.09371" lon="5.04699">
        <ele>205.70899963379</ele>
        <time>2010-01-23T16:15:32Z</time>
      </trkpt>
      <trkpt lat="45.09417" lon="5.04675">
        <ele>207.375</ele>
        <time>2010-01-23T16:15:42Z</time>
      </trkpt>
      <trkpt lat="45.09432" lon="5.04668">
        <ele>207.63800048828</ele>
        <time>2010-01-23T16:15:45Z</time>
      </trkpt>
      <trkpt lat="45.09464" lon="5.04652">
        <ele>208.50900268555</ele>
        <time>2010-01-23T16:15:51Z</time>
      </trkpt>
      <trkpt lat="45.09513" lon="5.04627">
        <ele>209.39399719238</ele>
        <time>2010-01-23T16:16:00Z</time>
      </trkpt>
      <trkpt lat="45.09546" lon="5.04609">
        <ele>209.85899353027</ele>
        <time>2010-01-23T16:16:07Z</time>
      </trkpt>
      <trkpt lat="45.09571" lon="5.04593">
        <ele>210.96600341797</ele>
        <time>2010-01-23T16:16:12Z</time>
      </trkpt>
      <trkpt lat="45.09593" lon="5.04553">
        <ele>211.7559967041</ele>
        <time>2010-01-23T16:16:19Z</time>
      </trkpt>
      <trkpt lat="45.09599" lon="5.04542">
        <ele>212.11599731445</ele>
        <time>2010-01-23T16:16:21Z</time>
      </trkpt>
      <trkpt lat="45.09624" lon="5.04527">
        <ele>213.21699523926</ele>
        <time>2010-01-23T16:16:27Z</time>
      </trkpt>
      <trkpt lat="45.09633" lon="5.04524">
        <ele>213.25700378418</ele>
        <time>2010-01-23T16:16:31Z</time>
      </trkpt>
      <trkpt lat="45.09619" lon="5.045">
        <ele>213.54800415039</ele>
        <time>2010-01-23T16:16:32Z</time>
      </trkpt>
      <trkpt lat="45.09624" lon="5.04473">
        <ele>214.4880065918</ele>
        <time>2010-01-23T16:16:37Z</time>
      </trkpt>
      <trkpt lat="45.0963" lon="5.04443">
        <ele>214.96800231934</ele>
        <time>2010-01-23T16:16:42Z</time>
      </trkpt>
      <trkpt lat="45.0963" lon="5.0444">
        <ele>215.19599914551</ele>
        <time>2010-01-23T16:16:43Z</time>
      </trkpt>
      <trkpt lat="45.0963" lon="5.0444">
        <ele>215.91200256348</ele>
        <time>2010-01-23T16:16:48Z</time>
      </trkpt>
      <trkpt lat="45.09658" lon="5.0437">
        <ele>216.29699707031</ele>
        <time>2010-01-23T16:16:55Z</time>
      </trkpt>
      <trkpt lat="45.09682" lon="5.0433">
        <ele>215.82000732422</ele>
        <time>2010-01-23T16:17:02Z</time>
      </trkpt>
      <trkpt lat="45.09714" lon="5.04293">
        <ele>214.74299621582</ele>
        <time>2010-01-23T16:17:09Z</time>
      </trkpt>
      <trkpt lat="45.0975" lon="5.04254">
        <ele>214.19099426269</ele>
        <time>2010-01-23T16:17:16Z</time>
      </trkpt>
      <trkpt lat="45.09792" lon="5.0421">
        <ele>213.80599975586</ele>
        <time>2010-01-23T16:17:23Z</time>
      </trkpt>
      <trkpt lat="45.09836" lon="5.04158">
        <ele>213.97999572754</ele>
        <time>2010-01-23T16:17:31Z</time>
      </trkpt>
      <trkpt lat="45.09847" lon="5.04145">
        <ele>213.90600585938</ele>
        <time>2010-01-23T16:17:33Z</time>
      </trkpt>
      <trkpt lat="45.09864" lon="5.04113">
        <ele>213.37199401856</ele>
        <time>2010-01-23T16:17:37Z</time>
      </trkpt>
      <trkpt lat="45.09881" lon="5.04037">
        <ele>213.0890045166</ele>
        <time>2010-01-23T16:17:45Z</time>
      </trkpt>
      <trkpt lat="45.09886" lon="5.03992">
        <ele>213.18499755859</ele>
        <time>2010-01-23T16:17:50Z</time>
      </trkpt>
      <trkpt lat="45.09884" lon="5.03982">
        <ele>213.16200256348</ele>
        <time>2010-01-23T16:17:51Z</time>
      </trkpt>
      <trkpt lat="45.09862" lon="5.03921">
        <ele>213.39599609375</ele>
        <time>2010-01-23T16:17:58Z</time>
      </trkpt>
      <trkpt lat="45.09831" lon="5.03842">
        <ele>213.51800537109</ele>
        <time>2010-01-23T16:18:07Z</time>
      </trkpt>
      <trkpt lat="45.09809" lon="5.03778">
        <ele>214.47099304199</ele>
        <time>2010-01-23T16:18:14Z</time>
      </trkpt>
      <trkpt lat="45.098" lon="5.03727">
        <ele>215.72900390625</ele>
        <time>2010-01-23T16:18:20Z</time>
      </trkpt>
      <trkpt lat="45.0979" lon="5.03676">
        <ele>216.85000610352</ele>
        <time>2010-01-23T16:18:27Z</time>
      </trkpt>
      <trkpt lat="45.09789" lon="5.03637">
        <ele>217.48399353027</ele>
        <time>2010-01-23T16:18:32Z</time>
      </trkpt>
      <trkpt lat="45.09799" lon="5.03591">
        <ele>216.80700683594</ele>
        <time>2010-01-23T16:18:38Z</time>
      </trkpt>
      <trkpt lat="45.09814" lon="5.0355">
        <ele>216.27600097656</ele>
        <time>2010-01-23T16:18:43Z</time>
      </trkpt>
      <trkpt lat="45.09856" lon="5.03479">
        <ele>215.7200012207</ele>
        <time>2010-01-23T16:18:52Z</time>
      </trkpt>
      <trkpt lat="45.09895" lon="5.03414">
        <ele>215.43400573731</ele>
        <time>2010-01-23T16:19:00Z</time>
      </trkpt>
      <trkpt lat="45.09908" lon="5.0337">
        <ele>216.57099914551</ele>
        <time>2010-01-23T16:19:05Z</time>
      </trkpt>
      <trkpt lat="45.09924" lon="5.03312">
        <ele>219.28199768066</ele>
        <time>2010-01-23T16:19:12Z</time>
      </trkpt>
      <trkpt lat="45.09937" lon="5.03264">
        <ele>220.7380065918</ele>
        <time>2010-01-23T16:19:19Z</time>
      </trkpt>
      <trkpt lat="45.09952" lon="5.03212">
        <ele>222.96299743652</ele>
        <time>2010-01-23T16:19:27Z</time>
      </trkpt>
      <trkpt lat="45.09973" lon="5.0314">
        <ele>224.78100585938</ele>
        <time>2010-01-23T16:19:38Z</time>
      </trkpt>
      <trkpt lat="45.09992" lon="5.03071">
        <ele>225.78700256348</ele>
        <time>2010-01-23T16:19:48Z</time>
      </trkpt>
      <trkpt lat="45.10014" lon="5.02998">
        <ele>228.18299865723</ele>
        <time>2010-01-23T16:19:59Z</time>
      </trkpt>
      <trkpt lat="45.10027" lon="5.02948">
        <ele>229.74899291992</ele>
        <time>2010-01-23T16:20:07Z</time>
      </trkpt>
      <trkpt lat="45.10041" lon="5.02899">
        <ele>232.29800415039</ele>
        <time>2010-01-23T16:20:16Z</time>
      </trkpt>
      <trkpt lat="45.10054" lon="5.02852">
        <ele>234.93200683594</ele>
        <time>2010-01-23T16:20:26Z</time>
      </trkpt>
      <trkpt lat="45.10058" lon="5.02822">
        <ele>236.58099365234</ele>
        <time>2010-01-23T16:20:32Z</time>
      </trkpt>
      <trkpt lat="45.10059" lon="5.02809">
        <ele>237.49099731445</ele>
        <time>2010-01-23T16:20:35Z</time>
      </trkpt>
      <trkpt lat="45.10064" lon="5.02772">
        <ele>239.42599487305</ele>
        <time>2010-01-23T16:20:40Z</time>
      </trkpt>
      <trkpt lat="45.10061" lon="5.02747">
        <ele>240.91299438477</ele>
        <time>2010-01-23T16:20:45Z</time>
      </trkpt>
      <trkpt lat="45.10036" lon="5.0271">
        <ele>243.28999328613</ele>
        <time>2010-01-23T16:20:54Z</time>
      </trkpt>
      <trkpt lat="45.10008" lon="5.02675">
        <ele>245.99899291992</ele>
        <time>2010-01-23T16:21:03Z</time>
      </trkpt>
      <trkpt lat="45.10005" lon="5.02671">
        <ele>245.97200012207</ele>
        <time>2010-01-23T16:21:04Z</time>
      </trkpt>
      <trkpt lat="45.09998" lon="5.02664">
        <ele>246.55099487305</ele>
        <time>2010-01-23T16:21:06Z</time>
      </trkpt>
      <trkpt lat="45.09982" lon="5.02628">
        <ele>248.56300354004</ele>
        <time>2010-01-23T16:21:13Z</time>
      </trkpt>
      <trkpt lat="45.09969" lon="5.02589">
        <ele>250.42300415039</ele>
        <time>2010-01-23T16:21:20Z</time>
      </trkpt>
      <trkpt lat="45.09967" lon="5.02583">
        <ele>250.47999572754</ele>
        <time>2010-01-23T16:21:21Z</time>
      </trkpt>
      <trkpt lat="45.09947" lon="5.02552">
        <ele>252.65699768066</ele>
        <time>2010-01-23T16:21:28Z</time>
      </trkpt>
      <trkpt lat="45.09917" lon="5.0251">
        <ele>255.44200134277</ele>
        <time>2010-01-23T16:21:38Z</time>
      </trkpt>
      <trkpt lat="45.09905" lon="5.02482">
        <ele>256.98498535156</ele>
        <time>2010-01-23T16:21:43Z</time>
      </trkpt>
      <trkpt lat="45.09898" lon="5.02461">
        <ele>258.1130065918</ele>
        <time>2010-01-23T16:21:47Z</time>
      </trkpt>
      <trkpt lat="45.09887" lon="5.02432">
        <ele>259.55999755859</ele>
        <time>2010-01-23T16:21:53Z</time>
      </trkpt>
      <trkpt lat="45.09879" lon="5.02405">
        <ele>260.76098632812</ele>
        <time>2010-01-23T16:21:58Z</time>
      </trkpt>
      <trkpt lat="45.09865" lon="5.02355">
        <ele>260.16900634766</ele>
        <time>2010-01-23T16:22:06Z</time>
      </trkpt>
      <trkpt lat="45.09853" lon="5.02306">
        <ele>258.20401000977</ele>
        <time>2010-01-23T16:22:12Z</time>
      </trkpt>
      <trkpt lat="45.09848" lon="5.02251">
        <ele>256.11099243164</ele>
        <time>2010-01-23T16:22:17Z</time>
      </trkpt>
      <trkpt lat="45.09852" lon="5.02227">
        <ele>254.76400756836</ele>
        <time>2010-01-23T16:22:19Z</time>
      </trkpt>
      <trkpt lat="45.09879" lon="5.02127">
        <ele>249.95799255371</ele>
        <time>2010-01-23T16:22:27Z</time>
      </trkpt>
      <trkpt lat="45.09884" lon="5.02114">
        <ele>249.99299621582</ele>
        <time>2010-01-23T16:22:28Z</time>
      </trkpt>
      <trkpt lat="45.09907" lon="5.02051">
        <ele>247.16900634766</ele>
        <time>2010-01-23T16:22:33Z</time>
      </trkpt>
      <trkpt lat="45.09916" lon="5.02025">
        <ele>246.09399414062</ele>
        <time>2010-01-23T16:22:35Z</time>
      </trkpt>
      <trkpt lat="45.0994" lon="5.01961">
        <ele>243.32000732422</ele>
        <time>2010-01-23T16:22:40Z</time>
      </trkpt>
      <trkpt lat="45.09959" lon="5.01907">
        <ele>241.77000427246</ele>
        <time>2010-01-23T16:22:44Z</time>
      </trkpt>
      <trkpt lat="45.09972" lon="5.01867">
        <ele>240.95599365234</ele>
        <time>2010-01-23T16:22:47Z</time>
      </trkpt>
      <trkpt lat="45.09999" lon="5.01791">
        <ele>238.8630065918</ele>
        <time>2010-01-23T16:22:53Z</time>
      </trkpt>
      <trkpt lat="45.10015" lon="5.01742">
        <ele>238.17900085449</ele>
        <time>2010-01-23T16:22:57Z</time>
      </trkpt>
      <trkpt lat="45.10024" lon="5.01718">
        <ele>237.19400024414</ele>
        <time>2010-01-23T16:22:59Z</time>
      </trkpt>
      <trkpt lat="45.10028" lon="5.01707">
        <ele>237.28799438477</ele>
        <time>2010-01-23T16:23:00Z</time>
      </trkpt>
      <trkpt lat="45.10049" lon="5.01637">
        <ele>237.18299865723</ele>
        <time>2010-01-23T16:23:06Z</time>
      </trkpt>
      <trkpt lat="45.10054" lon="5.01577">
        <ele>237.08799743652</ele>
        <time>2010-01-23T16:23:11Z</time>
      </trkpt>
      <trkpt lat="45.10061" lon="5.01475">
        <ele>237.40699768066</ele>
        <time>2010-01-23T16:23:20Z</time>
      </trkpt>
      <trkpt lat="45.1007" lon="5.01376">
        <ele>237.91000366211</ele>
        <time>2010-01-23T16:23:29Z</time>
      </trkpt>
      <trkpt lat="45.1008" lon="5.01279">
        <ele>237.88499450684</ele>
        <time>2010-01-23T16:23:38Z</time>
      </trkpt>
      <trkpt lat="45.10088" lon="5.01201">
        <ele>238.02400207519</ele>
        <time>2010-01-23T16:23:45Z</time>
      </trkpt>
      <trkpt lat="45.10105" lon="5.01145">
        <ele>237.74899291992</ele>
        <time>2010-01-23T16:23:50Z</time>
      </trkpt>
      <trkpt lat="45.10135" lon="5.0109">
        <ele>237.07299804688</ele>
        <time>2010-01-23T16:23:56Z</time>
      </trkpt>
      <trkpt lat="45.10199" lon="5.00992">
        <ele>235.35400390625</ele>
        <time>2010-01-23T16:24:07Z</time>
      </trkpt>
      <trkpt lat="45.10237" lon="5.00941">
        <ele>234.3869934082</ele>
        <time>2010-01-23T16:24:13Z</time>
      </trkpt>
      <trkpt lat="45.10284" lon="5.00905">
        <ele>233.30999755859</ele>
        <time>2010-01-23T16:24:19Z</time>
      </trkpt>
      <trkpt lat="45.1035" lon="5.00855">
        <ele>232.19599914551</ele>
        <time>2010-01-23T16:24:27Z</time>
      </trkpt>
      <trkpt lat="45.10431" lon="5.00782">
        <ele>231.50100708008</ele>
        <time>2010-01-23T16:24:37Z</time>
      </trkpt>
      <trkpt lat="45.10492" lon="5.00734">
        <ele>232.9640045166</ele>
        <time>2010-01-23T16:24:45Z</time>
      </trkpt>
      <trkpt lat="45.10532" lon="5.00699">
        <ele>234.71899414062</ele>
        <time>2010-01-23T16:24:51Z</time>
      </trkpt>
      <trkpt lat="45.10566" lon="5.00669">
        <ele>237.03500366211</ele>
        <time>2010-01-23T16:24:57Z</time>
      </trkpt>
      <trkpt lat="45.10592" lon="5.00647">
        <ele>238.53199768066</ele>
        <time>2010-01-23T16:25:02Z</time>
      </trkpt>
      <trkpt lat="45.10622" lon="5.00627">
        <ele>240.16999816894</ele>
        <time>2010-01-23T16:25:08Z</time>
      </trkpt>
      <trkpt lat="45.1065" lon="5.00611">
        <ele>241.49099731445</ele>
        <time>2010-01-23T16:25:14Z</time>
      </trkpt>
      <trkpt lat="45.10665" lon="5.00603">
        <ele>242.75799560547</ele>
        <time>2010-01-23T16:25:17Z</time>
      </trkpt>
      <trkpt lat="45.10703" lon="5.00595">
        <ele>244.70100402832</ele>
        <time>2010-01-23T16:25:25Z</time>
      </trkpt>
      <trkpt lat="45.1074" lon="5.00587">
        <ele>247.01899719238</ele>
        <time>2010-01-23T16:25:33Z</time>
      </trkpt>
      <trkpt lat="45.10776" lon="5.00579">
        <ele>250.04899597168</ele>
        <time>2010-01-23T16:25:41Z</time>
      </trkpt>
      <trkpt lat="45.10822" lon="5.00569">
        <ele>253.2799987793</ele>
        <time>2010-01-23T16:25:50Z</time>
      </trkpt>
      <trkpt lat="45.10881" lon="5.00558">
        <ele>256.56600952148</ele>
        <time>2010-01-23T16:26:01Z</time>
      </trkpt>
      <trkpt lat="45.10905" lon="5.0055">
        <ele>257.41198730469</ele>
        <time>2010-01-23T16:26:06Z</time>
      </trkpt>
      <trkpt lat="45.10947" lon="5.00522">
        <ele>257.80599975586</ele>
        <time>2010-01-23T16:26:15Z</time>
      </trkpt>
      <trkpt lat="45.10981" lon="5.00498">
        <ele>256.14999389648</ele>
        <time>2010-01-23T16:26:22Z</time>
      </trkpt>
      <trkpt lat="45.11018" lon="5.00473">
        <ele>253.84899902344</ele>
        <time>2010-01-23T16:26:28Z</time>
      </trkpt>
      <trkpt lat="45.11073" lon="5.00435">
        <ele>251.53300476074</ele>
        <time>2010-01-23T16:26:35Z</time>
      </trkpt>
      <trkpt lat="45.11118" lon="5.0041">
        <ele>248.40699768066</ele>
        <time>2010-01-23T16:26:40Z</time>
      </trkpt>
      <trkpt lat="45.11148" lon="5.00393">
        <ele>246.99899291992</ele>
        <time>2010-01-23T16:26:43Z</time>
      </trkpt>
      <trkpt lat="45.11178" lon="5.00376">
        <ele>245.59199523926</ele>
        <time>2010-01-23T16:26:46Z</time>
      </trkpt>
      <trkpt lat="45.1122" lon="5.00356">
        <ele>243.41900634766</ele>
        <time>2010-01-23T16:26:50Z</time>
      </trkpt>
      <trkpt lat="45.11272" lon="5.0033">
        <ele>241.35499572754</ele>
        <time>2010-01-23T16:26:55Z</time>
      </trkpt>
      <trkpt lat="45.11335" lon="5.00278">
        <ele>238.85699462891</ele>
        <time>2010-01-23T16:27:02Z</time>
      </trkpt>
      <trkpt lat="45.11391" lon="5.00229">
        <ele>238.18400573731</ele>
        <time>2010-01-23T16:27:09Z</time>
      </trkpt>
      <trkpt lat="45.11473" lon="5.00167">
        <ele>237.89999389648</ele>
        <time>2010-01-23T16:27:19Z</time>
      </trkpt>
      <trkpt lat="45.11532" lon="5.0011">
        <ele>237.80400085449</ele>
        <time>2010-01-23T16:27:28Z</time>
      </trkpt>
      <trkpt lat="45.11586" lon="5.00053">
        <ele>237.5359954834</ele>
        <time>2010-01-23T16:27:37Z</time>
      </trkpt>
      <trkpt lat="45.1162" lon="4.9999">
        <ele>234.93200683594</ele>
        <time>2010-01-23T16:27:45Z</time>
      </trkpt>
      <trkpt lat="45.11653" lon="4.9995">
        <ele>232.6369934082</ele>
        <time>2010-01-23T16:27:50Z</time>
      </trkpt>
      <trkpt lat="45.11698" lon="4.99918">
        <ele>229.53500366211</ele>
        <time>2010-01-23T16:27:55Z</time>
      </trkpt>
      <trkpt lat="45.11737" lon="4.99899">
        <ele>225.77900695801</ele>
        <time>2010-01-23T16:28:00Z</time>
      </trkpt>
      <trkpt lat="45.11806" lon="4.99868">
        <ele>221.56100463867</ele>
        <time>2010-01-23T16:28:05Z</time>
      </trkpt>
      <trkpt lat="45.11823" lon="4.99861">
        <ele>220.14500427246</ele>
        <time>2010-01-23T16:28:07Z</time>
      </trkpt>
      <trkpt lat="45.11856" lon="4.99846">
        <ele>219.34599304199</ele>
        <time>2010-01-23T16:28:09Z</time>
      </trkpt>
      <trkpt lat="45.1191" lon="4.99806">
        <ele>215.63900756836</ele>
        <time>2010-01-23T16:28:14Z</time>
      </trkpt>
      <trkpt lat="45.11945" lon="4.99757">
        <ele>213.85800170898</ele>
        <time>2010-01-23T16:28:18Z</time>
      </trkpt>
      <trkpt lat="45.1198" lon="4.99701">
        <ele>213.02600097656</ele>
        <time>2010-01-23T16:28:23Z</time>
      </trkpt>
      <trkpt lat="45.12014" lon="4.9964">
        <ele>213.48899841309</ele>
        <time>2010-01-23T16:28:29Z</time>
      </trkpt>
      <trkpt lat="45.12045" lon="4.99584">
        <ele>214.13400268555</ele>
        <time>2010-01-23T16:28:35Z</time>
      </trkpt>
      <trkpt lat="45.12065" lon="4.99548">
        <ele>213.78999328613</ele>
        <time>2010-01-23T16:28:39Z</time>
      </trkpt>
      <trkpt lat="45.12111" lon="4.99464">
        <ele>212.37699890137</ele>
        <time>2010-01-23T16:28:48Z</time>
      </trkpt>
      <trkpt lat="45.12135" lon="4.99404">
        <ele>212.41400146484</ele>
        <time>2010-01-23T16:28:54Z</time>
      </trkpt>
      <trkpt lat="45.12151" lon="4.99344">
        <ele>211.66600036621</ele>
        <time>2010-01-23T16:29:00Z</time>
      </trkpt>
      <trkpt lat="45.12171" lon="4.99268">
        <ele>212.07499694824</ele>
        <time>2010-01-23T16:29:09Z</time>
      </trkpt>
      <trkpt lat="45.12193" lon="4.99187">
        <ele>211.84100341797</ele>
        <time>2010-01-23T16:29:17Z</time>
      </trkpt>
      <trkpt lat="45.12211" lon="4.99114">
        <ele>212.94299316406</ele>
        <time>2010-01-23T16:29:26Z</time>
      </trkpt>
      <trkpt lat="45.12215" lon="4.99093">
        <ele>213.38499450684</ele>
        <time>2010-01-23T16:29:29Z</time>
      </trkpt>
      <trkpt lat="45.12218" lon="4.99075">
        <ele>214.93400573731</ele>
        <time>2010-01-23T16:29:34Z</time>
      </trkpt>
      <trkpt lat="45.12235" lon="4.99047">
        <ele>214.69599914551</ele>
        <time>2010-01-23T16:29:38Z</time>
      </trkpt>
      <trkpt lat="45.12225" lon="4.99041">
        <ele>214.47599792481</ele>
        <time>2010-01-23T16:29:41Z</time>
      </trkpt>
      <trkpt lat="45.12216" lon="4.99045">
        <ele>213.69299316406</ele>
        <time>2010-01-23T16:29:44Z</time>
      </trkpt>
      <trkpt lat="45.12196" lon="4.99038">
        <ele>213.31599426269</ele>
        <time>2010-01-23T16:29:45Z</time>
      </trkpt>
      <trkpt lat="45.12185" lon="4.99025">
        <ele>212.39199829102</ele>
        <time>2010-01-23T16:29:47Z</time>
      </trkpt>
      <trkpt lat="45.12173" lon="4.99011">
        <ele>211.36099243164</ele>
        <time>2010-01-23T16:29:49Z</time>
      </trkpt>
      <trkpt lat="45.12137" lon="4.98966">
        <ele>210.02400207519</ele>
        <time>2010-01-23T16:29:55Z</time>
      </trkpt>
      <trkpt lat="45.1211" lon="4.9892">
        <ele>208.34300231934</ele>
        <time>2010-01-23T16:30:00Z</time>
      </trkpt>
      <trkpt lat="45.12105" lon="4.98911">
        <ele>208.24699401856</ele>
        <time>2010-01-23T16:30:01Z</time>
      </trkpt>
      <trkpt lat="45.12073" lon="4.98837">
        <ele>207.59599304199</ele>
        <time>2010-01-23T16:30:09Z</time>
      </trkpt>
      <trkpt lat="45.12045" lon="4.9876">
        <ele>206.75399780273</ele>
        <time>2010-01-23T16:30:17Z</time>
      </trkpt>
      <trkpt lat="45.12027" lon="4.98688">
        <ele>206.27299499512</ele>
        <time>2010-01-23T16:30:24Z</time>
      </trkpt>
      <trkpt lat="45.12019" lon="4.98629">
        <ele>206.45700073242</ele>
        <time>2010-01-23T16:30:30Z</time>
      </trkpt>
      <trkpt lat="45.12016" lon="4.98567">
        <ele>206.28999328613</ele>
        <time>2010-01-23T16:30:37Z</time>
      </trkpt>
      <trkpt lat="45.12017" lon="4.98516">
        <ele>205.98100280762</ele>
        <time>2010-01-23T16:30:44Z</time>
      </trkpt>
      <trkpt lat="45.1202" lon="4.98476">
        <ele>206.07299804688</ele>
        <time>2010-01-23T16:30:49Z</time>
      </trkpt>
      <trkpt lat="45.1202" lon="4.98462">
        <ele>206.2200012207</ele>
        <time>2010-01-23T16:30:51Z</time>
      </trkpt>
      <trkpt lat="45.12042" lon="4.98436">
        <ele>206.30999755859</ele>
        <time>2010-01-23T16:30:55Z</time>
      </trkpt>
      <trkpt lat="45.12042" lon="4.98436">
        <ele>206.40100097656</ele>
        <time>2010-01-23T16:30:56Z</time>
      </trkpt>
      <trkpt lat="45.12059" lon="4.9841">
        <ele>206.47599792481</ele>
        <time>2010-01-23T16:31:00Z</time>
      </trkpt>
      <trkpt lat="45.12051" lon="4.98391">
        <ele>206.29800415039</ele>
        <time>2010-01-23T16:31:02Z</time>
      </trkpt>
      <trkpt lat="45.12046" lon="4.98389">
        <ele>206.53300476074</ele>
        <time>2010-01-23T16:31:05Z</time>
      </trkpt>
      <trkpt lat="45.12046" lon="4.98389">
        <ele>206.41799926758</ele>
        <time>2010-01-23T16:31:08Z</time>
      </trkpt>
      <trkpt lat="45.11992" lon="4.98392">
        <ele>205.69500732422</ele>
        <time>2010-01-23T16:31:14Z</time>
      </trkpt>
      <trkpt lat="45.11979" lon="4.98385">
        <ele>205.30900573731</ele>
        <time>2010-01-23T16:31:17Z</time>
      </trkpt>
      <trkpt lat="45.11978" lon="4.98392">
        <ele>205.09300231934</ele>
        <time>2010-01-23T16:31:18Z</time>
      </trkpt>
      <trkpt lat="45.11978" lon="4.98423">
        <ele>205.01300048828</ele>
        <time>2010-01-23T16:31:24Z</time>
      </trkpt>
      <trkpt lat="45.11978" lon="4.98432">
        <ele>205.18899536133</ele>
        <time>2010-01-23T16:31:27Z</time>
      </trkpt>
      <trkpt lat="45.11985" lon="4.98388">
        <ele>204.91000366211</ele>
        <time>2010-01-23T16:31:32Z</time>
      </trkpt>
      <trkpt lat="45.11985" lon="4.98388">
        <ele>204.88999938965</ele>
        <time>2010-01-23T16:38:23Z</time>
      </trkpt>
      <trkpt lat="45.11988" lon="4.9839">
        <ele>205.08700561523</ele>
        <time>2010-01-23T16:38:27Z</time>
      </trkpt>
      <trkpt lat="45.11988" lon="4.9839">
        <ele>205.11999511719</ele>
        <time>2010-01-23T16:39:00Z</time>
      </trkpt>
      <trkpt lat="45.11988" lon="4.9839">
        <ele>204.95399475098</ele>
        <time>2010-01-23T16:39:01Z</time>
      </trkpt>
      <trkpt lat="45.11978" lon="4.98437">
        <ele>205.64999389648</ele>
        <time>2010-01-23T16:42:48Z</time>
      </trkpt>
      <trkpt lat="45.11978" lon="4.98433">
        <ele>205.3690032959</ele>
        <time>2010-01-23T16:42:51Z</time>
      </trkpt>
      <trkpt lat="45.11978" lon="4.98424">
        <ele>205.43600463867</ele>
        <time>2010-01-23T16:42:59Z</time>
      </trkpt>
      <trkpt lat="45.11978" lon="4.98422">
        <ele>205.3450012207</ele>
        <time>2010-01-23T16:43:00Z</time>
      </trkpt>
      <trkpt lat="45.11978" lon="4.98408">
        <ele>205.24099731445</ele>
        <time>2010-01-23T16:43:05Z</time>
      </trkpt>
      <trkpt lat="45.11985" lon="4.98388">
        <ele>205.10099792481</ele>
        <time>2010-01-23T16:43:13Z</time>
      </trkpt>
      <trkpt lat="45.11998" lon="4.98395">
        <ele>205.44099426269</ele>
        <time>2010-01-23T16:43:18Z</time>
      </trkpt>
      <trkpt lat="45.12019" lon="4.98405">
        <ele>206.18699645996</ele>
        <time>2010-01-23T16:43:25Z</time>
      </trkpt>
      <trkpt lat="45.12029" lon="4.9841">
        <ele>206.85000610352</ele>
        <time>2010-01-23T16:43:30Z</time>
      </trkpt>
      <trkpt lat="45.12029" lon="4.9841">
        <ele>206.9880065918</ele>
        <time>2010-01-23T16:43:31Z</time>
      </trkpt>
      <trkpt lat="45.12029" lon="4.9841">
        <ele>207.13000488281</ele>
        <time>2010-01-23T16:43:35Z</time>
      </trkpt>
      <trkpt lat="45.12049" lon="4.98432">
        <ele>207.19900512695</ele>
        <time>2010-01-23T16:43:39Z</time>
      </trkpt>
      <trkpt lat="45.12059" lon="4.98412">
        <ele>207.18200683594</ele>
        <time>2010-01-23T16:43:42Z</time>
      </trkpt>
      <trkpt lat="45.12059" lon="4.9841">
        <ele>207.33000183106</ele>
        <time>2010-01-23T16:43:43Z</time>
      </trkpt>
      <trkpt lat="45.12049" lon="4.98367">
        <ele>206.8630065918</ele>
        <time>2010-01-23T16:43:47Z</time>
      </trkpt>
      <trkpt lat="45.12054" lon="4.98339">
        <ele>207.12699890137</ele>
        <time>2010-01-23T16:43:50Z</time>
      </trkpt>
      <trkpt lat="45.12055" lon="4.98329">
        <ele>206.29499816894</ele>
        <time>2010-01-23T16:43:51Z</time>
      </trkpt>
      <trkpt lat="45.12065" lon="4.9825">
        <ele>205.81399536133</ele>
        <time>2010-01-23T16:43:59Z</time>
      </trkpt>
      <trkpt lat="45.12065" lon="4.98186">
        <ele>205.80900573731</ele>
        <time>2010-01-23T16:44:06Z</time>
      </trkpt>
      <trkpt lat="45.12055" lon="4.9812">
        <ele>204.93499755859</ele>
        <time>2010-01-23T16:44:13Z</time>
      </trkpt>
      <trkpt lat="45.1204" lon="4.98052">
        <ele>204.56199645996</ele>
        <time>2010-01-23T16:44:20Z</time>
      </trkpt>
      <trkpt lat="45.12016" lon="4.97936">
        <ele>203.05999755859</ele>
        <time>2010-01-23T16:44:32Z</time>
      </trkpt>
      <trkpt lat="45.11999" lon="4.97846">
        <ele>201.78700256348</ele>
        <time>2010-01-23T16:44:41Z</time>
      </trkpt>
      <trkpt lat="45.11997" lon="4.97834">
        <ele>202.28799438477</ele>
        <time>2010-01-23T16:44:43Z</time>
      </trkpt>
      <trkpt lat="45.11996" lon="4.9783">
        <ele>201.42999267578</ele>
        <time>2010-01-23T16:44:44Z</time>
      </trkpt>
      <trkpt lat="45.11994" lon="4.97821">
        <ele>201.23899841309</ele>
        <time>2010-01-23T16:44:46Z</time>
      </trkpt>
      <trkpt lat="45.11993" lon="4.97815">
        <ele>201.50999450684</ele>
        <time>2010-01-23T16:44:47Z</time>
      </trkpt>
      <trkpt lat="45.11992" lon="4.97808">
        <ele>201.62699890137</ele>
        <time>2010-01-23T16:44:48Z</time>
      </trkpt>
      <trkpt lat="45.11986" lon="4.97775">
        <ele>201.29200744629</ele>
        <time>2010-01-23T16:44:52Z</time>
      </trkpt>
      <trkpt lat="45.11982" lon="4.97758">
        <ele>201.4940032959</ele>
        <time>2010-01-23T16:44:54Z</time>
      </trkpt>
      <trkpt lat="45.11974" lon="4.97711">
        <ele>201.47300720215</ele>
        <time>2010-01-23T16:44:59Z</time>
      </trkpt>
      <trkpt lat="45.11972" lon="4.97702">
        <ele>201.36799621582</ele>
        <time>2010-01-23T16:45:00Z</time>
      </trkpt>
      <trkpt lat="45.11965" lon="4.97663">
        <ele>201.30099487305</ele>
        <time>2010-01-23T16:45:04Z</time>
      </trkpt>
      <trkpt lat="45.11957" lon="4.97616">
        <ele>201.08500671387</ele>
        <time>2010-01-23T16:45:09Z</time>
      </trkpt>
      <trkpt lat="45.11951" lon="4.97579">
        <ele>201.21699523926</ele>
        <time>2010-01-23T16:45:13Z</time>
      </trkpt>
      <trkpt lat="45.11949" lon="4.97569">
        <ele>200.93699645996</ele>
        <time>2010-01-23T16:45:14Z</time>
      </trkpt>
      <trkpt lat="45.11929" lon="4.97457">
        <ele>199.85699462891</ele>
        <time>2010-01-23T16:45:25Z</time>
      </trkpt>
      <trkpt lat="45.11906" lon="4.97331">
        <ele>199.10099792481</ele>
        <time>2010-01-23T16:45:37Z</time>
      </trkpt>
      <trkpt lat="45.1189" lon="4.97243">
        <ele>198.66900634766</ele>
        <time>2010-01-23T16:45:46Z</time>
      </trkpt>
      <trkpt lat="45.11879" lon="4.97162">
        <ele>199.36399841309</ele>
        <time>2010-01-23T16:45:55Z</time>
      </trkpt>
      <trkpt lat="45.1188" lon="4.97121">
        <ele>199.50700378418</ele>
        <time>2010-01-23T16:46:00Z</time>
      </trkpt>
      <trkpt lat="45.11883" lon="4.97094">
        <ele>200.33700561523</ele>
        <time>2010-01-23T16:46:04Z</time>
      </trkpt>
      <trkpt lat="45.11905" lon="4.97077">
        <ele>201.14500427246</ele>
        <time>2010-01-23T16:46:08Z</time>
      </trkpt>
      <trkpt lat="45.11901" lon="4.97059">
        <ele>201.81900024414</ele>
        <time>2010-01-23T16:46:11Z</time>
      </trkpt>
      <trkpt lat="45.11888" lon="4.97054">
        <ele>200.94799804688</ele>
        <time>2010-01-23T16:46:15Z</time>
      </trkpt>
      <trkpt lat="45.11865" lon="4.97036">
        <ele>200.80099487305</ele>
        <time>2010-01-23T16:46:18Z</time>
      </trkpt>
      <trkpt lat="45.1184" lon="4.96999">
        <ele>200.75799560547</ele>
        <time>2010-01-23T16:46:24Z</time>
      </trkpt>
      <trkpt lat="45.11835" lon="4.96993">
        <ele>200.7859954834</ele>
        <time>2010-01-23T16:46:25Z</time>
      </trkpt>
      <trkpt lat="45.11793" lon="4.96932">
        <ele>200.43899536133</ele>
        <time>2010-01-23T16:46:35Z</time>
      </trkpt>
      <trkpt lat="45.11774" lon="4.96896">
        <ele>200.48599243164</ele>
        <time>2010-01-23T16:46:40Z</time>
      </trkpt>
      <trkpt lat="45.11761" lon="4.96869">
        <ele>199.99099731445</ele>
        <time>2010-01-23T16:46:44Z</time>
      </trkpt>
      <trkpt lat="45.1176" lon="4.96833">
        <ele>200.02499389648</ele>
        <time>2010-01-23T16:46:48Z</time>
      </trkpt>
      <trkpt lat="45.11748" lon="4.96824">
        <ele>200.20700073242</ele>
        <time>2010-01-23T16:46:51Z</time>
      </trkpt>
      <trkpt lat="45.11719" lon="4.96809">
        <ele>200.26800537109</ele>
        <time>2010-01-23T16:46:55Z</time>
      </trkpt>
      <trkpt lat="45.11679" lon="4.96748">
        <ele>199.24899291992</ele>
        <time>2010-01-23T16:47:04Z</time>
      </trkpt>
      <trkpt lat="45.11654" lon="4.96689">
        <ele>198.57400512695</ele>
        <time>2010-01-23T16:47:11Z</time>
      </trkpt>
      <trkpt lat="45.11621" lon="4.96603">
        <ele>198.26400756836</ele>
        <time>2010-01-23T16:47:21Z</time>
      </trkpt>
      <trkpt lat="45.11593" lon="4.96537">
        <ele>197.95599365234</ele>
        <time>2010-01-23T16:47:29Z</time>
      </trkpt>
      <trkpt lat="45.11583" lon="4.96515">
        <ele>198.10699462891</ele>
        <time>2010-01-23T16:47:32Z</time>
      </trkpt>
      <trkpt lat="45.11574" lon="4.96497">
        <ele>197.83799743652</ele>
        <time>2010-01-23T16:47:35Z</time>
      </trkpt>
      <trkpt lat="45.1158" lon="4.96482">
        <ele>198.25</ele>
        <time>2010-01-23T16:47:36Z</time>
      </trkpt>
      <trkpt lat="45.1158" lon="4.96469">
        <ele>198.55700683594</ele>
        <time>2010-01-23T16:47:38Z</time>
      </trkpt>
      <trkpt lat="45.1158" lon="4.96463">
        <ele>198.63200378418</ele>
        <time>2010-01-23T16:47:39Z</time>
      </trkpt>
      <trkpt lat="45.1158" lon="4.96458">
        <ele>198.87800598144</ele>
        <time>2010-01-23T16:47:40Z</time>
      </trkpt>
      <trkpt lat="45.11581" lon="4.96447">
        <ele>198.97900390625</ele>
        <time>2010-01-23T16:47:44Z</time>
      </trkpt>
      <trkpt lat="45.11581" lon="4.96446">
        <ele>198.69299316406</ele>
        <time>2010-01-23T16:47:47Z</time>
      </trkpt>
      <trkpt lat="45.11581" lon="4.96449">
        <ele>198.74099731445</ele>
        <time>2010-01-23T16:48:18Z</time>
      </trkpt>
      <trkpt lat="45.11554" lon="4.96465">
        <ele>198.45500183106</ele>
        <time>2010-01-23T16:48:24Z</time>
      </trkpt>
      <trkpt lat="45.1155" lon="4.96459">
        <ele>198.45399475098</ele>
        <time>2010-01-23T16:48:26Z</time>
      </trkpt>
      <trkpt lat="45.11543" lon="4.96448">
        <ele>199.53999328613</ele>
        <time>2010-01-23T16:48:32Z</time>
      </trkpt>
      <trkpt lat="45.11581" lon="4.96426">
        <ele>199.42999267578</ele>
        <time>2010-01-23T16:48:36Z</time>
      </trkpt>
      <trkpt lat="45.11581" lon="4.96427">
        <ele>199.46000671387</ele>
        <time>2010-01-23T16:48:38Z</time>
      </trkpt>
      <trkpt lat="45.11581" lon="4.96427">
        <ele>199.44599914551</ele>
        <time>2010-01-23T16:48:45Z</time>
      </trkpt>
      <trkpt lat="45.11581" lon="4.96427">
        <ele>199.58299255371</ele>
        <time>2010-01-23T16:48:46Z</time>
      </trkpt>
    </trkseg>
  </trk>
</gpx>